[[{"header":{"parameterUnit":"m.s-1","parameterCategory":1,"la1":30.6,"la2":29.2853,"lo1":-89.7004,"lo2":-87.6739,"dx":0.0162,"dy":0.0183,"nx":112,"ny":82,"refTime":"2023-01-07T18:00:00:Z","depth":0,"parameterNumber":2,"parameterNumberName":"U-component_of_WINDS"},"data":[0.0,0.0,0.0,0.0,0.0,0.0,0.0,0.0,0.0,0.0,0.0,0.0,0.0,0.0,0.0,0.0,0.0,0.0,0.0,0.0,0.0,0.0,0.0,0.0,0.0,0.0,0.0,0.0,0.0,0.0,0.0,0.0,0.0,0.0,0.0,0.0,0.0,0.0,0.0,0.0,0.0,0.0,0.0,0.0,0.0,0.0,0.0,0.0,0.0,0.0,0.0,0.0,0.0,0.0,0.0,0.0,0.0,0.0,0.0,0.0,0.0,0.0,0.0,0.0,0.0,0.0,0.0,0.0,0.0,0.0,0.0,0.0,0.0,0.0,0.0,0.0,0.0,0.0,0.0,0.0,0.0,0.0,0.0,0.0,0.0,0.0,0.0,0.0,0.0,0.0,1.5689,1.6497,1.8524,1.9811,1.9811,1.9811,1.7904,1.3473,0.0,0.0,0.0,0.0,0.0,0.0,0.0,0.0,0.0,0.0,0.0,0.0,0.0,0.0,0.0,0.0,0.0,0.0,0.0,0.0,0.0,0.0,0.0,0.0,0.0,0.0,0.0,0.0,0.0,0.0,0.0,0.0,0.0,0.0,0.0,0.0,0.0,0.0,0.0,0.0,0.0,0.0,0.0,0.0,0.0,0.0,0.0,0.0,0.0,0.0,0.0,0.0,0.0,0.0,0.0,0.0,0.0,0.0,0.0,0.0,0.0,0.0,0.0,0.0,0.0,0.0,0.0,0.0,0.0,0.0,0.0,0.0,0.0,0.0,0.0,0.0,0.0,0.0,0.0,0.0,0.0,0.0,0.0,0.0,0.0,0.0,0.0,0.0,0.0,0.0,0.0,0.0,0.0,0.0,0.0,0.0,0.0,0.0,0.0,0.0,0.0,0.0,0.0,0.0,1.5223,1.8855,1.9585,1.9811,1.9811,1.9811,1.7904,1.3473,0.0,0.0,0.0,0.0,0.0,0.0,0.0,0.0,0.0,0.0,0.0,0.0,0.0,0.0,0.0,0.0,0.0,0.0,0.0,0.0,0.0,0.0,0.0,0.0,0.0,0.0,0.0,0.0,0.0,0.0,0.0,0.0,0.0,0.0,0.0,0.0,0.0,0.0,0.0,0.0,0.0,0.0,0.0,0.0,0.0,0.0,0.0,0.0,0.0,0.0,0.0,0.0,0.0,0.0,0.0,0.0,0.0,0.0,0.0,0.0,0.0,0.0,0.0,0.0,0.0,0.0,0.0,0.0,0.0,0.0,0.0,0.0,0.0,0.0,0.0,0.0,0.0,0.0,0.0,0.0,0.0,0.0,0.0,0.0,0.0,0.0,0.0,0.0,0.0,0.0,0.0,0.0,0.0,0.0,0.0,0.0,0.0,0.0,0.0,0.0,0.0,0.0,0.0,1.3732,1.5997,1.9434,1.9811,1.9811,1.9811,1.9811,1.7904,1.3473,1.3198,0.0,0.0,0.0,0.0,0.0,0.0,0.0,0.0,0.0,0.0,0.0,0.0,0.0,0.0,0.0,0.0,0.0,0.0,0.0,0.0,0.0,0.0,0.0,0.0,0.0,0.0,0.0,0.0,0.0,0.0,0.0,0.0,0.0,0.0,0.0,0.0,0.0,0.0,0.0,0.0,0.0,0.0,0.0,0.0,0.0,0.0,0.0,0.0,0.0,0.0,0.0,0.0,0.0,0.0,0.0,0.0,0.0,0.0,0.0,0.0,0.0,0.0,0.0,0.0,0.0,0.0,0.0,0.0,0.0,0.0,0.0,0.0,0.0,0.0,0.0,0.0,0.0,0.0,0.0,0.0,0.0,0.0,0.0,0.0,0.0,0.0,0.0,0.0,0.0,0.0,0.0,0.0,0.0,0.0,0.0,0.0,0.0,0.0,0.0,0.0,0.0,0.0,1.6019,1.7476,1.9585,1.9811,1.9811,1.9811,1.9811,1.7904,1.3473,1.3198,0.0,0.0,0.0,0.0,0.0,0.0,0.0,0.0,0.0,0.0,0.0,0.0,0.0,0.0,0.0,0.0,0.0,0.0,0.0,0.0,0.0,0.0,0.0,0.0,0.0,0.0,0.0,0.0,0.0,0.0,0.0,0.0,0.0,0.0,0.0,0.0,0.0,0.0,0.0,0.0,0.0,0.0,0.0,0.0,0.0,0.0,0.0,0.0,0.0,0.0,0.0,0.0,0.0,0.0,0.0,0.0,0.0,0.0,0.0,0.0,0.0,0.0,0.0,0.0,0.0,0.0,0.0,0.0,0.0,0.0,0.0,0.0,0.0,0.0,0.0,0.0,0.0,0.0,0.0,0.0,0.0,0.0,0.0,0.0,0.0,0.0,0.0,0.0,0.0,0.0,0.0,0.0,0.0,0.0,0.0,0.0,0.0,0.0,0.0,0.0,0.0,0.0,1.6951,1.9585,1.9786,1.9811,1.9811,1.9811,1.9811,1.7904,1.3473,1.3198,0.0,0.0,0.0,0.0,0.0,0.0,0.0,0.0,0.0,0.0,0.0,0.0,0.0,0.0,0.0,0.0,0.0,0.0,0.0,0.0,0.0,0.0,0.0,0.0,0.0,0.0,0.0,0.0,0.0,0.0,0.0,0.0,0.0,0.0,0.0,0.0,0.0,0.0,0.0,0.0,0.0,0.0,0.0,0.0,0.0,0.0,0.0,0.0,0.0,0.0,0.0,0.0,0.0,0.0,0.0,0.0,0.0,0.0,0.0,0.0,0.0,0.0,0.0,0.0,0.0,0.0,0.0,0.0,0.0,0.0,0.0,0.0,0.0,0.0,0.0,0.0,0.0,0.0,0.0,0.0,0.0,0.0,0.0,0.0,0.0,0.0,0.0,0.0,0.0,0.0,0.0,0.0,0.0,0.0,0.0,0.0,0.0,0.0,0.0,0.0,0.0,0.0,1.6095,1.8405,2.0189,2.0012,1.9811,1.9811,1.9811,1.7904,1.3473,0.0,0.0,0.0,0.0,0.0,0.0,0.0,0.0,0.0,0.0,0.0,0.0,0.0,0.0,0.0,0.0,0.0,0.0,0.0,0.0,0.0,0.0,0.0,0.0,0.0,0.0,0.0,0.0,0.0,0.0,0.0,0.0,0.0,0.0,0.0,0.0,0.0,0.0,0.0,0.0,0.0,0.0,0.0,0.0,0.0,0.0,0.0,0.0,0.0,0.0,0.0,0.0,0.0,0.0,0.0,0.0,0.0,0.0,0.0,0.0,0.0,0.0,0.0,0.0,0.0,0.0,0.0,0.0,0.0,0.0,0.0,0.0,0.0,0.0,0.0,0.0,0.0,0.0,0.0,0.0,0.0,0.0,0.0,0.0,0.0,0.0,0.0,0.0,0.0,0.0,0.0,0.0,0.0,0.0,0.0,0.0,0.0,0.0,0.0,0.0,0.0,0.0,1.3838,1.6443,1.8832,2.0742,2.0591,2.0338,2.0338,2.0338,1.838,1.3785,0.0,0.0,0.0,0.0,0.0,0.0,0.0,0.0,0.0,0.0,0.0,0.0,0.0,0.0,0.0,0.0,0.0,0.0,0.0,0.0,0.0,0.0,0.0,0.0,0.0,0.0,0.0,0.0,0.0,0.0,0.0,0.0,0.0,0.0,0.0,0.0,0.0,0.0,0.0,0.0,0.0,0.0,0.0,0.0,0.0,0.0,0.0,0.0,0.0,0.0,0.0,0.0,0.0,0.0,0.0,0.0,0.0,0.0,0.0,0.0,0.0,0.0,0.0,0.0,0.0,0.0,0.0,0.0,0.0,0.0,0.0,0.0,0.0,0.0,0.0,0.0,0.0,0.0,0.0,0.0,0.0,0.0,0.0,0.0,0.0,0.0,0.0,0.0,0.0,0.0,0.0,0.0,0.0,0.0,0.0,0.0,0.0,0.0,0.0,0.0,0.0,0.0,1.4022,1.8429,2.1493,2.1493,2.1493,2.1493,2.1493,2.1493,1.9384,0.0,0.0,0.0,0.0,0.0,0.0,0.0,0.0,0.0,0.0,0.0,0.0,0.0,0.0,0.0,0.0,0.0,0.0,0.0,0.0,0.0,0.0,0.0,0.0,0.0,0.0,0.0,0.0,0.0,0.0,0.0,0.0,0.0,0.0,0.0,0.0,0.0,0.0,0.0,0.0,0.0,0.0,0.0,0.0,0.0,0.0,0.0,0.0,0.0,0.0,0.0,0.0,0.0,0.0,0.0,0.0,0.0,0.0,0.0,0.0,0.0,0.0,0.0,0.0,0.0,0.0,0.0,0.0,0.0,0.0,0.0,0.0,0.0,0.0,0.0,0.0,0.0,0.0,0.0,0.0,0.0,0.0,0.0,0.0,0.0,0.0,0.0,0.0,0.0,0.0,0.0,0.0,0.0,0.0,0.0,0.0,0.0,0.0,0.0,0.0,0.0,0.0,0.0,1.4551,1.868,2.1644,2.202,2.1719,2.1493,2.1493,2.1493,1.9384,1.44,0.0,0.0,0.0,0.0,0.0,0.0,0.0,0.0,0.0,0.0,0.0,0.0,0.0,0.0,0.0,0.0,0.0,0.0,0.0,0.0,0.0,0.0,0.0,0.0,0.0,0.0,0.0,0.0,0.0,0.0,0.0,0.0,0.0,0.0,0.0,0.0,0.0,0.0,0.0,0.0,0.0,0.0,0.0,0.0,0.0,0.0,0.0,0.0,0.0,0.0,0.0,0.0,0.0,0.0,0.0,0.0,0.0,0.0,0.0,0.0,0.0,0.0,0.0,0.0,0.0,0.0,0.0,0.0,0.0,0.0,0.0,0.0,0.0,0.0,0.0,0.0,0.0,0.0,0.0,0.0,0.0,0.0,0.0,0.0,0.0,0.0,0.0,0.0,0.0,0.0,0.0,0.0,0.0,0.0,0.0,0.0,0.0,0.0,0.0,0.0,0.0,0.0,1.4758,1.9133,2.2347,2.2924,2.2698,2.2355,2.2031,2.1977,1.9967,1.5298,0.0,0.0,0.0,0.0,0.0,0.0,0.0,0.0,0.0,0.0,0.0,0.0,0.0,0.0,0.0,0.0,0.0,0.0,0.0,0.0,0.0,0.0,0.0,0.0,0.0,0.0,0.0,0.0,0.0,0.0,0.0,0.0,0.0,0.0,0.0,0.0,0.0,0.0,0.0,0.0,0.0,0.0,0.0,0.0,0.0,0.0,0.0,0.0,0.0,0.0,0.0,0.0,0.0,0.0,0.0,0.0,0.0,0.0,0.0,0.0,0.0,0.0,0.0,0.0,0.0,0.0,0.0,0.0,0.0,0.0,0.0,0.0,0.0,0.0,0.0,0.0,0.0,0.0,0.0,0.0,0.0,0.0,0.0,0.0,0.0,0.0,0.0,0.0,0.0,0.0,0.0,0.0,0.0,0.0,0.0,0.0,0.0,0.0,0.0,0.0,0.0,0.0,1.4833,1.9836,2.3471,2.4029,2.4079,2.374,2.2959,2.2847,2.1087,1.6975,0.0,0.0,0.0,0.0,0.0,0.0,0.0,0.0,0.0,0.0,0.0,0.0,0.0,0.0,0.0,0.0,0.0,0.0,0.0,0.0,0.0,0.0,0.0,0.0,0.0,0.0,0.0,0.0,0.0,0.0,0.0,0.0,0.0,0.0,0.0,0.0,0.0,0.0,0.0,0.0,0.0,0.0,0.0,0.0,0.0,0.0,0.0,0.0,0.0,0.0,0.0,0.0,0.0,0.0,0.0,0.0,0.0,0.0,0.0,0.0,1.0396,0.8503,0.0,0.0,0.0,0.0,0.0,0.0,0.0,0.0,0.0,0.0,0.0,0.0,0.0,0.0,0.0,0.0,0.0,0.0,0.0,0.0,0.0,0.0,0.0,0.0,0.0,0.0,0.0,0.0,0.0,0.0,0.0,0.0,0.0,0.0,0.0,0.0,0.0,0.0,0.0,0.0,1.5462,2.074,2.4474,2.4632,2.4625,2.4536,2.4375,2.3977,2.2397,1.9267,1.7026,0.0,0.0,0.0,0.0,0.0,0.0,0.0,0.0,0.0,0.0,0.0,0.0,0.0,0.0,0.0,0.0,0.0,0.0,0.0,0.0,0.0,0.0,0.0,0.0,0.0,0.0,0.0,0.0,0.0,0.0,0.0,0.0,0.0,0.0,0.0,0.0,0.0,0.0,0.0,0.0,0.0,0.0,0.0,0.0,0.0,0.0,0.0,0.0,0.0,0.0,0.0,0.0,0.0,0.0,0.0,0.0,0.0,0.0,0.0,1.1944,1.0893,0.0,0.0,0.0,0.0,0.0,0.0,0.0,0.0,0.0,0.0,0.0,0.0,0.0,0.0,0.0,0.0,0.0,0.0,0.0,0.0,0.0,0.0,0.0,0.0,0.0,0.0,0.0,0.0,0.0,0.0,0.0,0.0,0.0,0.0,0.0,0.0,0.0,0.0,0.0,0.0,1.6417,2.182,2.5711,2.5963,2.5487,2.5247,2.5384,2.4637,2.3447,2.1892,1.9223,0.0,0.0,0.0,0.0,0.0,0.0,0.0,0.0,0.0,0.0,0.0,0.0,0.0,0.0,0.0,0.0,0.0,0.0,0.0,0.0,0.0,0.0,0.0,0.0,0.0,0.0,0.0,0.0,0.0,0.0,0.0,0.0,0.0,0.0,0.0,0.0,0.0,0.0,0.0,0.0,0.0,0.0,0.0,0.0,0.0,0.0,0.0,0.0,0.0,0.0,0.0,0.0,0.0,1.104,1.1645,1.1816,1.2608,1.3635,1.4727,1.373,1.3748,1.4284,1.1263,0.0,0.0,0.0,0.0,0.0,0.0,0.0,0.0,0.0,0.0,0.0,0.0,0.0,0.0,0.0,0.0,0.0,0.0,0.0,0.0,0.0,0.0,1.3375,1.3402,1.4316,1.4914,1.3756,0.0,0.0,0.0,0.0,0.0,0.0,0.0,0.0,0.0,0.0,0.0,1.8179,2.3306,2.6952,2.7369,2.6578,2.614,2.636,2.5433,2.4645,2.421,2.1197,1.9263,0.0,0.0,0.0,0.0,0.0,0.0,0.0,0.0,0.0,0.0,0.0,0.0,0.0,0.0,0.0,0.0,0.0,0.0,0.0,0.0,0.0,0.0,0.0,0.0,0.0,0.0,0.0,0.0,0.0,0.0,0.0,0.0,0.4794,0.4843,0.0,0.0,0.0,0.0,0.0,0.0,0.0,0.0,0.0,0.0,0.0,0.0,0.0,0.9208,0.9317,1.1177,1.255,1.3368,1.4988,1.6229,1.7019,1.7135,1.7318,1.748,1.7311,0.0,1.4459,1.3988,0.0,0.0,0.0,0.0,0.0,0.0,0.0,0.0,0.0,0.0,0.0,0.0,0.0,0.0,0.0,0.0,0.0,0.0,0.0,0.0,0.0,0.0,1.6924,1.7619,1.7905,1.812,1.8326,1.5177,1.2152,1.1737,1.234,1.1776,0.0,0.0,0.0,0.0,0.0,0.0,2.1892,2.5611,2.7921,2.7996,2.7887,2.7777,2.7814,2.7257,2.6468,2.5439,2.3784,2.19,1.9727,1.8087,0.0,0.0,0.0,0.0,0.0,0.0,0.0,0.0,0.0,0.0,0.0,0.0,0.0,0.0,0.0,0.0,0.0,0.0,0.0,0.0,0.0,0.0,0.0,0.0,0.0,0.0,0.0,0.0,0.0,0.4939,0.5163,0.5575,0.5597,0.5456,0.0,0.0,0.0,0.0,0.0,0.0,0.0,0.0,0.0,1.0063,1.0306,1.0608,1.1028,1.1964,1.2648,1.304,1.4369,1.519,1.5631,1.6715,1.7217,1.7251,1.775,1.7566,1.6699,1.5249,1.4028,1.2923,0.0,0.0,0.0,0.0,1.154,1.1762,1.3496,1.3874,1.3614,1.3614,0.0,0.0,0.0,0.0,0.0,0.0,0.0,1.3942,1.5693,1.6726,1.7605,1.8727,1.918,1.9473,1.9922,1.8429,1.6457,1.4848,1.4792,1.3762,0.9774,1.1796,0.0,0.0,0.0,2.0652,2.2022,2.5104,2.7184,2.7184,2.6609,2.649,2.7144,2.6401,2.5972,2.6113,2.4934,2.4031,2.3568,2.0542,1.805,0.0,0.0,0.0,0.0,0.0,0.0,0.0,0.0,0.0,0.0,0.0,0.0,0.0,0.0,0.0,0.0,0.0,0.0,0.0,0.0,0.0,0.0,0.0,0.0,0.0,0.0,0.0,0.0,0.5338,0.5576,0.6232,0.621,0.5944,0.0,0.0,0.0,0.0,0.0,0.0,0.9821,0.9966,1.045,1.1432,1.1474,1.1792,1.2412,1.2412,1.2564,1.2893,1.3586,1.4065,1.4359,1.6082,1.6865,1.6953,1.7903,1.8516,1.8617,1.6602,1.5762,1.5592,1.3902,1.3167,1.3135,1.3754,1.3952,1.4163,1.6032,1.6597,1.6525,1.6525,1.593,1.5091,1.4501,0.0,0.0,0.0,0.0,1.5663,1.7205,1.7949,1.8566,1.9703,2.0195,2.0508,2.0879,2.08,2.0066,1.8041,1.7719,1.656,1.2701,1.4995,0.0,1.4269,1.8487,2.2093,2.2709,2.5195,2.6912,2.6912,2.6419,2.6295,2.6871,2.613,2.5755,2.6047,2.5282,2.512,2.583,2.2914,2.1143,2.0902,0.0,0.0,0.0,0.0,0.0,0.0,0.0,0.0,0.0,0.0,0.0,0.0,0.0,0.0,0.0,0.0,0.0,0.0,0.0,0.0,0.0,0.0,0.0,0.0,0.0,0.0,0.0,0.0,0.0,0.6518,0.7388,0.0,0.0,0.0,0.0,0.7857,0.8254,0.9261,1.1017,1.1485,1.1854,1.2221,1.2248,1.2409,1.2757,1.2757,1.3352,1.4486,1.4525,1.5011,1.5913,1.7098,1.7638,1.7675,1.8762,1.9238,1.9219,1.8637,1.7915,1.7163,1.7093,1.6239,1.5153,1.6083,1.6425,1.6628,1.8006,1.8477,1.8477,1.8477,1.7231,1.5798,1.6138,1.5362,0.0,0.0,1.7322,1.8235,2.0389,2.0996,2.1133,2.1641,2.1777,2.1797,2.1816,2.133,2.0913,2.0958,2.1722,2.1308,1.7918,0.0,1.9781,2.0172,2.0565,2.2094,2.5793,2.7267,2.8004,2.8004,2.8949,2.9106,2.8084,2.7964,2.7052,2.4999,2.483,2.4619,2.4115,2.4898,2.4076,2.1502,2.1285,0.0,0.0,0.0,0.0,0.0,0.0,0.0,0.0,0.0,0.0,0.0,0.0,0.0,0.0,0.0,0.0,0.0,0.0,0.0,0.0,0.0,0.0,0.0,0.0,0.0,0.0,0.0,0.0,0.6569,0.6678,0.0,0.5828,0.6902,0.7917,0.8551,0.9636,1.0833,1.2145,1.2545,1.2747,1.2879,1.2893,1.2933,1.3039,1.3053,1.325,1.3699,1.3699,1.3856,1.4233,1.5265,1.571,1.5749,1.6774,1.7366,1.7614,1.7436,1.7862,1.8587,1.8587,1.8293,1.7875,1.8206,1.8508,1.8809,1.9275,1.9648,1.9883,1.9883,1.9429,1.8951,1.9367,1.916,1.8953,1.9932,2.0346,2.0681,2.1447,2.166,2.1699,2.1855,2.209,2.2285,2.2285,2.2296,2.232,2.2402,2.213,2.1135,1.8582,2.0866,2.2466,2.093,2.2812,2.4937,2.6326,2.683,2.7075,2.7075,2.7424,2.7221,2.6066,2.5983,2.5336,2.38,2.3714,2.3935,2.4472,2.4574,2.4451,2.4166,2.4507,2.1686,0.0,0.0,0.0,0.0,0.0,0.0,0.0,0.0,0.0,0.0,0.0,0.0,0.0,0.0,0.0,0.0,0.0,0.0,0.0,0.0,0.0,0.0,0.0,0.0,0.0,0.6024,0.6133,0.6569,0.6588,0.6414,0.5914,0.6919,0.8063,0.9169,1.0144,1.1346,1.2854,1.3093,1.3213,1.3213,1.3213,1.3253,1.332,1.332,1.34,1.3507,1.3507,1.3507,1.3548,1.4511,1.4974,1.5014,1.6023,1.6622,1.6875,1.6875,1.7817,1.9221,1.9221,1.9408,1.9764,1.9764,1.9902,2.0137,2.0137,2.043,2.0781,2.0781,2.0938,2.1114,2.1367,2.1465,2.1504,2.1797,2.1992,2.209,2.209,2.2207,2.2305,2.2305,2.2519,2.2672,2.2672,2.2906,2.3101,2.3101,2.2542,2.1609,2.0222,2.2352,2.3495,2.1309,2.3456,2.5205,2.4843,2.5445,2.5922,2.5922,2.6584,2.6419,2.4914,2.4648,2.4132,2.3173,2.2588,2.2868,2.417,2.3552,2.3509,2.4221,2.4798,2.2176,1.6291,0.0,0.0,0.0,0.0,0.0,0.0,0.0,0.0,0.0,0.0,0.0,0.0,0.0,0.0,0.0,0.0,0.0,0.0,0.0,0.0,0.0,0.0,0.0,0.6133,0.6091,0.614,0.6532,0.7294,0.7315,0.6145,0.7074,0.8288,0.9536,0.9684,1.0734,1.3041,1.3187,1.324,1.324,1.324,1.3333,1.3613,1.3613,1.376,1.4082,1.4082,1.4082,1.4124,1.5171,1.5655,1.5696,1.678,1.7229,1.7212,1.7204,1.7893,1.8935,1.8957,1.9648,2.0605,2.0605,2.0625,2.0625,2.0644,2.0898,2.121,2.121,2.1543,2.1894,2.1894,2.1894,2.1914,2.1914,2.2227,2.2539,2.2539,2.2789,2.3101,2.3101,2.3101,2.3101,2.312,2.312,2.312,2.314,2.314,2.312,2.3101,2.3101,2.2771,2.1759,2.2527,0.0,2.1798,2.3554,2.4893,2.4809,2.6739,2.7105,2.4935,2.4273,2.3735,2.3158,2.169,2.149,2.3066,2.2095,2.1599,2.1612,2.2001,2.1138,1.9029,0.0,0.0,0.0,0.0,0.0,0.0,0.0,0.0,0.0,0.0,0.0,0.0,0.0,0.0,0.0,0.0,0.0,0.0,0.0,0.0,0.0,0.5337,0.5706,0.6014,0.6139,0.6271,0.6368,0.6595,0.6612,0.6395,0.6659,0.7342,0.8518,0.9601,1.0819,1.218,1.3255,1.3841,1.3841,1.3841,1.3881,1.3961,1.3961,1.4001,1.4082,1.4082,1.4082,1.4124,1.4419,1.4531,1.4587,1.505,1.5149,1.502,1.5433,1.6107,1.7032,1.8446,1.9648,2.0605,2.0605,2.0762,2.1094,2.1406,2.1602,2.1699,2.1699,2.1777,2.1934,2.2246,2.2344,2.2402,2.2715,2.2828,2.2925,2.2925,2.3003,2.3101,2.3101,2.3101,2.3179,2.3535,2.3613,2.3711,2.4004,2.4017,2.3822,2.3198,2.3101,2.3272,2.3784,2.4383,2.4951,2.5476,2.6363,2.6484,2.5338,2.5768,2.5578,2.4207,2.3962,2.3896,2.4016,2.3629,2.3433,2.3594,2.3299,2.3411,2.3856,2.1255,2.0003,0.0,0.0,0.0,0.0,0.0,0.0,0.0,0.0,0.0,0.0,0.0,0.0,0.0,0.0,0.0,0.0,0.0,0.0,0.0,0.0,0.0,0.0,0.5584,0.5943,0.6107,0.6224,0.63,0.63,0.6354,0.6422,0.6504,0.6573,0.7078,0.8305,0.966,1.0899,1.2015,1.3374,1.4082,1.4082,1.4082,1.4082,1.4082,1.4082,1.4082,1.4082,1.4215,1.4269,1.4269,1.4402,1.4499,1.4512,1.4629,1.4616,1.4482,1.4861,1.5508,1.6412,0.0,0.0,0.0,0.0,2.0504,2.081,2.1613,2.1992,2.2148,2.2148,2.2266,2.2461,2.2695,2.273,2.2789,2.3023,2.3101,2.3101,2.3101,2.3237,2.3418,2.3418,2.351,2.3705,2.4004,2.4043,2.4121,2.4375,2.4414,0.0,2.3705,2.3627,2.3727,2.3928,2.4561,2.5083,2.5251,2.5914,2.5954,2.5068,2.5426,2.5264,2.4137,2.3853,0.0,0.0,0.0,2.3173,2.2715,2.2653,0.0,0.0,0.0,2.0673,2.2234,2.0228,0.0,0.0,1.8009,1.7699,0.0,0.0,0.0,0.0,0.0,0.0,0.0,0.0,0.0,0.0,0.0,0.0,0.0,0.0,0.0,0.0,0.5815,0.63,0.63,0.6313,0.6327,0.6327,0.6436,0.6525,0.6559,0.6647,0.7244,0.8411,0.9681,1.09,1.2054,1.3379,0.0,0.0,0.0,1.4082,1.4082,1.4122,1.4135,1.4135,1.4429,1.4576,1.4576,1.4843,1.5008,1.5008,1.5048,1.5035,1.5008,1.5075,1.5673,1.6522,1.6712,1.7383,1.8337,1.9614,2.0099,2.0286,2.1575,0.0,0.0,2.2578,2.2789,2.3101,2.3101,2.3101,2.3101,2.3101,2.3101,2.3101,2.3159,2.3496,2.3809,2.3848,2.4141,2.4434,2.4473,2.4492,2.4512,2.4551,2.457,2.457,2.457,2.4492,2.4067,2.3141,2.383,2.4151,2.3181,2.393,2.4473,2.431,2.5178,0.0,2.4362,2.3867,2.3823,2.4526,2.3185,2.209,2.157,2.149,2.147,2.147,2.147,2.2462,2.4414,2.4473,2.4492,2.4355,1.9444,1.8965,0.0,0.0,0.0,0.0,0.0,0.0,0.0,0.0,0.0,0.0,0.0,0.0,0.0,0.0,0.0,0.5726,0.6093,0.63,0.63,0.6402,0.647,0.647,0.6497,0.6566,0.6817,0.6822,0.7025,0.7388,0.9381,1.0694,1.0907,1.2954,1.4082,1.4082,1.4082,1.4082,1.4082,1.4322,1.4442,1.4442,1.4736,0.0,1.4928,1.4981,1.5008,1.5022,1.5217,1.5177,1.5048,1.5471,1.5752,1.6058,1.738,1.8035,1.8413,1.9955,2.0555,2.0782,2.2323,2.2906,2.2984,2.2984,2.3023,2.3101,2.3101,2.3101,0.0,2.3101,2.3101,2.3179,2.3574,2.373,2.3867,2.4219,2.4355,2.4512,2.4863,2.4941,2.5059,2.541,2.544,2.544,2.544,2.4883,2.4343,2.4146,2.4585,2.4871,2.4657,2.5134,2.4992,2.3743,2.3796,2.3839,2.3584,2.3493,2.3993,2.5332,2.4839,2.4461,2.4336,2.3938,2.3761,2.3761,2.3761,2.3951,2.4414,2.4766,2.4941,2.4949,2.3467,2.3205,0.0,0.0,0.0,0.0,0.0,0.0,0.0,0.0,0.0,0.0,0.0,0.3836,0.5108,0.0,0.5528,0.6079,0.6245,0.6327,0.6395,0.647,0.6511,0.6511,0.6607,0.6763,0.6869,0.695,0.7018,0.7092,0.927,1.0605,1.0605,1.2248,1.3464,1.4082,1.3506,1.354,1.4309,1.4442,1.4589,1.475,1.5044,1.5177,1.5177,1.5337,1.5391,1.5404,1.5551,1.5524,1.5418,1.5712,1.5784,1.5886,1.667,1.6995,1.7206,1.8672,1.9187,1.9384,2.0801,2.1676,2.2208,2.2208,2.2624,2.3101,2.3101,2.3257,2.3457,2.3457,2.3613,2.3783,2.4043,2.4258,2.4473,2.4687,2.4922,2.5089,2.5352,2.541,2.5469,2.5635,2.5693,2.5693,2.5693,2.5323,2.5031,2.5031,2.5254,2.541,2.541,2.5605,2.5408,2.4609,2.4536,2.4536,2.4536,2.4536,2.4875,2.5664,2.5527,2.541,2.541,2.5195,2.5031,2.5031,2.5031,2.5031,2.5031,2.5293,2.541,2.5391,2.5176,2.5031,0.0,0.0,0.0,0.0,0.0,0.0,0.0,0.1743,0.2275,0.2699,0.3191,0.3969,0.5312,0.5672,0.5876,0.6238,0.632,0.6381,0.6497,0.6566,0.6559,0.6559,0.6776,0.6896,0.6923,0.7031,0.7098,0.7098,0.9052,1.0269,1.0269,1.1338,1.2504,1.3688,1.2863,1.3083,1.4479,1.4629,1.4816,1.5102,1.5337,1.5484,1.5484,1.5725,1.5784,1.5784,1.5784,1.5784,1.5784,1.5784,1.5784,1.5784,1.5784,1.5784,1.5974,1.7232,1.7684,1.787,1.9085,2.0296,2.1302,2.1302,2.212,2.312,2.3198,2.3516,2.3809,2.3887,2.416,2.4434,2.4531,2.4805,2.5145,2.5176,2.5469,2.5693,2.5693,2.5693,2.5693,2.5693,2.5693,2.5693,2.5693,2.5693,2.5693,2.5693,2.5693,2.5693,2.5693,2.5693,2.5693,2.5693,2.5693,2.5693,2.5693,2.5693,2.5693,2.5693,2.5693,2.5693,2.5693,2.5693,2.5693,2.5693,2.5693,2.5693,2.5693,2.5693,2.5693,2.5693,2.5693,2.5693,-0.0298,0.0177,0.0311,0.0151,0.0556,0.086,0.0,0.186,0.3343,0.3121,0.4565,0.5965,0.6146,0.6211,0.6238,0.6293,0.6409,0.6497,0.6511,0.6709,0.6836,0.6836,0.6862,0.6937,0.7058,0.7085,0.7098,0.7098,0.8324,0.9104,0.9104,1.0183,1.1338,1.2462,1.2644,1.3311,1.4479,1.5044,1.5311,1.5351,1.5645,1.5778,1.5778,1.5771,1.5784,1.5784,1.5784,1.5784,1.5784,1.5784,1.5784,1.5784,1.5784,1.5784,1.5974,1.7232,1.7684,1.787,1.9085,2.0296,2.1302,2.1302,2.212,2.3159,2.3594,2.375,2.3867,2.4238,2.4375,2.4512,2.4902,2.5086,2.5176,2.5566,2.5654,2.5693,2.5693,2.5693,2.5693,2.5693,2.5693,2.5693,2.5693,2.5693,2.5693,2.5693,2.5693,2.5693,2.5693,2.5693,2.5693,2.5693,2.5693,2.5693,2.5693,2.5693,2.5693,2.5693,2.5693,2.5693,2.5693,2.5693,2.5693,2.5693,2.5693,2.5693,2.5693,2.5693,2.5693,2.5693,2.5693,2.5693,-0.0292,0.0083,0.0219,0.036,0.0647,0.0953,0.123,0.2157,0.3159,0.387,0.4724,0.555,0.6183,0.63,0.63,0.63,0.6422,0.6545,0.6593,0.679,0.6916,0.6997,0.7011,0.7031,0.7092,0.7098,0.7098,0.7098,0.8834,0.9618,0.893,1.0036,1.1291,1.2557,1.2137,1.2936,1.4985,1.5271,1.5484,1.5645,1.5765,1.5784,1.5784,1.5784,1.5784,1.5784,1.5784,1.5784,1.5784,1.5784,1.5784,1.5784,1.5784,1.5784,1.5879,1.6386,1.6574,1.6669,1.7156,1.8164,1.9347,2.028,2.1417,2.2678,2.3796,2.4336,2.457,2.4746,2.498,2.5187,2.541,2.5449,2.5508,2.5635,2.5693,2.5693,2.5693,2.5693,2.5693,2.5693,2.5693,2.5693,2.5693,2.5693,2.5693,2.5693,2.5693,2.5693,2.5693,2.5693,2.5693,2.5693,2.5693,2.5693,2.5693,2.5693,2.5693,2.5693,2.5693,2.5693,2.5693,2.5693,2.5693,2.5693,2.5693,2.5693,2.5693,2.5693,2.5693,2.5693,2.5693,2.5693,-0.0198,0.0,0.0094,0.0431,0.0594,0.09,0.1834,0.2349,0.3037,0.4404,0.4924,0.5395,0.6145,0.63,0.6313,0.6354,0.6477,0.6586,0.6742,0.6892,0.6984,0.7085,0.7098,0.7098,0.7098,0.7098,0.7098,0.7098,0.8659,0.927,0.8456,0.9678,1.0984,1.2269,1.2088,1.3078,1.5391,1.5471,1.5618,1.5784,1.5784,1.5784,1.5784,1.5784,1.5784,1.5784,1.5784,1.5784,1.5784,1.5784,1.5784,1.5784,1.5784,1.5784,1.5784,1.5784,1.5784,1.5784,1.5784,1.6678,1.8036,1.9615,2.0997,2.2353,2.3645,2.4221,2.4555,2.467,2.4918,2.5216,2.5577,2.5693,2.5693,2.5693,2.5693,2.5693,2.5693,2.5693,2.5693,2.5693,2.5693,2.5693,2.5693,2.5693,2.5693,2.5693,2.5693,2.5693,2.5693,2.5693,2.5693,2.5693,2.5693,2.5693,2.5693,2.5693,2.5693,2.5693,2.5693,2.5693,2.5693,2.5693,2.5693,2.5693,2.5693,2.5693,2.5693,2.5693,2.5693,2.5693,2.5693,2.5693,0.0,0.0,0.0,0.0033,0.0036,0.0313,0.1366,0.2377,0.3387,0.4491,0.5512,0.6261,0.63,0.63,0.6347,0.6484,0.6593,0.6749,0.6856,0.6997,0.7092,0.7098,0.7098,0.7098,0.7098,0.7098,0.7098,0.7098,0.718,0.7187,0.7143,0.8527,0.9921,1.1127,1.2768,1.4207,1.5391,1.5671,1.5771,1.5784,1.5784,1.5784,1.5784,1.5784,1.5784,1.5784,1.5784,1.5784,1.5784,1.5784,1.5784,1.5784,1.5784,1.5784,1.5784,1.5784,1.5784,1.5784,1.5784,1.6818,1.8291,1.9649,2.1122,2.247,2.2913,2.3039,2.3178,2.3606,2.3732,2.4048,2.5382,2.5693,2.5693,2.5693,2.5693,2.5693,2.5693,2.5693,2.5693,2.5693,2.5693,2.5693,2.5693,2.5693,2.5693,2.5693,2.5693,2.5693,2.5693,2.5693,2.5693,2.5693,2.5693,2.5693,2.5693,2.5693,2.5693,2.5693,2.5693,2.5693,2.5693,2.5693,2.5693,2.5693,2.5693,2.5693,2.5693,2.5693,2.5693,2.5693,2.5693,2.5693,0.0,0.0,0.0,0.0,0.0,0.0471,0.2189,0.2852,0.3593,0.5395,0.5865,0.5956,0.5956,0.5956,0.6003,0.6152,0.6471,0.6756,0.6862,0.7004,0.7098,0.7098,0.7098,0.7098,0.7098,0.7098,0.7098,0.7098,0.7841,0.7929,0.7143,0.8503,0.9939,1.1343,1.2125,1.3517,1.5638,1.5731,1.5784,1.5784,1.5784,1.5784,1.5784,1.5784,1.5784,1.5784,1.5784,1.5784,1.5784,1.5784,1.5784,1.5784,1.5784,1.5784,1.5784,1.5784,1.5784,1.5811,1.6059,1.647,1.719,1.8965,1.987,2.0522,2.1761,2.2129,2.2345,2.3398,2.3683,2.3998,2.5333,2.5693,2.5693,2.5693,2.5693,2.5693,2.5693,2.5693,2.5693,2.5693,2.5693,2.5693,2.5693,2.5693,2.5693,2.5693,2.5693,2.5693,2.5693,2.5693,2.5693,2.5693,2.5693,2.5693,2.5693,2.5693,2.5693,2.5693,2.5693,2.5693,2.5693,2.5693,2.5693,2.5693,2.4824,2.4805,2.5693,2.4805,2.4824,2.5693,2.4805,2.4492,0.0,0.0,0.0,0.0,0.0275,0.1019,0.2696,0.3398,0.4176,0.5944,0.6013,0.581,0.6144,0.5979,0.6014,0.6689,0.7031,0.7269,0.7288,0.744,0.7425,0.7136,0.7098,0.7098,0.7098,0.7098,0.7098,0.7098,0.7797,0.7929,0.7143,0.9005,1.0537,1.1456,1.2658,1.4076,1.5784,1.5784,1.5784,1.5784,1.5784,1.5784,1.5784,1.5784,1.5784,1.5784,1.5784,1.5784,1.5784,1.5784,1.5784,1.5784,1.5784,1.5784,1.5798,1.5952,1.5992,1.6019,1.6206,1.6339,1.6747,1.8584,1.9274,1.9562,2.0629,2.0947,2.1151,2.2013,2.2215,2.2667,2.451,2.4971,2.5118,2.5577,2.5693,2.5693,2.5693,2.5693,2.5693,2.5693,2.5693,2.5693,2.5693,2.5693,2.5693,2.5693,2.5693,2.5693,2.5693,2.5693,2.5693,2.5693,2.5693,2.5693,2.5693,2.5693,2.5693,2.5693,2.5693,2.5693,2.5693,2.5693,2.5479,2.4971,2.4146,2.3899,2.4245,2.3434,2.3434,2.4245,2.3384,2.3127,0.0,0.0,0.0,0.0,0.0824,0.1879,0.2891,0.3943,0.4996,0.6034,0.5911,0.5838,0.6639,0.6242,0.6272,0.7822,0.8107,0.8098,0.7975,0.8178,0.8006,0.721,0.7098,0.7098,0.7098,0.7098,0.7098,0.7098,0.7098,0.7098,0.7098,0.9813,1.141,1.1502,1.4225,1.5737,1.5784,1.5784,1.5784,1.5784,1.5784,1.5784,1.5784,1.5784,1.5784,1.5784,1.5784,1.5784,1.5784,1.5784,1.5784,1.5784,1.5784,1.5784,1.5858,1.6152,1.6308,1.6273,1.6335,1.6486,1.6968,1.8621,1.9271,1.9472,1.9472,1.9472,1.9524,1.9576,1.9576,2.0231,2.2868,2.3633,2.3998,2.5284,2.5645,2.5693,2.5693,2.5693,2.5693,2.5693,2.5693,2.5693,2.5693,2.5693,2.5693,2.5693,2.5693,2.5693,2.5693,2.5693,2.5693,2.5693,2.5693,2.5693,2.5693,2.5693,2.5693,2.5693,2.5645,2.5596,2.5596,2.5528,2.4922,2.3633,2.3534,2.2918,2.1693,2.1643,2.1643,2.1693,2.1643,2.1755,0.0,0.0,0.0,0.0,0.0824,0.1879,0.2891,0.3943,0.4887,0.5646,0.5488,0.528,0.5376,0.5472,0.5738,0.6437,0.6942,0.7247,0.731,0.7403,0.7358,0.7136,0.7098,0.7098,0.7098,0.7098,0.7098,0.7098,0.7098,0.7098,0.7098,0.896,1.0491,1.1456,1.3367,1.4854,1.5784,1.5784,1.5784,1.5784,1.5784,1.5784,1.5784,1.5784,1.5784,1.5784,1.5784,1.5784,1.5784,1.5784,1.5784,1.5784,1.5784,1.5784,1.5784,1.5912,1.6086,1.6348,1.6526,1.6794,1.719,1.7784,1.8025,1.8094,1.8094,1.8094,1.8304,1.9317,1.9576,1.9989,2.176,2.2968,2.38,2.4146,2.4971,2.5693,2.5693,2.5693,2.5693,2.5693,2.5693,2.5693,2.5693,2.5693,2.5693,2.5693,2.5693,2.5693,2.5693,2.5693,2.5693,2.5693,2.5693,2.5693,2.5693,2.5693,2.5693,2.5693,2.4756,2.4196,2.4196,2.3235,2.2567,2.2215,2.1202,2.0998,2.1693,2.0641,2.0692,2.1643,2.0641,2.0327,0.0,0.0342,0.0706,0.0706,0.184,0.3063,0.3411,0.4318,0.5123,0.5199,0.5049,0.5007,0.5251,0.5451,0.5851,0.6678,0.7245,0.7525,0.7489,0.7598,0.7541,0.7129,0.7098,0.7098,0.7098,0.7098,0.7098,0.7098,0.7098,0.7098,0.7098,0.9179,1.0711,1.1502,1.3602,1.5092,1.5784,1.5784,1.5784,1.5784,1.5784,1.5784,1.5784,1.5784,1.5784,1.5784,1.5784,1.5784,1.5784,1.5784,1.5784,1.5784,1.5784,1.5784,1.5811,1.6112,1.6313,1.6526,1.6941,1.7194,1.742,1.7528,1.7582,1.7582,1.7582,1.7582,1.774,1.8499,1.8708,1.902,2.0436,2.1355,2.2064,2.2667,2.3384,2.4097,2.4707,2.4805,2.502,2.5577,2.5693,2.5693,2.5693,2.5693,2.5693,2.5693,2.5693,2.5693,2.5693,2.5693,2.5693,2.5693,2.5693,2.5693,2.5693,2.5693,2.543,2.4873,2.4097,2.3434,2.2868,2.2114,2.1389,2.0794,1.9989,1.9679,1.9922,1.9109,1.9109,1.987,1.9109,1.8878,0.0154,0.0902,0.1646,0.1763,0.3246,0.4561,0.4121,0.4804,0.5379,0.4735,0.4643,0.4856,0.5457,0.5707,0.6214,0.7469,0.7997,0.8146,0.7907,0.8084,0.7935,0.7166,0.7098,0.7098,0.7098,0.7098,0.7098,0.7098,0.7231,0.737,0.7384,1.0148,1.1854,1.2045,1.4509,1.5784,1.5784,1.5784,1.5784,1.5784,1.5784,1.5784,1.5784,1.5784,1.5784,1.5784,1.5784,1.5784,1.5784,1.5784,1.5784,1.5784,1.5784,1.5784,1.5851,1.6446,1.6673,1.678,1.7328,1.7555,1.7582,1.7582,1.7582,1.7582,1.7582,1.7582,1.7582,1.7582,1.7582,1.7898,1.902,1.9472,1.9937,2.1151,2.1541,2.2013,2.3167,2.3434,2.3782,2.4922,2.5333,2.543,2.543,2.5577,2.5693,2.5693,2.5693,2.5693,2.5693,2.5693,2.5693,2.5693,2.5528,2.543,2.543,2.5284,2.4658,2.3484,2.3285,2.2617,2.144,2.1237,2.059,1.9369,1.9317,1.876,1.7582,1.7582,1.7582,1.7582,1.7582,1.7729,0.1094,0.145,0.1801,0.2618,0.3787,0.4561,0.4121,0.4733,0.5194,0.4314,0.4294,0.4447,0.4481,0.5199,0.5945,0.6413,0.6944,0.7323,0.7253,0.7301,0.7285,0.7136,0.7098,0.7098,0.7098,0.7098,0.7098,0.7098,0.8017,0.8689,0.8926,1.1458,1.3597,1.4986,1.5528,1.5784,1.5784,1.5784,1.5784,1.5784,1.5784,1.5784,1.5784,1.5784,1.5784,1.5784,1.5784,1.5784,1.5784,1.5784,1.5784,1.5784,1.5784,1.5784,1.5872,1.6219,1.65,1.6754,1.7152,1.7434,1.7582,1.7582,1.7582,1.7582,1.7582,1.7582,1.7582,1.7582,1.7582,1.7635,1.7884,1.876,1.9679,1.9937,2.0845,2.1744,2.2013,2.2047,2.2114,2.2366,2.3285,2.4048,2.4048,2.4971,2.5693,2.5693,2.5693,2.5693,2.5693,2.5693,2.5693,2.5693,2.4707,2.4048,2.4048,2.3018,2.2316,2.2064,2.0947,2.0195,1.9973,1.8916,1.8199,1.7937,1.7937,1.7845,1.7582,1.7582,1.7582,1.7582,1.7582,1.7609,0.1293,0.1996,0.2618,0.3671,0.4724,0.5332,0.4531,0.4715,0.4802,0.3972,0.4057,0.4313,0.4391,0.5291,0.606,0.6177,0.6722,0.7079,0.7118,0.7625,0.8017,0.8017,0.8017,0.8017,0.8017,0.8017,0.8017,0.8017,0.9842,1.0431,0.9337,1.196,1.4161,1.5771,1.5784,1.5784,1.5784,1.5784,1.5784,1.5784,1.5784,1.5784,1.5784,1.5784,1.5784,1.5784,1.5784,1.5784,1.5784,1.5784,1.5784,1.5784,1.5784,1.5784,1.5838,1.6326,1.658,1.6767,1.7221,1.7462,1.7582,1.7582,1.7582,1.7582,1.7582,1.7582,1.7582,1.7582,1.7582,1.7582,1.7582,1.8094,1.8551,1.8551,1.9627,2.059,2.059,2.1202,2.1693,2.1693,2.2767,2.3683,2.3683,2.4805,2.5479,2.4756,2.4658,2.4412,2.3683,2.3633,2.3899,2.4559,2.3484,2.2667,2.2667,2.2047,2.1389,2.0641,1.9973,1.9265,1.8603,1.7937,1.7582,1.7582,1.7582,1.7582,1.7582,1.7582,1.7582,1.7582,1.7582,1.7582,0.168,0.2657,0.3709,0.4768,0.5667,0.602,0.4931,0.4753,0.4547,0.376,0.3962,0.4356,0.455,0.5407,0.6131,0.6189,0.6714,0.7187,0.7461,0.8352,0.9052,0.9261,0.9061,0.8894,0.8894,0.8894,0.8894,0.8894,1.1388,1.2204,1.0684,1.287,1.4641,1.5771,1.5784,1.5784,1.5784,1.5784,1.5784,1.5784,1.5784,1.5784,1.5784,1.5784,1.5784,1.5784,1.5784,1.5784,1.5784,1.5784,1.5784,1.5784,1.5784,1.5784,1.5851,1.6486,1.67,1.6794,1.7382,1.7582,1.7582,1.7582,1.7582,1.7582,1.7582,1.7582,1.7582,1.7582,1.7582,1.7582,1.7582,1.7582,1.7582,1.7582,1.8408,1.9161,1.9161,2.0025,2.0845,2.0845,2.1912,2.2818,2.2818,2.3949,2.451,2.3434,2.3285,2.2868,2.1845,2.1456,2.1643,2.2717,2.1862,2.1237,2.1237,2.0982,2.0333,1.9213,1.9161,1.8708,1.7635,1.7582,1.7582,1.7582,1.7582,1.7582,1.7582,1.7582,1.7582,1.7582,1.7582,1.7582,0.2857,0.3748,0.4802,0.5867,0.6222,0.602,0.4931,0.4897,0.4779,0.3813,0.4121,0.4583,0.4592,0.5235,0.5849,0.6157,0.6707,0.7502,0.8588,0.9038,0.9574,1.0373,0.9531,0.8894,0.8894,0.8894,0.8894,0.8894,1.1547,1.3647,1.4779,1.5324,1.5663,1.5784,1.5784,1.5784,1.5784,1.5784,1.5784,1.5784,1.5784,1.5784,1.5784,1.5784,1.5784,1.5784,1.5784,1.5784,1.5784,1.5784,1.5784,1.5784,1.5784,1.5784,1.5851,1.6486,1.67,1.6794,1.7382,1.7582,1.7582,1.7582,1.7582,1.7582,1.7582,1.7582,1.7582,1.7582,1.7582,1.7582,1.7582,1.7582,1.7582,1.7582,1.7687,1.7793,1.7793,1.7884,1.7989,1.7989,1.9072,1.9989,1.9989,2.1151,2.2047,2.1895,2.1895,2.1845,2.1693,2.059,1.9834,1.9989,1.9886,1.9782,1.9782,1.8655,1.7937,1.7793,1.7793,1.774,1.7635,1.7582,1.7582,1.7582,1.7582,1.7582,1.7582,1.7582,1.7582,1.7582,1.7582,1.7582,0.3802,0.4375,0.4963,0.6022,0.6156,0.5803,0.51,0.4908,0.4742,0.43,0.4405,0.4676,0.4976,0.5402,0.5816,0.6153,0.6541,0.7051,0.7726,0.8957,0.9715,0.9577,0.9631,0.9747,0.9913,0.9923,1.0639,1.2437,1.3644,1.4695,1.5584,1.5718,1.5784,1.5784,1.5784,1.5784,1.5784,1.5784,1.5784,1.5784,1.5784,1.5784,1.5784,1.5784,1.5784,1.5784,1.5784,1.5784,1.5784,1.5784,1.5784,1.5784,1.5784,1.5784,1.5851,1.6486,1.67,1.6794,1.7382,1.7582,1.7582,1.7582,1.7582,1.7582,1.7582,1.7582,1.7582,1.7582,1.7582,1.7582,1.7582,1.7582,1.7582,1.7582,1.7582,1.7582,1.7582,1.7582,1.7582,1.7582,1.8655,1.9576,1.9576,2.0794,2.1389,2.0538,2.0436,2.0128,1.9317,1.876,1.8408,1.8408,1.8408,1.8408,1.8408,1.7884,1.7582,1.7582,1.7582,1.7582,1.7582,1.7582,1.7582,1.7582,1.7582,1.7582,1.7582,1.7582,1.7582,1.7582,1.7582,1.7582,0.4301,0.487,0.5356,0.6099,0.6145,0.5814,0.5235,0.5096,0.4992,0.4677,0.4708,0.4912,0.523,0.5451,0.5705,0.6129,0.6419,0.6862,0.7622,0.9017,0.9881,0.9673,0.989,1.0211,1.0658,1.1027,1.2277,1.4834,1.5089,1.5311,1.5758,1.5784,1.5784,1.5784,1.5784,1.5784,1.5784,1.5784,1.5784,1.5784,1.5784,1.5784,1.5784,1.5784,1.5784,1.5784,1.5784,1.5784,1.5784,1.5784,1.5784,1.5784,1.5784,1.5784,1.5838,1.6393,1.6633,1.678,1.7275,1.7515,1.7582,1.7582,1.7582,1.7582,1.7582,1.7582,1.7582,1.7582,1.7582,1.7582,1.7582,1.7582,1.7582,1.7582,1.7582,1.7582,1.7582,1.7582,1.7582,1.7582,1.8356,1.902,1.902,1.9819,2.0128,1.9176,1.902,1.8655,1.774,1.7582,1.7582,1.7582,1.7582,1.7582,1.7582,1.7582,1.7582,1.7582,1.7582,1.7582,1.7582,1.7582,1.7582,1.7582,1.7582,1.7582,1.7582,1.7582,1.7582,1.7582,1.7582,1.7582,0.4342,0.5239,0.63,0.63,0.6346,0.6168,0.5291,0.5567,0.5728,0.4796,0.4976,0.5293,0.5293,0.5293,0.5494,0.6102,0.6432,0.7206,0.8937,0.9484,1.014,1.1235,1.039,1.0062,1.092,1.2069,1.3415,1.4892,1.5231,1.5524,1.5771,1.5784,1.5784,1.5784,1.5784,1.5784,1.5784,1.5784,1.5784,1.5784,1.5784,1.5784,1.5784,1.5784,1.5784,1.5784,1.5784,1.5784,1.5784,1.5784,1.5784,1.5784,1.5784,1.5784,1.5824,1.6166,1.646,1.6754,1.7099,1.7393,1.7582,1.7582,1.7582,1.7582,1.7582,1.7582,1.7582,1.7582,1.7582,1.7582,1.7582,1.7582,1.7582,1.7582,1.7582,1.7582,1.7582,1.7582,1.7582,1.7582,1.7635,1.7635,1.7635,1.7635,1.7635,1.7635,1.7635,1.7635,1.7582,1.7582,1.7582,1.7582,1.7582,1.7582,1.7582,1.7582,1.7582,1.7582,1.7582,1.7582,1.7582,1.7582,1.7582,1.7582,1.7582,1.7582,1.7582,1.7582,1.7582,1.7582,1.7582,1.7582,0.4416,0.5101,0.5836,0.5821,0.5918,0.5943,0.5767,0.5696,0.5556,0.5161,0.5198,0.5293,0.5293,0.5117,0.5288,0.6311,0.6398,0.6794,0.8125,0.9459,1.0236,0.9983,1.0854,1.1578,1.1852,1.3169,1.4234,1.4937,1.5231,1.5524,1.5771,1.5784,1.5784,1.5784,1.5784,1.5784,1.5784,1.5784,1.5784,1.5784,1.5784,1.5784,1.5784,1.5784,1.5784,1.5784,1.5784,1.5784,1.5784,1.5784,1.5784,1.5784,1.5784,1.5784,1.5824,1.6166,1.6326,1.6473,1.7032,1.7259,1.7367,1.7515,1.7582,1.7582,1.7582,1.7582,1.7582,1.7582,1.7582,1.7582,1.7582,1.7582,1.7582,1.7582,1.7582,1.7582,1.7582,1.7582,1.7582,1.7582,1.7582,1.7582,1.7582,1.7582,1.7582,1.7582,1.7582,1.7582,1.7582,1.7582,1.7582,1.7582,1.7582,1.7582,1.7582,1.7582,1.7582,1.7582,1.7582,1.7582,1.7582,1.7582,1.7582,1.7582,1.7582,1.7582,1.7582,1.7582,1.7582,1.7582,1.7582,1.7582,0.4477,0.4984,0.5494,0.5764,0.5855,0.5898,0.5968,0.5774,0.5523,0.533,0.5197,0.5117,0.5117,0.4862,0.4968,0.5945,0.6057,0.6539,0.8019,0.9299,1.0079,1.0083,1.1499,1.2474,1.2474,1.3801,1.4763,1.4995,1.5337,1.5631,1.5771,1.5784,1.5784,1.5784,1.5784,1.5784,1.5784,1.5784,1.5784,1.5784,1.5784,1.5784,1.5784,1.5784,1.5784,1.5784,1.5784,1.5784,0.0,1.5784,1.5784,1.5784,1.5784,1.5784,1.5845,1.6032,1.6179,1.6375,1.6737,1.7018,1.7233,1.7407,1.7541,1.7582,1.7582,1.7582,1.7582,1.7582,1.7582,1.7582,1.7582,1.7582,1.7582,1.7582,1.7582,1.7582,1.7582,1.7582,1.7582,1.7582,1.7582,1.7582,1.7582,1.7582,1.7582,1.7582,1.7582,1.7582,1.7582,1.7582,1.7582,1.7582,1.7582,1.7582,1.7582,1.7582,1.7582,1.7582,1.7582,1.7582,1.7582,1.7582,1.7582,1.7582,1.7582,1.7582,1.7582,1.7582,1.7582,1.7582,1.7582,1.7582,0.0,0.4854,0.5263,0.5963,0.6067,0.5989,0.5989,0.5827,0.0,0.536,0.5022,0.4821,0.4887,0.4622,0.4623,0.5306,0.5611,0.6474,0.855,0.9191,0.9977,1.1389,1.2368,1.2878,1.2878,1.4164,1.5022,1.5035,1.5511,1.5784,1.5784,1.5784,1.5784,1.5784,1.5784,1.5784,1.5784,1.5784,1.5784,1.5784,1.5784,1.5784,1.5784,1.5784,1.5784,1.5784,1.5784,1.5784,1.5784,1.5784,1.5784,1.5784,1.5784,1.5784,1.5784,1.5784,1.6005,1.6295,1.6308,1.6697,1.7179,1.7219,1.742,1.7582,1.7582,1.7582,1.7582,1.7582,1.7582,1.7582,1.7582,1.7582,1.7582,1.7582,1.7582,1.7582,1.7582,1.7582,1.7582,1.7582,1.7582,1.7582,1.7582,1.7582,1.7582,1.7582,1.7582,1.7582,1.7582,1.7582,1.7582,1.7582,1.7582,1.7582,1.7582,1.7582,1.7582,1.7582,1.7582,1.7582,1.7582,1.7582,1.7582,1.7582,1.7582,1.7582,1.7582,1.7582,1.7582,1.7582,1.7582,1.7582,0.3697,0.0,0.5147,0.5318,0.5556,0.5769,0.0,0.5728,0.5625,0.536,0.5022,0.5022,0.5735,0.5065,0.489,0.6354,0.648,0.7027,0.8845,1.0742,1.2225,1.2987,1.3507,1.3774,1.3774,1.4539,1.5102,1.5284,1.5631,1.5784,1.5784,1.5784,1.5784,1.5784,1.5784,1.5784,1.5784,1.5784,1.5784,1.5784,1.5784,1.5784,1.5784,1.5784,1.5784,1.5784,1.5784,1.5784,1.5784,1.5784,1.5784,1.5784,1.5784,1.5784,1.5784,1.5784,1.5872,1.5965,1.6192,1.6513,1.6887,1.7341,1.7528,1.7582,1.7582,1.7582,1.7582,1.7582,1.7582,1.7582,1.7582,1.7582,1.7582,1.7582,1.7582,1.7582,1.7582,1.7582,1.7582,1.7582,1.7582,1.7582,1.7582,1.7582,1.7582,1.7582,1.7582,1.7582,1.7582,1.7582,1.7582,1.7582,1.7582,1.7582,1.7582,1.7582,1.7582,1.7582,1.7582,1.7582,1.7582,1.7582,1.7582,1.7582,1.7582,1.7582,1.7582,1.7582,1.7582,1.7582,1.7582,1.7582,0.3477,0.4226,0.4952,0.5288,0.5533,0.5728,0.5892,0.5705,0.5478,0.5333,0.5022,0.4953,0.5464,0.5478,0.5625,0.6287,0.7321,0.8577,1.0221,1.1806,1.3012,1.3533,1.3746,1.3988,1.4255,1.474,1.5129,1.5378,1.5671,1.5784,1.5784,1.5784,1.5784,1.5784,1.5784,1.5784,1.5784,1.5784,1.5784,1.5784,1.5784,1.5784,1.5784,1.5784,1.5784,1.5784,1.5784,1.5784,1.5784,1.5784,1.5784,1.5784,1.5784,1.5784,1.5784,1.5784,1.5784,1.5845,1.6019,1.6353,1.6807,1.7395,1.7582,1.7582,1.7582,1.7582,1.7582,1.7582,1.7582,1.7582,1.7582,1.7582,1.7582,1.7582,1.7582,1.7582,1.7582,1.7582,1.7582,1.7582,1.7582,1.7582,1.7582,1.7582,1.7582,1.7582,1.7582,1.7582,1.7582,1.7582,1.7582,1.7582,1.7582,1.7582,1.7582,1.7582,1.7582,1.7582,1.7582,1.7582,1.7582,1.7582,1.7582,1.7582,1.7582,1.7582,1.7582,1.7582,1.7582,1.7582,1.7582,1.7582,0.3657,0.4283,0.5011,0.5458,0.5634,0.5772,0.6008,0.5672,0.5293,0.5293,0.5077,0.4967,0.5285,0.5999,0.648,0.6346,0.8323,1.0412,1.1846,1.2583,1.3159,1.3547,1.364,1.388,1.4469,1.479,1.5142,1.5431,1.5685,1.5784,1.5784,1.5784,1.5784,1.5784,1.5784,1.5784,1.5784,1.5784,1.5784,1.5784,1.5784,1.5784,1.5784,1.5784,1.5784,1.5784,1.5784,1.5784,1.5784,1.5784,1.5784,1.5784,1.5784,1.5784,1.5784,1.5784,1.5784,1.5798,1.5925,1.6286,1.6807,1.7395,1.7582,1.7582,1.7582,1.7582,1.7582,1.7582,1.7582,1.7582,1.7582,1.7582,1.7582,1.7582,1.7582,1.7582,1.7582,1.7582,1.7582,1.7582,1.7582,1.7582,1.7582,1.7582,1.7582,1.7582,1.7582,1.7582,1.7582,1.7582,1.7582,1.7582,1.7582,1.7582,1.7582,1.7582,1.7582,1.7582,1.7582,1.7582,1.7582,1.7582,1.7582,1.7582,1.7582,1.7582,1.7582,1.7582,1.7582,1.7582,1.7582,1.7582,0.434,0.5418,0.6067,0.5164,0.5328,0.5665,0.5481,0.536,0.5293,0.5293,0.5253,0.5762,0.7531,0.6968,0.6874,0.8791,1.0033,1.1256,1.2476,1.3387,1.3828,1.3626,1.3868,1.4148,1.4482,1.479,1.519,1.5725,1.5758,1.5784,1.5784,1.5784,1.5784,1.5784,1.5784,1.5784,1.5784,1.5784,1.5784,1.5784,1.5784,1.5784,1.5784,1.5784,1.5784,1.5784,1.5784,1.5784,1.5784,1.5784,1.5784,1.5784,1.5784,1.5784,1.5784,1.5784,1.5784,1.5851,1.6393,1.6633,1.6807,1.7395,1.7582,1.7582,1.7582,1.7582,1.7582,1.7582,1.7582,1.7582,1.7582,1.7582,1.7582,1.7582,1.7582,1.7582,1.7582,1.7582,1.7582,1.7582,1.7582,1.7582,1.7582,1.7582,1.7582,1.7582,1.7582,1.7582,1.7582,1.7582,1.7582,1.7582,1.7582,1.7582,1.7582,1.7582,1.7582,1.7582,1.7582,1.7582,1.7582,1.7582,1.7582,1.7582,1.7582,1.7582,1.7582,1.7582,1.7582,1.7582,1.7582,1.7582,0.3961,0.4847,0.5473,0.4841,0.5739,0.6878,0.7308,0.6878,0.6441,0.6652,0.6707,0.7054,0.8201,0.8482,0.934,1.1712,1.173,1.1913,1.3066,1.3347,1.3427,1.3586,1.3908,1.4269,1.4723,1.503,1.5378,1.5744,1.5784,1.5784,1.5784,1.5784,1.5784,1.5784,1.5784,1.5784,1.5784,1.5784,1.5784,1.5784,1.5784,1.5784,1.5784,1.5784,1.5784,1.5784,1.5784,1.5784,1.5784,1.5784,1.5784,1.5784,1.5784,1.5784,1.5784,1.5784,1.5784,1.5912,1.65,1.67,1.6807,1.7395,1.7582,1.7582,1.7582,1.7582,1.7582,1.7582,1.7582,1.7582,1.7582,1.7582,1.7582,1.7582,1.7582,1.7582,1.7582,1.7582,1.7582,1.7582,1.7582,1.7582,1.7582,1.7582,1.7582,1.7582,1.7582,1.7582,1.7582,1.7582,1.7582,1.7582,1.7582,1.7582,1.7582,1.7582,1.7582,1.7582,1.7582,1.7582,1.7582,1.7582,1.7582,1.7582,1.7582,1.7582,1.7582,1.7582,1.7582,1.7582,1.7582,1.7582,0.3876,0.4516,0.5151,0.5254,0.6271,0.7494,0.853,0.8023,0.7503,0.8096,0.8325,0.8512,0.8858,0.9997,1.1471,1.3186,1.2746,1.2545,1.356,1.3347,1.3293,1.3746,1.4055,1.4416,1.5048,1.5271,1.5511,1.5758,1.5784,1.5784,1.5784,1.5784,1.5784,1.5784,1.5784,1.5784,1.5784,1.5784,1.5784,1.5784,1.5784,1.5784,1.5784,1.5784,1.5784,1.5784,1.5784,1.5784,1.5784,1.5784,1.5784,1.5784,1.5784,1.5784,1.5784,1.5784,1.5784,1.5912,1.65,1.67,1.6807,1.7395,1.7582,1.7582,1.7582,1.7582,1.7582,1.7582,1.7582,1.7582,1.7582,1.7582,1.7582,1.7582,1.7582,1.7582,1.7582,1.7582,1.7582,1.7582,1.7582,1.7582,1.7582,1.7582,1.7582,1.7582,1.7582,1.7582,1.7582,1.7582,1.7582,1.7582,1.7582,1.7582,1.7582,1.7582,1.7582,1.7582,1.7582,1.7582,1.7582,1.7582,1.7582,1.7582,1.7582,1.7582,1.7582,1.7582,1.7582,1.7582,1.7582,1.7582,0.4945,0.5631,0.6298,0.7083,0.6554,0.6136,0.7186,0.7462,0.7785,0.8871,0.955,1.0047,1.0385,1.1189,1.1779,1.1637,1.2465,1.3333,1.3961,1.4015,1.4108,1.4416,1.4482,1.4723,1.5311,1.5391,1.5511,1.5758,1.5784,1.5784,1.5784,1.5784,1.5784,1.5784,1.5784,1.5784,1.5784,1.5784,1.5784,1.5784,1.5784,1.5784,1.5784,1.5784,1.5784,1.5784,1.5784,1.5784,1.5784,1.5784,1.5784,1.5784,1.5784,1.5784,1.5784,1.5784,1.5784,1.5912,1.65,1.67,1.6807,1.7395,1.7582,1.7582,1.7582,1.7582,1.7582,1.7582,1.7582,1.7582,1.7582,1.7582,1.7582,1.7582,1.7582,1.7582,1.7582,1.7582,1.7582,1.7582,1.7582,1.7582,1.7582,1.7582,1.7582,1.7582,1.7582,1.7582,1.7582,1.7582,1.7582,1.7582,1.7582,1.7582,1.7582,1.7582,1.7582,1.7582,1.7582,1.7582,1.7582,1.7582,1.7582,1.7582,1.7582,1.7582,1.7582,1.7582,1.7582,1.7582,1.7582,1.7582,0.4395,0.4848,0.5326,0.5873,0.608,0.6742,0.9074,0.9296,0.9278,1.0344,1.1062,1.1396,1.1142,1.2278,1.3065,1.2395,1.3093,1.3828,1.4055,1.4082,1.4202,1.4482,1.4683,1.495,1.5351,1.5565,1.5712,1.5771,1.5784,1.5784,1.5784,1.5784,1.5784,1.5784,1.5784,1.5784,1.5784,1.5784,1.5784,1.5784,1.5784,1.5784,1.5784,1.5784,1.5784,1.5784,1.5784,1.5784,1.5784,1.5784,1.5784,1.5784,1.5784,1.5784,1.5784,1.5784,1.5952,1.6166,1.6567,1.6834,1.7099,1.7448,1.7582,1.7582,1.7582,1.7582,1.7424,1.6499,1.6221,1.6446,1.7358,1.7582,1.7582,1.7582,1.7582,1.7582,1.7582,1.7582,1.7582,1.7582,1.7582,1.7582,1.7582,1.7582,1.7582,1.7582,1.7582,1.7582,1.7582,1.7582,1.7582,1.7582,1.7582,1.7582,1.7582,1.7582,1.7582,1.7582,1.7582,1.7582,1.7582,1.7582,1.7582,1.7582,1.7582,1.7582,1.7582,1.7582,1.7582,1.7582,1.7582,1.7582,0.4225,0.4465,0.4922,0.563,0.6348,0.7651,1.0626,1.0691,1.0498,1.1804,1.2188,1.2211,1.1904,1.2759,1.3347,1.2864,1.3534,1.4082,1.4082,1.4082,1.4229,1.4616,1.4843,1.5156,1.5498,1.5712,1.5784,1.5784,1.5784,1.5784,1.5784,1.5784,1.5784,1.5784,1.5784,1.5784,1.5784,1.5784,1.5784,1.5784,1.5784,1.5784,1.5784,1.5784,1.5784,1.5784,1.5784,1.5784,1.5784,1.5784,1.5784,1.5784,1.5784,1.5784,1.5784,1.5784,1.6019,1.6313,1.6607,1.6583,1.6562,1.6845,1.6605,1.6234,1.6234,1.6234,1.6009,1.5037,1.4716,1.4984,1.5956,1.6234,1.6234,1.6234,1.6234,1.6234,1.6234,1.6234,1.6393,1.6817,1.6935,1.7041,1.7529,1.7582,1.7582,1.7582,1.7582,1.7582,1.7582,1.7582,1.7582,1.7582,1.7582,1.7582,1.7582,1.7582,1.7582,1.7582,1.7582,1.7582,1.7582,1.7582,1.7582,1.7582,1.7582,1.7582,1.7582,1.7582,1.7582,1.7582,1.7582,1.7582,0.4681,0.4851,0.5482,0.6942,0.7607,0.8631,1.131,1.1229,1.1189,1.3187,1.2894,1.2398,1.273,1.2556,1.2412,1.273,1.3534,1.4082,1.4082,1.4095,1.4309,1.4941,1.5008,1.519,1.5765,1.5784,1.5784,1.5784,1.5784,1.5784,1.5784,1.5784,1.5784,1.5784,1.5784,1.5784,1.5784,1.5784,1.5784,1.5784,1.5784,1.5784,1.5784,1.5784,1.5784,1.5784,1.5784,1.5784,1.5784,1.5784,1.5784,1.5784,1.5784,1.5784,1.5784,1.5784,1.6019,1.6326,1.6607,1.596,1.503,1.5329,1.4449,1.3318,1.3318,1.3318,1.3318,1.3264,1.3264,1.3264,1.3264,1.3264,1.3264,1.3264,1.3318,1.3318,1.3318,1.3318,1.3696,1.5091,1.537,1.5849,1.7305,1.7582,1.7582,1.7582,1.7582,1.7582,1.7582,1.7582,1.7582,1.7582,1.7582,1.7582,1.7582,1.7582,1.7582,1.7582,1.7582,1.7582,1.7582,1.7582,1.7582,1.7582,1.7582,1.7582,1.7582,1.7582,1.7582,1.7582,1.7582,1.7582,0.4533,0.5355,0.649,0.7252,0.8694,1.0341,1.1853,1.1971,1.2198,1.3654,1.3414,1.2906,1.2811,1.3226,1.3414,1.2878,1.3534,1.4082,1.4082,1.4269,1.4536,1.4968,1.5196,1.5418,1.5792,1.5784,1.5784,1.5784,1.5784,1.5784,1.5784,1.5784,1.5784,1.5784,1.5784,1.5784,1.5784,1.5784,1.5784,1.5784,1.5784,1.5784,1.5784,1.5784,1.5784,1.5784,1.5784,1.5784,1.5784,1.5784,1.5784,1.5784,1.5784,1.5784,1.5784,1.5784,1.6152,1.6593,1.6673,1.6087,1.5317,1.5388,1.4449,1.3318,1.3318,1.3318,1.3102,1.2028,1.1755,1.1483,1.046,1.0186,1.0726,1.2832,1.3318,1.3318,1.3318,1.3318,1.3426,1.3857,1.3911,1.4073,1.4502,1.4556,1.4931,1.5902,1.6062,1.6062,1.6062,1.6988,1.7199,1.6168,1.6988,1.7582,1.7582,1.7582,1.7582,1.7582,1.7582,1.7582,1.7582,1.7582,1.7582,1.7582,1.7582,1.7582,1.7582,1.7582,1.7582,1.7582,1.7582,1.7582,0.5588,0.6634,0.7932,0.9043,1.028,1.1564,1.275,1.3013,1.3213,1.3935,1.3707,1.336,1.3333,1.3627,1.3774,1.3387,1.3775,1.4082,1.4082,1.4335,1.4629,1.4968,1.5217,1.5511,1.5758,1.5784,1.5784,1.5784,1.5784,1.5784,1.5784,1.5784,1.5784,1.5784,1.5784,1.5784,1.5784,1.5784,1.5784,1.5784,1.5784,1.5784,1.5784,1.5784,1.5784,1.5784,1.5784,1.5784,1.5784,1.5784,1.5784,1.5784,1.5784,1.5784,1.5784,1.5784,1.6206,1.66,1.6035,1.5621,1.5198,1.4073,1.3102,1.2299,1.1755,1.1538,1.1374,1.046,1.0241,1.0021,0.9154,0.8885,0.9375,1.1109,1.1538,1.1538,1.1538,1.1538,1.1755,1.2299,1.2408,1.2615,1.321,1.3318,1.3588,1.4449,1.4556,1.4556,1.4556,1.537,1.5743,1.5423,1.6221,1.6988,1.7529,1.7582,1.7582,1.7582,1.7582,1.7582,1.7582,1.7582,1.7582,1.7582,1.7582,1.7582,1.7582,1.7582,1.7582,1.7582,1.7582,1.7582,0.724,0.8292,0.9681,1.1603,1.2094,1.2462,1.3774,1.4082,1.4082,1.4082,1.3868,1.372,1.4041,1.3868,1.3733,1.4041,1.4082,1.4082,1.4082,1.4362,1.4656,1.4981,1.5244,1.5538,1.5758,1.5784,1.5784,1.5784,1.5784,1.5784,1.5784,1.5784,1.5784,1.5784,1.5784,1.5784,1.5784,1.5784,1.5784,1.5784,1.5784,1.5784,1.5784,1.5784,1.5784,1.5784,1.5784,1.5784,1.5784,1.5784,1.5784,1.5784,1.5784,1.5784,1.5784,1.5784,1.6095,1.6299,1.4951,1.4729,1.4556,1.1973,1.1,1.0672,0.932,0.8885,0.8885,0.8885,0.8885,0.8885,0.8885,0.8885,0.8885,0.8885,0.8885,0.8885,0.8885,0.8885,0.932,1.0617,1.0891,1.1319,1.267,1.2886,1.294,1.3102,1.321,1.3264,1.3102,1.321,1.375,1.4877,1.5251,1.5956,1.7305,1.7529,1.7582,1.7582,1.7582,1.7582,1.7582,1.7582,1.7582,1.7582,1.7582,1.7582,1.7582,1.7582,1.7582,1.7582,1.7582,1.7582,0.681,0.8783,1.1054,1.1788,1.2777,1.3694,1.4015,1.4082,1.4082,1.4082,1.4041,1.4015,1.4082,1.4041,1.4015,1.4082,1.4082,1.4082,1.4082,1.4536,1.4941,1.4995,1.5418,1.5765,1.5771,1.5784,1.5784,1.5784,1.5784,1.5784,1.5784,1.5784,1.5784,1.5784,1.5784,1.5784,1.5784,1.5784,1.5784,1.5784,1.5784,1.5784,1.5784,1.5784,1.5784,1.5784,1.5784,1.5784,1.5784,1.5784,1.5784,1.5784,1.5784,1.5784,1.5784,1.5784,1.545,1.4951,1.4659,1.3467,1.1919,1.1319,1.0296,0.932,0.8989,0.8885,0.8885,0.8885,0.8885,0.8885,0.8885,0.8885,0.8885,0.8885,0.8885,0.8885,0.8885,0.8885,0.8989,0.932,0.9375,0.9478,0.9809,0.9864,1.0241,1.1374,1.2561,1.2886,1.1701,1.2561,1.2994,1.2136,1.4073,1.5518,1.5849,1.6935,1.7582,1.7582,1.7582,1.7582,1.7582,1.7582,1.7582,1.7582,1.7582,1.7582,1.7582,1.7582,1.7582,1.7582,1.7582,1.7582,0.7685,0.9556,1.149,1.2639,1.3507,1.4082,1.4082,1.4082,1.4082,1.4082,1.4082,1.4082,1.4082,1.4082,1.4082,1.4082,1.4082,1.4135,1.4269,1.4683,1.5062,1.5196,1.5565,1.5784,1.5784,1.5784,1.5784,1.5784,1.5784,1.5784,1.5784,1.5784,1.5784,1.5784,1.5784,1.5784,1.5784,1.5784,1.5784,1.5784,1.5784,1.5784,1.5784,1.5784,1.5784,1.5784,1.5784,1.5784,1.5784,1.5784,1.5784,1.5784,1.5784,1.5784,1.5798,1.5992,1.5823,1.538,1.4173,1.3456,1.2832,1.0726,1.0021,0.9809,0.9099,0.8885,0.8885,0.8885,0.8885,0.8885,0.8885,0.8885,0.8885,0.8885,0.8885,0.8885,0.8885,0.8885,0.8885,0.8885,0.8885,0.8885,0.8885,0.8885,0.9154,0.9919,1.0672,1.0945,1.0131,1.0726,1.1164,1.1109,1.2453,1.3911,1.5251,1.6115,1.6829,1.7582,1.7582,1.7582,1.7582,1.7582,1.7582,1.7582,1.7582,1.7582,1.7582,1.7582,1.7582,1.7582,1.7582,1.7582,0.8353,0.9976,1.1557,1.3587,1.4082,1.4082,1.4082,1.4082,1.4082,1.4082,1.4082,1.4082,1.4082,1.4082,1.4082,1.4082,1.4135,1.4242,1.4482,1.4816,1.5169,1.5364,1.5658,1.5784,1.5784,1.5784,1.5784,1.5784,1.5784,1.5784,1.5784,1.5581,1.5486,1.5486,1.5486,1.5343,1.5153,1.5343,1.5343,1.5153,1.5153,1.5153,1.5153,1.5391,1.5581,1.5784,1.5784,1.5784,1.5784,1.5784,1.5784,1.5784,1.5784,1.5689,1.5525,1.5813,1.5791,1.5303,1.3174,1.3242,1.3696,1.0076,0.9754,1.0515,0.9265,0.8885,0.8885,0.8885,0.8885,0.8885,0.8885,0.8898,0.8974,0.8974,0.8994,0.9008,0.8981,0.8994,0.8959,0.8959,0.8959,0.9008,0.8981,0.8974,0.8967,0.8885,0.8885,0.8885,0.8885,0.8885,0.9375,1.0562,1.0945,1.2181,1.4824,1.5251,1.6009,1.7529,1.7582,1.7582,1.7582,1.7582,1.7582,1.7582,1.7582,1.7582,1.7582,1.7582,1.7582,1.7582,1.7582,1.7582,0.6547,0.895,1.181,1.3627,1.4082,1.4082,1.4082,1.4082,1.4082,1.4082,1.4082,1.4082,1.4082,1.4082,1.4082,1.4082,1.4295,1.4482,1.4466,1.499,1.5351,1.5391,1.5658,1.5784,1.5784,1.5784,1.5784,1.5784,1.5784,1.5784,1.5784,1.4758,1.4172,1.4172,1.4172,1.3584,1.2436,1.3584,1.3584,1.2436,1.2436,1.2436,1.2484,1.3632,1.4758,1.5784,1.5784,1.5784,1.5784,1.5784,1.5784,1.5784,1.5784,1.514,1.4148,1.4325,1.306,1.1243,1.1027,1.0471,0.9699,0.9099,0.9044,0.9154,0.894,0.8885,0.8885,0.8885,0.8885,0.8885,0.8885,0.9028,0.918,0.918,0.9225,0.9286,0.9207,0.9225,0.932,0.932,0.932,0.9279,0.9207,0.918,0.9083,0.8898,0.8885,0.8885,0.8885,0.8885,0.8995,0.9154,1.0351,1.1755,1.3426,1.4716,1.6009,1.7529,1.7582,1.7582,1.7582,1.7582,1.7582,1.7582,1.7582,1.7582,1.7582,1.7582,1.7582,1.7582,1.7582,1.7582,0.7348,0.959,1.1815,1.3641,1.4082,1.4082,1.4082,1.4082,1.4082,1.4082,1.4082,1.4082,1.4082,1.4082,1.4082,1.4082,1.4335,1.4576,1.475,1.5137,1.5458,1.5618,1.5752,1.5784,1.5784,1.5784,1.5784,1.5784,1.5784,1.5784,1.5784,1.5296,1.4663,1.392,1.392,1.3247,1.1901,1.2474,1.2474,1.1901,1.2668,1.3006,1.3054,1.4364,1.4902,1.4806,1.5486,1.5784,1.5784,1.5784,1.5434,1.4837,1.4837,1.4091,1.3086,1.3271,1.2698,1.1668,1.113,1.0552,0.9966,0.9154,0.8885,0.8885,0.8885,0.8885,0.8885,0.8885,0.8885,0.8898,0.9042,0.9159,0.9228,0.9316,0.9395,0.949,0.9422,0.9395,0.9381,0.9381,0.9381,0.9361,0.935,0.9268,0.9187,0.9069,0.8988,0.8885,0.8885,0.8885,0.8885,0.8885,0.9478,1.0781,1.3102,1.3857,1.5209,1.7477,1.7582,1.7582,1.7582,1.7582,1.7582,1.7582,1.7582,1.7582,1.7582,1.7582,1.7582,1.7582,1.7582,1.7582,0.7592,0.9284,1.0618,1.2518,1.3265,1.3573,1.3652,1.387,1.4082,1.4082,1.4082,1.4082,1.4082,1.4082,1.4108,1.4188,1.4442,1.4736,1.5075,1.5324,1.5591,1.5758,1.5784,1.5784,1.5784,1.5784,1.5784,1.5784,1.5784,1.5784,1.5784,1.5486,1.4902,1.392,1.3584,1.2764,1.1414,1.1072,1.1072,1.1414,1.2086,1.2764,1.3392,1.4028,1.398,1.3488,1.5092,1.5629,1.5343,1.5343,1.4667,1.3617,1.3617,1.2909,1.1906,1.2169,1.2043,1.1646,1.0824,1.0562,1.0351,0.9265,0.8885,0.8885,0.8885,0.8885,0.8885,0.8885,0.8912,0.9015,0.918,0.9268,0.9357,0.9415,0.9551,0.9659,0.9659,0.9571,0.9496,0.9496,0.9496,0.9483,0.9449,0.9347,0.9316,0.9275,0.9089,0.8994,0.8994,0.8905,0.8885,0.8885,0.8885,0.9919,1.2507,1.3102,1.4395,1.6882,1.7371,1.7582,1.7582,1.7582,1.7582,1.7582,1.7582,1.7582,1.7582,1.7582,1.7582,1.7582,1.7582,1.7582,0.5846,0.6593,0.7351,0.9423,1.0978,1.2085,1.2343,1.3294,1.4082,1.4082,1.4082,1.4082,1.4082,1.4082,1.4175,1.4456,1.475,1.5089,1.5337,1.5618,1.5758,1.5784,1.5784,1.5784,1.5784,1.5784,1.5784,1.5784,1.5784,1.5784,1.5784,1.4651,1.3968,1.392,1.2668,1.1414,1.0092,0.8825,0.8825,1.01,0.8874,0.96,1.195,1.0828,1.0925,1.2145,1.4711,1.5092,1.4016,1.4016,1.3344,1.2313,1.2313,1.1544,1.0516,1.071,0.9984,0.8946,0.8996,0.8995,0.8989,0.894,0.8885,0.8885,0.8885,0.8885,0.8885,0.8885,0.9035,0.92,0.9207,0.9367,0.9591,0.9598,0.9707,0.9808,0.9808,0.9802,0.9795,0.9795,0.9795,0.9754,0.9618,0.9591,0.9537,0.9395,0.9296,0.92,0.92,0.9022,0.8885,0.8885,0.8885,0.9533,1.1109,1.2507,1.3911,1.5423,1.6817,1.7582,1.7582,1.7582,1.7582,1.7582,1.7582,1.7582,1.7582,1.7582,1.7582,1.7582,1.7582,1.7582,0.5712,0.6263,0.6824,0.8884,0.995,1.0765,1.1803,1.2516,1.2942,1.2942,1.3561,1.387,1.3069,1.3561,1.4175,1.4469,1.4776,1.5115,1.5351,1.4927,1.4555,1.4555,1.4555,1.4555,1.4555,1.5343,1.5784,1.5784,1.5784,1.5784,1.5784,1.5391,1.4364,1.2668,1.3006,1.2571,1.1219,0.9944,0.9509,1.0002,1.0337,1.0583,1.0681,1.1072,1.1463,1.195,1.2872,1.3054,1.2619,1.2619,1.2004,1.1057,1.1057,1.0374,0.9421,0.9534,0.9235,0.8811,0.8865,0.8885,0.8885,0.8885,0.8885,0.8885,0.8885,0.8885,0.8885,0.8885,0.9042,0.9234,0.933,0.9456,0.9632,0.9727,0.9781,0.9822,0.9822,0.9822,0.9822,0.9822,0.9822,0.9802,0.9754,0.9639,0.9578,0.9652,0.951,0.9334,0.9228,0.9166,0.9042,0.8892,0.8885,0.9478,1.0945,1.2453,1.3911,1.5304,1.6764,1.7582,1.7582,1.7582,1.7582,1.7582,1.7582,1.7582,1.7582,1.7582,1.7582,1.7582,1.7582,1.7582,0.4971,0.5376,0.5874,0.7609,0.8357,0.9086,1.0682,1.1251,1.1497,1.1708,1.2388,1.2687,1.1895,1.2376,1.3151,1.3875,1.427,1.4414,1.4259,1.4064,1.3728,1.3295,1.3247,1.3247,1.3247,1.398,1.4472,1.4472,1.4472,1.4472,1.4472,1.4472,1.3499,1.1317,1.2134,1.194,1.0583,0.9756,0.9558,1.0002,1.0386,1.0632,1.0632,1.0632,1.0828,1.1219,1.0779,1.0828,1.1268,1.1285,1.0718,0.9779,0.9834,0.9455,0.8885,0.8885,0.8885,0.8885,0.8885,0.8885,0.8885,0.8885,0.8885,0.8885,0.8885,0.8885,0.8892,0.8994,0.9117,0.9323,0.9415,0.9571,0.9707,0.9795,0.9822,0.9822,0.9822,0.9822,0.9822,0.9822,0.9822,0.9822,0.9822,0.9707,0.9666,0.9802,0.9666,0.949,0.9327,0.9316,0.9171,0.9028,0.9008,0.9377,1.0304,1.1701,1.3156,1.4609,1.6062,1.7094,1.7582,1.7582,1.7582,1.7582,1.7582,1.7582,1.7582,1.7582,1.7582,1.7582,1.7582,1.7582,0.0,0.0,0.0,0.5376,0.6087,0.7019,0.8796,0.9421,0.9804,1.0407,1.0565,1.0575,1.0562,1.0572,1.1063,1.2654,1.3124,1.3003,1.2045,1.3006,1.3295,1.1999,1.1853,1.1853,1.1853,1.1901,1.1901,1.1901,1.1901,1.1901,1.1901,1.1853,1.1317,1.01,0.9993,0.9361,0.8137,0.8088,0.8726,1.0002,0.8676,0.9361,1.1707,0.9164,0.8726,0.9854,0.8577,0.8726,0.9969,1.0096,0.9512,0.8499,0.8648,0.8804,0.8885,0.8885,0.8885,0.8885,0.8885,0.8885,0.8885,0.8885,0.8885,0.8885,0.8885,0.8885,0.8974,0.9173,0.9323,0.9422,0.9578,0.972,0.9822,0.9822,0.9822,0.9822,0.9822,0.9822,0.9822,0.9822,0.9822,0.9822,0.9822,0.9822,0.9822,0.9822,0.9707,0.9612,0.9612,0.9476,0.932,0.9228,0.9207,0.9089,0.8898,1.0241,1.1755,1.321,1.4609,1.6062,1.7529,1.7582,1.7582,1.7582,1.7582,1.7582,1.7582,1.7582,1.7582,1.7582,1.7582,1.7582,0.3495,0.0,0.0,0.0,0.0,0.0,0.6977,0.7903,0.8474,0.8685,0.974,1.0327,0.9518,0.9429,0.9643,1.0111,1.1131,1.1863,1.1762,1.1356,1.0925,1.0583,1.0534,1.0534,1.0534,1.1365,1.1901,1.1901,1.1901,1.1901,1.1901,1.1023,1.0779,1.1365,0.9558,0.9262,1.0828,0.9903,0.9657,1.0002,0.9608,0.9312,0.9065,0.8336,0.8187,0.8528,0.8137,0.8299,0.8758,0.8802,0.8704,0.8499,0.8648,0.8804,0.8885,0.8885,0.8885,0.8885,0.8885,0.8885,0.8885,0.8885,0.8885,0.8885,0.8885,0.9015,0.9103,0.92,0.934,0.9578,0.9727,0.9788,0.9822,0.9822,0.9822,0.9822,0.9822,0.9822,0.9822,0.9822,0.9822,0.9822,0.9822,0.9822,0.9822,0.9822,0.9788,0.9727,0.9618,0.9476,0.932,0.9228,0.9062,0.8981,0.8885,1.0241,1.1755,1.321,1.4609,1.6062,1.7529,1.7582,1.7582,1.7582,1.7582,1.7582,1.7582,1.7582,1.7582,1.7582,1.7582,1.7582,0.0,0.0,0.0,0.4368,0.0,0.0,0.6244,0.6722,0.6972,0.7522,0.844,0.8937,0.8289,0.8226,0.8288,0.8288,0.9084,0.983,1.0014,1.0021,0.9805,0.9213,0.9164,0.9164,0.9164,0.9846,1.0288,1.0288,1.0288,1.0288,1.0288,0.9558,0.9509,1.0239,0.8775,0.8726,1.0239,0.9558,0.9164,0.9164,0.9164,0.8775,0.7988,0.7988,0.7988,0.7988,0.7988,0.8126,0.8327,0.8388,0.8445,0.8594,0.8743,0.8804,0.8885,0.8885,0.8885,0.8885,0.8885,0.8885,0.8885,0.8885,0.8885,0.8885,0.8885,0.9042,0.9221,0.9289,0.9462,0.972,0.9802,0.9822,0.9822,0.9822,0.9822,0.9822,0.9822,0.9822,0.9822,0.9822,0.9822,0.9822,0.9822,0.9822,0.9822,0.9822,0.9822,0.9788,0.9707,0.9618,0.9483,0.933,0.9171,0.9076,0.8892,0.9699,1.0836,1.2299,1.375,1.5144,1.6605,1.7252,1.7582,1.7582,1.7582,1.7582,1.7582,1.7582,1.7582,1.7582,1.7582,1.7582,0.0,0.0,0.0,0.0,0.4449,0.0,0.5958,0.5835,0.5619,0.6592,0.6847,0.6888,0.6915,0.6943,0.6943,0.6887,0.7228,0.7576,0.7753,0.895,0.9312,0.8137,0.7988,0.7988,0.7988,0.7988,0.7988,0.7988,0.7988,0.7988,0.7988,0.7988,0.7988,0.7988,0.7988,0.7988,0.7988,0.7988,0.7988,0.7988,0.7988,0.7988,0.7988,0.7988,0.7988,0.7988,0.7988,0.814,0.8354,0.8431,0.8574,0.8723,0.8824,0.8885,0.8885,0.8885,0.8885,0.8885,0.8885,0.8885,0.8885,0.8885,0.8885,0.8885,0.8885,0.9042,0.9248,0.9361,0.9605,0.9822,0.9822,0.9822,0.9822,0.9822,0.9822,0.9822,0.9822,0.9822,0.9822,0.9822,0.9822,0.9822,0.9822,0.9822,0.9822,0.9822,0.9822,0.9822,0.9822,0.9822,0.972,0.9456,0.9401,0.9266,0.8988,0.8905,0.961,1.1219,1.2561,1.4019,1.5583,1.6882,1.7582,1.7582,1.7582,1.7582,1.7582,1.7582,1.7582,1.7582,1.7582,1.7582,0.0,0.0,0.0,0.0,0.0,0.0,0.4302,0.4898,0.5487,0.5014,0.5324,0.5649,0.5645,0.5856,0.5966,0.5709,0.6417,0.7195,0.7583,0.8063,0.8287,0.8038,0.7988,0.7988,0.7988,0.7988,0.7988,0.7988,0.7988,0.7988,0.7988,0.7988,0.7988,0.7988,0.7988,0.7988,0.7988,0.7988,0.7988,0.7988,0.7988,0.7988,0.7988,0.7988,0.7988,0.7988,0.7988,0.8194,0.8445,0.8472,0.8574,0.8723,0.8824,0.8885,0.8885,0.8885,0.8885,0.8885,0.8885,0.8885,0.8885,0.8885,0.8885,0.8885,0.8885,0.9042,0.9268,0.949,0.9686,0.9822,0.9822,0.9822,0.9822,0.9822,0.9822,0.9822,0.9822,0.9822,0.9822,0.9822,0.9822,0.9822,0.9822,0.9822,0.9822,0.9822,0.9822,0.9822,0.9822,0.9822,0.9795,0.9741,0.9523,0.9306,0.918,0.9166,1.0222,1.2733,1.3156,1.4449,1.7041,1.7477,1.7582,1.7582,1.7582,1.7582,1.7582,1.7582,1.7582,1.7582,1.7582,1.7582,0.0,0.0,0.0,0.4636,0.0,0.0,0.0,0.4734,0.5091,0.5269,0.5307,0.5385,0.5696,0.5636,0.555,0.555,0.6187,0.6737,0.6788,0.744,0.7907,0.7982,0.7988,0.7988,0.7988,0.7988,0.7988,0.7988,0.7988,0.7988,0.7988,0.7988,0.7988,0.7988,0.7988,0.7988,0.7988,0.7988,0.7988,0.7988,0.7988,0.7988,0.7988,0.7988,0.7988,0.7988,0.7988,0.8208,0.8479,0.8479,0.8615,0.8832,0.8851,0.8885,0.8885,0.8885,0.8885,0.8885,0.8885,0.8885,0.8885,0.8885,0.8885,0.8885,0.8885,0.9042,0.9275,0.9523,0.9659,0.9734,0.9802,0.9822,0.9822,0.9822,0.9822,0.9822,0.9822,0.9822,0.9822,0.9822,0.9822,0.9822,0.9822,0.9822,0.9822,0.9822,0.9822,0.9822,0.9822,0.9822,0.9822,0.9822,0.9686,0.953,0.9354,0.9293,1.0156,1.2183,1.2988,1.431,1.6393,1.7199,1.7582,1.7582,1.7582,1.7582,1.7582,1.7582,1.7582,1.7582,1.7582,1.7582,0.0,0.0,0.0,0.0,0.0,0.4644,0.0,0.0,0.0,0.5501,0.5291,0.5095,0.5588,0.5343,0.512,0.5316,0.5834,0.6082,0.5785,0.667,0.7458,0.7639,0.8097,0.8259,0.789,0.7801,0.7869,0.7975,0.7848,0.7876,0.7982,0.7988,0.7988,0.7988,0.7988,0.7988,0.7988,0.7988,0.7988,0.7988,0.7988,0.7988,0.7988,0.7988,0.7988,0.7988,0.7988,0.8208,0.8479,0.8479,0.8662,0.8885,0.8885,0.8885,0.8885,0.8885,0.8885,0.8885,0.8885,0.8885,0.8885,0.8885,0.8885,0.8885,0.8885,0.9042,0.9262,0.9449,0.9564,0.9639,0.9747,0.9802,0.9822,0.9822,0.9822,0.9822,0.9822,0.9822,0.9822,0.9822,0.9822,0.9822,0.9822,0.9822,0.9822,0.9822,0.9822,0.9822,0.9822,0.9822,0.9822,0.9822,0.9822,0.9741,0.9537,0.9435,1.0039,1.1608,1.282,1.4167,1.5755,1.6988,1.7582,1.7582,1.7582,1.7582,1.7582,1.7582,1.7582,1.7582,1.7582,1.7582,0.0,0.0,0.0,0.0,0.5985,0.0,0.0,0.0,0.4575,0.3938,0.0,0.3729,0.3802,0.0,0.0,0.3802,0.45,0.5015,0.4794,0.5398,0.5998,0.6348,0.8392,0.9139,0.7517,0.7179,0.7295,0.797,0.7391,0.7316,0.7991,0.7988,0.7988,0.7988,0.7988,0.7988,0.7988,0.7988,0.7988,0.7988,0.7988,0.7988,0.7988,0.7988,0.7988,0.7988,0.7988,0.8208,0.8479,0.8479,0.8662,0.8885,0.8885,0.8885,0.8885,0.8885,0.8885,0.8885,0.8885,0.8885,0.8885,0.8885,0.8885,0.8885,0.8885,0.9042,0.9214,0.9255,0.9401,0.9612,0.9632,0.9727,0.9822,0.9822,0.9822,0.9822,0.9822,0.9822,0.9822,0.9822,0.9822,0.9822,0.9822,0.9822,0.9822,0.9822,0.9822,0.9822,0.9822,0.9822,0.9822,0.9822,0.9822,0.9741,0.9537,0.9435,1.0444,1.2891,1.3251,1.4535,1.7252,1.7529,1.7582,1.7582,1.7582,1.7582,1.7582,1.7582,1.7582,1.7582,1.7582,1.7582,0.0,0.0,0.0,0.0,0.0,0.0,0.4289,0.0,0.405,0.4036,0.0,0.0,0.0,0.0,0.0,0.0,0.4247,0.4523,0.4289,0.5028,0.5701,0.5945,0.6909,0.7738,0.8173,0.8408,0.8688,0.9143,0.8064,0.7592,0.7991,0.7988,0.7988,0.7988,0.7988,0.7988,0.7988,0.7988,0.7988,0.7988,0.7988,0.7988,0.7988,0.7988,0.8042,0.8174,0.8174,0.8343,0.8615,0.8615,0.8743,0.8885,0.8885,0.8885,0.8885,0.8885,0.8885,0.8885,0.8885,0.8885,0.8885,0.8885,0.8885,0.8885,0.8885,0.8981,0.9062,0.9239,0.9374,0.9517,0.9686,0.9774,0.9822,0.9822,0.9822,0.9822,0.9822,0.9822,0.9822,0.9822,0.9822,0.9822,0.9822,0.9822,0.9822,0.9822,0.9822,0.9822,0.9822,0.9822,0.9822,0.9822,0.9822,0.9788,0.97,0.9659,1.0824,1.3635,1.5399,1.675,1.7809,1.7849,1.7769,1.7582,1.7582,1.7582,1.7582,1.7582,1.7582,1.7582,1.7582,1.7582,0.6743,0.0,0.6503,0.6161,0.5656,0.5063,0.4326,0.3997,0.0,0.0,0.4142,0.0,0.0,0.0,0.0,0.0,0.0,0.4193,0.39,0.4533,0.5105,0.529,0.5481,0.6379,0.8368,0.85,0.8645,0.9137,0.805,0.753,0.7984,0.7988,0.7988,0.7988,0.7988,0.7988,0.7988,0.7988,0.7988,0.7988,0.7988,0.7988,0.7988,0.8035,0.8167,0.8327,0.8361,0.8472,0.871,0.871,0.8798,0.8885,0.8885,0.8885,0.8885,0.8885,0.8885,0.8885,0.8885,0.8885,0.8885,0.8885,0.8885,0.8885,0.8885,0.8885,0.8939,0.9245,0.9347,0.9442,0.9693,0.9788,0.9822,0.9822,0.9822,0.9822,0.9822,0.9822,0.9822,0.9822,0.9822,0.9822,0.9822,0.9822,0.9822,0.9822,0.9822,0.9822,0.9822,0.9822,0.9822,0.9822,0.9822,0.9788,0.9707,0.9727,1.0867,1.3597,1.6198,1.7569,1.7386,1.7687,1.7849,1.7716,1.7716,1.7716,1.7716,1.7716,1.7662,1.7582,1.7582,1.7582,0.5848,0.6401,0.6454,0.5865,0.5927,0.5688,0.3931,0.417,0.4608,0.0,0.0,0.0,0.0,0.0,0.0,0.0,0.0,0.0,0.0,0.0,0.0,0.0,0.0,0.0,0.0,0.6218,0.5727,0.6928,0.6526,0.6752,0.7936,0.7988,0.7988,0.7988,0.7988,0.7988,0.7988,0.7988,0.7988,0.7988,0.7988,0.7988,0.7995,0.8194,0.832,0.8327,0.8418,0.8567,0.871,0.871,0.8798,0.8885,0.8885,0.8885,0.8885,0.8885,0.8885,0.8885,0.8885,0.8885,0.8885,0.8885,0.8885,0.8885,0.8885,0.8885,0.8967,0.9173,0.9323,0.9415,0.9578,0.972,0.9822,0.9822,0.9822,0.9822,0.9822,0.9822,0.9822,0.9822,0.9822,0.9822,0.9822,0.9822,0.9822,0.9822,0.9822,0.9822,0.9822,0.9822,0.9822,0.9822,0.9822,0.9707,0.9422,0.9476,1.0457,1.2601,1.4492,1.5552,1.5756,1.693,1.7729,1.7969,1.7982,1.7982,1.7982,1.7982,1.7876,1.7582,1.7582,1.7582,0.4882,0.4933,0.4969,0.5344,0.4923,0.4408,0.4361,0.4595,0.4648,0.4113,0.0,0.0,0.0,0.0,0.0,0.0,0.0,0.0,0.0,0.0,0.0,0.0,0.0,0.0,0.0,0.0,0.0,0.8173,0.7618,0.0,0.7977,0.7988,0.7988,0.7988,0.7988,0.7988,0.7988,0.7988,0.7988,0.7988,0.7988,0.7988,0.7995,0.8201,0.8374,0.8418,0.8567,0.8716,0.8804,0.8804,0.8838,0.8885,0.8885,0.8885,0.8885,0.8885,0.8885,0.8885,0.8885,0.8885,0.8885,0.8885,0.8885,0.8885,0.8885,0.8885,0.8967,0.9166,0.9323,0.9395,0.9442,0.9639,0.9795,0.97,0.9754,0.9822,0.9822,0.9822,0.9822,0.9822,0.9822,0.9822,0.9822,0.9822,0.9822,0.9822,0.9822,0.9822,0.9822,0.9822,0.9822,0.9822,0.9822,0.9781,0.968,1.0651,1.1614,1.2328,1.3965,1.5259,1.6214,1.6626,1.7345,1.8288,1.8343,1.8237,1.7995,1.7995,1.7889,1.7582,1.7582,1.7582,0.3374,0.3433,0.3527,0.4159,0.3839,0.3493,0.4068,0.4441,0.4637,0.4545,0.5118,0.0,0.0,0.0,0.0,0.0,0.0,0.0,0.0,0.3495,0.0,0.0,0.0,0.0,0.0,0.0,0.0,0.0,0.0,0.0,0.0,0.8237,0.7988,0.7988,0.7988,0.7988,0.7988,0.7988,0.7988,0.7988,0.7988,0.7988,0.7995,0.8255,0.8397,0.8492,0.8703,0.8845,0.8885,0.8885,0.8885,0.8885,0.8885,0.8885,0.8885,0.8885,0.8885,0.8885,0.8885,0.8885,0.8885,0.8885,0.8885,0.8885,0.8885,0.8885,0.8967,0.9166,0.9323,0.9381,0.9381,0.9564,0.9707,0.9564,0.9639,0.9747,0.9747,0.9788,0.9822,0.9822,0.9822,0.9822,0.9822,0.9822,0.9822,0.9822,0.9822,0.9822,0.9822,0.9822,0.9822,0.9822,0.9822,0.9822,0.9822,1.0711,1.1287,1.1314,1.2684,1.3927,1.4787,1.5279,1.5943,1.6972,1.6972,1.7111,1.7448,1.7448,1.7637,1.7903,1.7903,1.7849]},{"header":{"parameterUnit":"m.s-1","parameterCategory":1,"la1":30.6,"la2":29.2853,"lo1":-89.7004,"lo2":-87.6739,"dx":0.0162,"dy":0.0183,"nx":112,"ny":82,"refTime":"2023-01-07T18:00:00:Z","depth":0,"parameterNumber":3,"parameterNumberName":"V-component_of_WINDS"},"data":[0.0,0.0,0.0,0.0,0.0,0.0,0.0,0.0,0.0,0.0,0.0,0.0,0.0,0.0,0.0,0.0,0.0,0.0,0.0,0.0,0.0,0.0,0.0,0.0,0.0,0.0,0.0,0.0,0.0,0.0,0.0,0.0,0.0,0.0,0.0,0.0,0.0,0.0,0.0,0.0,0.0,0.0,0.0,0.0,0.0,0.0,0.0,0.0,0.0,0.0,0.0,0.0,0.0,0.0,0.0,0.0,0.0,0.0,0.0,0.0,0.0,0.0,0.0,0.0,0.0,0.0,0.0,0.0,0.0,0.0,0.0,0.0,0.0,0.0,0.0,0.0,0.0,0.0,0.0,0.0,0.0,0.0,0.0,0.0,0.0,0.0,0.0,0.0,0.0,0.0,1.845,1.9146,2.1833,2.361,2.361,2.361,2.1385,1.6128,0.0,0.0,0.0,0.0,0.0,0.0,0.0,0.0,0.0,0.0,0.0,0.0,0.0,0.0,0.0,0.0,0.0,0.0,0.0,0.0,0.0,0.0,0.0,0.0,0.0,0.0,0.0,0.0,0.0,0.0,0.0,0.0,0.0,0.0,0.0,0.0,0.0,0.0,0.0,0.0,0.0,0.0,0.0,0.0,0.0,0.0,0.0,0.0,0.0,0.0,0.0,0.0,0.0,0.0,0.0,0.0,0.0,0.0,0.0,0.0,0.0,0.0,0.0,0.0,0.0,0.0,0.0,0.0,0.0,0.0,0.0,0.0,0.0,0.0,0.0,0.0,0.0,0.0,0.0,0.0,0.0,0.0,0.0,0.0,0.0,0.0,0.0,0.0,0.0,0.0,0.0,0.0,0.0,0.0,0.0,0.0,0.0,0.0,0.0,0.0,0.0,0.0,0.0,0.0,1.7667,2.2321,2.3289,2.361,2.361,2.361,2.1385,1.6128,0.0,0.0,0.0,0.0,0.0,0.0,0.0,0.0,0.0,0.0,0.0,0.0,0.0,0.0,0.0,0.0,0.0,0.0,0.0,0.0,0.0,0.0,0.0,0.0,0.0,0.0,0.0,0.0,0.0,0.0,0.0,0.0,0.0,0.0,0.0,0.0,0.0,0.0,0.0,0.0,0.0,0.0,0.0,0.0,0.0,0.0,0.0,0.0,0.0,0.0,0.0,0.0,0.0,0.0,0.0,0.0,0.0,0.0,0.0,0.0,0.0,0.0,0.0,0.0,0.0,0.0,0.0,0.0,0.0,0.0,0.0,0.0,0.0,0.0,0.0,0.0,0.0,0.0,0.0,0.0,0.0,0.0,0.0,0.0,0.0,0.0,0.0,0.0,0.0,0.0,0.0,0.0,0.0,0.0,0.0,0.0,0.0,0.0,0.0,0.0,0.0,0.0,0.0,1.6114,1.8855,2.3161,2.361,2.361,2.361,2.361,2.1385,1.6128,1.5799,0.0,0.0,0.0,0.0,0.0,0.0,0.0,0.0,0.0,0.0,0.0,0.0,0.0,0.0,0.0,0.0,0.0,0.0,0.0,0.0,0.0,0.0,0.0,0.0,0.0,0.0,0.0,0.0,0.0,0.0,0.0,0.0,0.0,0.0,0.0,0.0,0.0,0.0,0.0,0.0,0.0,0.0,0.0,0.0,0.0,0.0,0.0,0.0,0.0,0.0,0.0,0.0,0.0,0.0,0.0,0.0,0.0,0.0,0.0,0.0,0.0,0.0,0.0,0.0,0.0,0.0,0.0,0.0,0.0,0.0,0.0,0.0,0.0,0.0,0.0,0.0,0.0,0.0,0.0,0.0,0.0,0.0,0.0,0.0,0.0,0.0,0.0,0.0,0.0,0.0,0.0,0.0,0.0,0.0,0.0,0.0,0.0,0.0,0.0,0.0,0.0,0.0,1.9091,2.0827,2.334,2.361,2.361,2.361,2.361,2.1385,1.6128,1.5799,0.0,0.0,0.0,0.0,0.0,0.0,0.0,0.0,0.0,0.0,0.0,0.0,0.0,0.0,0.0,0.0,0.0,0.0,0.0,0.0,0.0,0.0,0.0,0.0,0.0,0.0,0.0,0.0,0.0,0.0,0.0,0.0,0.0,0.0,0.0,0.0,0.0,0.0,0.0,0.0,0.0,0.0,0.0,0.0,0.0,0.0,0.0,0.0,0.0,0.0,0.0,0.0,0.0,0.0,0.0,0.0,0.0,0.0,0.0,0.0,0.0,0.0,0.0,0.0,0.0,0.0,0.0,0.0,0.0,0.0,0.0,0.0,0.0,0.0,0.0,0.0,0.0,0.0,0.0,0.0,0.0,0.0,0.0,0.0,0.0,0.0,0.0,0.0,0.0,0.0,0.0,0.0,0.0,0.0,0.0,0.0,0.0,0.0,0.0,0.0,0.0,0.0,2.0247,2.334,2.358,2.361,2.361,2.361,2.361,2.1385,1.6128,1.5799,0.0,0.0,0.0,0.0,0.0,0.0,0.0,0.0,0.0,0.0,0.0,0.0,0.0,0.0,0.0,0.0,0.0,0.0,0.0,0.0,0.0,0.0,0.0,0.0,0.0,0.0,0.0,0.0,0.0,0.0,0.0,0.0,0.0,0.0,0.0,0.0,0.0,0.0,0.0,0.0,0.0,0.0,0.0,0.0,0.0,0.0,0.0,0.0,0.0,0.0,0.0,0.0,0.0,0.0,0.0,0.0,0.0,0.0,0.0,0.0,0.0,0.0,0.0,0.0,0.0,0.0,0.0,0.0,0.0,0.0,0.0,0.0,0.0,0.0,0.0,0.0,0.0,0.0,0.0,0.0,0.0,0.0,0.0,0.0,0.0,0.0,0.0,0.0,0.0,0.0,0.0,0.0,0.0,0.0,0.0,0.0,0.0,0.0,0.0,0.0,0.0,0.0,1.9181,2.1934,2.4007,2.3849,2.361,2.361,2.361,2.1385,1.6128,0.0,0.0,0.0,0.0,0.0,0.0,0.0,0.0,0.0,0.0,0.0,0.0,0.0,0.0,0.0,0.0,0.0,0.0,0.0,0.0,0.0,0.0,0.0,0.0,0.0,0.0,0.0,0.0,0.0,0.0,0.0,0.0,0.0,0.0,0.0,0.0,0.0,0.0,0.0,0.0,0.0,0.0,0.0,0.0,0.0,0.0,0.0,0.0,0.0,0.0,0.0,0.0,0.0,0.0,0.0,0.0,0.0,0.0,0.0,0.0,0.0,0.0,0.0,0.0,0.0,0.0,0.0,0.0,0.0,0.0,0.0,0.0,0.0,0.0,0.0,0.0,0.0,0.0,0.0,0.0,0.0,0.0,0.0,0.0,0.0,0.0,0.0,0.0,0.0,0.0,0.0,0.0,0.0,0.0,0.0,0.0,0.0,0.0,0.0,0.0,0.0,0.0,1.6383,1.9552,2.2443,2.4664,2.4485,2.4238,2.4238,2.4238,2.1904,1.6428,0.0,0.0,0.0,0.0,0.0,0.0,0.0,0.0,0.0,0.0,0.0,0.0,0.0,0.0,0.0,0.0,0.0,0.0,0.0,0.0,0.0,0.0,0.0,0.0,0.0,0.0,0.0,0.0,0.0,0.0,0.0,0.0,0.0,0.0,0.0,0.0,0.0,0.0,0.0,0.0,0.0,0.0,0.0,0.0,0.0,0.0,0.0,0.0,0.0,0.0,0.0,0.0,0.0,0.0,0.0,0.0,0.0,0.0,0.0,0.0,0.0,0.0,0.0,0.0,0.0,0.0,0.0,0.0,0.0,0.0,0.0,0.0,0.0,0.0,0.0,0.0,0.0,0.0,0.0,0.0,0.0,0.0,0.0,0.0,0.0,0.0,0.0,0.0,0.0,0.0,0.0,0.0,0.0,0.0,0.0,0.0,0.0,0.0,0.0,0.0,0.0,0.0,1.6637,2.1914,2.5615,2.5615,2.5615,2.5615,2.5615,2.5615,2.305,0.0,0.0,0.0,0.0,0.0,0.0,0.0,0.0,0.0,0.0,0.0,0.0,0.0,0.0,0.0,0.0,0.0,0.0,0.0,0.0,0.0,0.0,0.0,0.0,0.0,0.0,0.0,0.0,0.0,0.0,0.0,0.0,0.0,0.0,0.0,0.0,0.0,0.0,0.0,0.0,0.0,0.0,0.0,0.0,0.0,0.0,0.0,0.0,0.0,0.0,0.0,0.0,0.0,0.0,0.0,0.0,0.0,0.0,0.0,0.0,0.0,0.0,0.0,0.0,0.0,0.0,0.0,0.0,0.0,0.0,0.0,0.0,0.0,0.0,0.0,0.0,0.0,0.0,0.0,0.0,0.0,0.0,0.0,0.0,0.0,0.0,0.0,0.0,0.0,0.0,0.0,0.0,0.0,0.0,0.0,0.0,0.0,0.0,0.0,0.0,0.0,0.0,0.0,1.7264,2.2213,2.5794,2.6243,2.5884,2.5615,2.5615,2.5615,2.305,1.7085,0.0,0.0,0.0,0.0,0.0,0.0,0.0,0.0,0.0,0.0,0.0,0.0,0.0,0.0,0.0,0.0,0.0,0.0,0.0,0.0,0.0,0.0,0.0,0.0,0.0,0.0,0.0,0.0,0.0,0.0,0.0,0.0,0.0,0.0,0.0,0.0,0.0,0.0,0.0,0.0,0.0,0.0,0.0,0.0,0.0,0.0,0.0,0.0,0.0,0.0,0.0,0.0,0.0,0.0,0.0,0.0,0.0,0.0,0.0,0.0,0.0,0.0,0.0,0.0,0.0,0.0,0.0,0.0,0.0,0.0,0.0,0.0,0.0,0.0,0.0,0.0,0.0,0.0,0.0,0.0,0.0,0.0,0.0,0.0,0.0,0.0,0.0,0.0,0.0,0.0,0.0,0.0,0.0,0.0,0.0,0.0,0.0,0.0,0.0,0.0,0.0,0.0,1.7549,2.2802,2.6632,2.732,2.7051,2.6879,2.7146,2.7139,2.5046,2.0118,0.0,0.0,0.0,0.0,0.0,0.0,0.0,0.0,0.0,0.0,0.0,0.0,0.0,0.0,0.0,0.0,0.0,0.0,0.0,0.0,0.0,0.0,0.0,0.0,0.0,0.0,0.0,0.0,0.0,0.0,0.0,0.0,0.0,0.0,0.0,0.0,0.0,0.0,0.0,0.0,0.0,0.0,0.0,0.0,0.0,0.0,0.0,0.0,0.0,0.0,0.0,0.0,0.0,0.0,0.0,0.0,0.0,0.0,0.0,0.0,0.0,0.0,0.0,0.0,0.0,0.0,0.0,0.0,0.0,0.0,0.0,0.0,0.0,0.0,0.0,0.0,0.0,0.0,0.0,0.0,0.0,0.0,0.0,0.0,0.0,0.0,0.0,0.0,0.0,0.0,0.0,0.0,0.0,0.0,0.0,0.0,0.0,0.0,0.0,0.0,0.0,0.0,1.7639,2.364,2.8034,2.8637,2.8697,2.8927,2.9452,2.9441,2.7983,2.4641,0.0,0.0,0.0,0.0,0.0,0.0,0.0,0.0,0.0,0.0,0.0,0.0,0.0,0.0,0.0,0.0,0.0,0.0,0.0,0.0,0.0,0.0,0.0,0.0,0.0,0.0,0.0,0.0,0.0,0.0,0.0,0.0,0.0,0.0,0.0,0.0,0.0,0.0,0.0,0.0,0.0,0.0,0.0,0.0,0.0,0.0,0.0,0.0,0.0,0.0,0.0,0.0,0.0,0.0,0.0,0.0,0.0,0.0,0.0,0.0,1.5932,1.1976,0.0,0.0,0.0,0.0,0.0,0.0,0.0,0.0,0.0,0.0,0.0,0.0,0.0,0.0,0.0,0.0,0.0,0.0,0.0,0.0,0.0,0.0,0.0,0.0,0.0,0.0,0.0,0.0,0.0,0.0,0.0,0.0,0.0,0.0,0.0,0.0,0.0,0.0,0.0,0.0,1.8386,2.4717,2.9232,2.9355,2.9412,2.9435,2.9569,2.9087,2.7352,2.4006,2.2239,0.0,0.0,0.0,0.0,0.0,0.0,0.0,0.0,0.0,0.0,0.0,0.0,0.0,0.0,0.0,0.0,0.0,0.0,0.0,0.0,0.0,0.0,0.0,0.0,0.0,0.0,0.0,0.0,0.0,0.0,0.0,0.0,0.0,0.0,0.0,0.0,0.0,0.0,0.0,0.0,0.0,0.0,0.0,0.0,0.0,0.0,0.0,0.0,0.0,0.0,0.0,0.0,0.0,0.0,0.0,0.0,0.0,0.0,0.0,1.9114,1.6773,0.0,0.0,0.0,0.0,0.0,0.0,0.0,0.0,0.0,0.0,0.0,0.0,0.0,0.0,0.0,0.0,0.0,0.0,0.0,0.0,0.0,0.0,0.0,0.0,0.0,0.0,0.0,0.0,0.0,0.0,0.0,0.0,0.0,0.0,0.0,0.0,0.0,0.0,0.0,0.0,1.9522,2.6004,3.0642,3.0941,3.1334,3.1528,3.1417,3.1463,3.0556,2.8401,2.5279,0.0,0.0,0.0,0.0,0.0,0.0,0.0,0.0,0.0,0.0,0.0,0.0,0.0,0.0,0.0,0.0,0.0,0.0,0.0,0.0,0.0,0.0,0.0,0.0,0.0,0.0,0.0,0.0,0.0,0.0,0.0,0.0,0.0,0.0,0.0,0.0,0.0,0.0,0.0,0.0,0.0,0.0,0.0,0.0,0.0,0.0,0.0,0.0,0.0,0.0,0.0,0.0,0.0,2.2387,2.243,2.2341,2.1949,2.3205,2.5507,2.2739,2.2545,2.3773,1.8112,0.0,0.0,0.0,0.0,0.0,0.0,0.0,0.0,0.0,0.0,0.0,0.0,0.0,0.0,0.0,0.0,0.0,0.0,0.0,0.0,0.0,0.0,2.1352,2.1657,2.3708,2.4944,2.2448,0.0,0.0,0.0,0.0,0.0,0.0,0.0,0.0,0.0,0.0,0.0,2.1665,2.7714,3.2049,3.2617,3.3264,3.3609,3.3437,3.3904,3.3999,3.3398,2.8778,2.5738,0.0,0.0,0.0,0.0,0.0,0.0,0.0,0.0,0.0,0.0,0.0,0.0,0.0,0.0,0.0,0.0,0.0,0.0,0.0,0.0,0.0,0.0,0.0,0.0,0.0,0.0,0.0,0.0,0.0,0.0,0.0,0.0,2.1623,2.1733,0.0,0.0,0.0,0.0,0.0,0.0,0.0,0.0,0.0,0.0,0.0,0.0,0.0,2.1892,2.2355,2.5553,2.699,2.6595,2.9101,3.0125,2.9776,2.9754,2.992,3.0277,2.9833,0.0,2.4124,2.3222,0.0,0.0,0.0,0.0,0.0,0.0,0.0,0.0,0.0,0.0,0.0,0.0,0.0,0.0,0.0,0.0,0.0,0.0,0.0,0.0,0.0,0.0,2.9019,3.0287,3.0934,3.1306,3.1503,2.5196,1.9353,1.8875,1.8251,1.6358,0.0,0.0,0.0,0.0,0.0,0.0,2.6147,3.0522,3.3275,3.3365,3.3456,3.3547,3.3517,3.3065,3.3052,3.3606,3.2887,3.0633,2.6659,2.5771,0.0,0.0,0.0,0.0,0.0,0.0,0.0,0.0,0.0,0.0,0.0,0.0,0.0,0.0,0.0,0.0,0.0,0.0,0.0,0.0,0.0,0.0,0.0,0.0,0.0,0.0,0.0,0.0,0.0,1.9098,2.0613,2.1556,1.9282,1.6792,0.0,0.0,0.0,0.0,0.0,0.0,0.0,0.0,0.0,2.5383,2.5832,2.6931,2.8822,3.047,3.1206,3.1002,3.2085,3.2483,3.2317,3.177,3.1545,3.1526,3.1293,3.0273,2.8563,2.6017,2.3289,2.0482,0.0,0.0,0.0,0.0,1.7517,1.8025,2.1599,2.2697,2.249,2.249,0.0,0.0,0.0,0.0,0.0,0.0,0.0,2.2149,2.6117,2.8184,2.9888,3.2354,3.322,3.3728,3.4506,3.1443,2.7662,2.471,2.2997,2.0213,1.4422,1.6199,0.0,0.0,0.0,2.6793,2.9626,3.3466,3.591,3.591,3.629,3.6377,3.594,3.6006,3.6077,3.6023,3.5281,3.3767,3.1347,2.8338,2.4449,0.0,0.0,0.0,0.0,0.0,0.0,0.0,0.0,0.0,0.0,0.0,0.0,0.0,0.0,0.0,0.0,0.0,0.0,0.0,0.0,0.0,0.0,0.0,0.0,0.0,0.0,0.0,0.0,2.0367,2.1758,2.2472,2.1748,1.975,0.0,0.0,0.0,0.0,0.0,0.0,2.4006,2.4285,2.6111,2.988,2.9989,3.1331,3.41,3.41,3.417,3.4256,3.3945,3.3749,3.3625,3.2792,3.2397,3.2394,3.1969,3.207,3.2327,2.8755,2.6893,2.5949,2.3137,2.1435,2.0718,2.1852,2.2327,2.2886,2.6551,2.7897,2.7985,2.7985,2.6976,2.5429,2.3779,0.0,0.0,0.0,0.0,2.5311,2.899,3.032,3.1362,3.3955,3.4979,3.552,3.6073,3.5667,3.415,3.0628,2.8633,2.5622,1.9651,2.1972,0.0,2.0907,2.5918,3.0831,3.3119,3.5815,3.7469,3.7469,3.7819,3.7905,3.7499,3.8019,3.8274,3.8076,3.7132,3.6295,3.5552,3.1539,2.8186,2.5697,0.0,0.0,0.0,0.0,0.0,0.0,0.0,0.0,0.0,0.0,0.0,0.0,0.0,0.0,0.0,0.0,0.0,0.0,0.0,0.0,0.0,0.0,0.0,0.0,0.0,0.0,0.0,0.0,0.0,2.7279,2.8188,0.0,0.0,0.0,0.0,2.2578,2.3391,2.5187,2.8239,2.9063,3.068,3.3463,3.3537,3.3977,3.4931,3.4931,3.5126,3.5519,3.5503,3.5258,3.4817,3.4294,3.4064,3.4044,3.3502,3.3322,3.3288,3.2361,3.0566,2.8423,2.8237,2.6241,2.3786,2.6245,2.7135,2.7605,3.0875,3.2002,3.2002,3.2002,2.9473,2.6554,2.7125,2.513,0.0,0.0,2.8829,3.0422,3.5138,3.6366,3.6603,3.7483,3.7719,3.7753,3.7787,3.5763,3.4464,3.6027,3.5709,3.3852,2.9747,0.0,2.9675,3.0119,3.0561,3.245,3.6922,3.7018,3.6661,3.6661,3.607,3.5943,3.66,3.6691,3.732,3.8772,3.8788,3.8459,3.7854,3.6826,3.3831,2.86,2.6343,0.0,0.0,0.0,0.0,0.0,0.0,0.0,0.0,0.0,0.0,0.0,0.0,0.0,0.0,0.0,0.0,0.0,0.0,0.0,0.0,0.0,0.0,0.0,0.0,0.0,0.0,0.0,0.0,2.7628,2.8927,0.0,2.4873,2.6216,2.7273,2.7121,2.9768,3.1799,3.27,3.3552,3.4435,3.5385,3.5422,3.5532,3.5826,3.5862,3.5915,3.6039,3.6039,3.5979,3.5789,3.5319,3.508,3.5063,3.4584,3.4641,3.5041,3.4781,3.3505,3.1712,3.1712,3.0978,3.0046,3.0985,3.1577,3.2171,3.3301,3.4032,3.4438,3.4438,3.3482,3.2495,3.3292,3.2689,3.2176,3.4093,3.4801,3.5374,3.7053,3.7516,3.7584,3.7855,3.8261,3.8599,3.8599,3.8231,3.8082,3.8802,3.6922,3.4236,3.1079,3.3392,3.4595,3.1398,3.3426,3.5947,3.7598,3.7528,3.7352,3.7352,3.7145,3.7294,3.8015,3.8072,3.8553,3.961,3.9662,3.9347,3.8599,3.7931,3.6421,3.3958,3.2302,2.7819,0.0,0.0,0.0,0.0,0.0,0.0,0.0,0.0,0.0,0.0,0.0,0.0,0.0,0.0,0.0,0.0,0.0,0.0,0.0,0.0,0.0,0.0,0.0,0.0,0.0,2.7032,2.9486,2.7628,3.0028,3.0505,2.7096,2.9673,3.1605,3.1587,3.4109,3.5578,3.5436,3.5973,3.6303,3.6303,3.6303,3.6413,3.6721,3.6721,3.6817,3.711,3.711,3.711,3.7096,3.6604,3.6374,3.6358,3.5882,3.5953,3.6395,3.6395,3.5638,3.441,3.441,3.4304,3.4146,3.4146,3.4472,3.4878,3.4878,3.5385,3.5994,3.5994,3.6174,3.6479,3.7009,3.7178,3.7246,3.7753,3.8091,3.8261,3.8261,3.8464,3.8633,3.8633,3.9005,3.9368,3.9368,3.9774,4.0113,4.0113,3.8268,3.6142,3.433,3.6926,3.7691,3.2971,3.5862,3.8171,3.7005,3.7635,3.8161,3.8161,3.7703,3.7819,3.8827,3.7416,3.7518,3.9935,3.883,3.8438,3.9249,3.7147,3.5687,3.516,3.3743,2.9901,2.3594,0.0,0.0,0.0,0.0,0.0,0.0,0.0,0.0,0.0,0.0,0.0,0.0,0.0,0.0,0.0,0.0,0.0,0.0,0.0,0.0,0.0,0.0,0.0,2.6567,2.8657,2.9684,2.7878,3.2072,3.3867,3.0719,3.328,3.537,3.5903,3.5985,3.6094,3.6323,3.6354,3.6376,3.6376,3.6376,3.6758,3.7529,3.7529,3.7933,3.8689,3.8689,3.8689,3.8673,3.8148,3.7911,3.7893,3.7469,3.7265,3.7229,3.7319,3.6993,3.6471,3.6416,3.6092,3.56,3.56,3.5633,3.5633,3.5667,3.6197,3.6829,3.6829,3.7313,3.7922,3.7922,3.7922,3.7956,3.7956,3.8497,3.9039,3.9039,3.9571,4.0113,4.0113,4.0113,4.0113,4.0146,4.0146,4.0146,4.018,4.018,4.0146,4.0113,4.0113,3.8949,3.5595,3.7959,0.0,3.5571,3.7331,3.8887,3.8755,3.7401,3.7137,3.8674,3.4505,3.4214,3.9809,3.6458,3.6031,3.9952,3.5018,3.2172,3.2116,3.0561,2.9497,2.8955,0.0,0.0,0.0,0.0,0.0,0.0,0.0,0.0,0.0,0.0,0.0,0.0,0.0,0.0,0.0,0.0,0.0,0.0,0.0,0.0,0.0,2.5941,2.9015,2.9072,3.1955,3.3838,3.3343,3.4532,3.5244,3.4927,3.5712,3.6495,3.7081,3.7461,3.7575,3.7485,3.7823,3.8028,3.8028,3.8028,3.8138,3.8358,3.8358,3.8469,3.8689,3.8689,3.8689,3.8673,3.8564,3.8481,3.8501,3.8951,3.8829,3.8376,3.9557,3.9372,3.8255,3.6896,3.6092,3.56,3.56,3.596,3.6535,3.7077,3.7415,3.7584,3.7584,3.7719,3.799,3.8531,3.87,3.8802,3.9343,3.9639,3.9808,3.9808,3.9943,4.0113,4.0113,4.0113,4.0248,4.0764,4.0899,4.1068,4.1576,4.1704,4.1365,4.0282,4.0113,3.9606,3.8063,3.9116,3.9544,3.8038,3.8901,3.8534,3.5522,3.4823,3.4963,3.5973,3.4864,3.6274,4.1388,4.0619,4.0282,4.0865,3.9455,3.811,3.6999,3.3284,3.1024,0.0,0.0,0.0,0.0,0.0,0.0,0.0,0.0,0.0,0.0,0.0,0.0,0.0,0.0,0.0,0.0,0.0,0.0,0.0,0.0,0.0,0.0,2.9237,3.1872,3.2358,3.4204,3.55,3.55,3.5808,3.6192,3.6654,3.7038,3.7502,3.8049,3.8212,3.8324,3.8398,3.8567,3.8689,3.8689,3.8689,3.8689,3.8689,3.8689,3.8689,3.8689,3.9056,3.9203,3.9203,3.957,3.9701,3.9738,4.0194,4.0157,3.979,4.0691,4.0533,3.95,0.0,0.0,0.0,0.0,3.7182,3.7638,3.7814,3.8091,3.8362,3.8362,3.8565,3.8903,3.9309,3.9469,3.9571,3.9977,4.0113,4.0113,4.0113,4.035,4.0561,4.0561,4.0823,4.1162,4.1576,4.1644,4.1779,4.2219,4.2286,0.0,4.1162,4.1027,4.0381,3.8479,3.9787,4.0337,3.8422,3.9809,4.0062,3.7606,3.7081,3.7192,3.7979,3.6209,0.0,0.0,0.0,3.9438,3.8756,3.8747,0.0,0.0,0.0,3.4152,3.5669,3.3417,0.0,0.0,2.882,2.7583,0.0,0.0,0.0,0.0,0.0,0.0,0.0,0.0,0.0,0.0,0.0,0.0,0.0,0.0,0.0,0.0,3.2769,3.55,3.55,3.5577,3.5654,3.5654,3.6269,3.6769,3.6962,3.77,3.8385,3.8946,3.865,3.8649,3.9122,3.8855,0.0,0.0,0.0,3.8689,3.8689,3.8799,3.8836,3.8836,3.9643,4.0047,4.0047,4.0781,4.1095,4.1095,4.1205,4.1168,4.1095,4.1279,4.1097,4.0637,4.0347,3.9978,3.9549,3.9019,3.8816,3.8762,3.8329,0.0,0.0,3.9106,3.9571,4.0113,4.0113,4.0113,4.0113,4.0113,4.0113,4.0113,4.0214,4.0696,4.1238,4.1305,4.1813,4.232,4.2388,4.2422,4.2455,4.2523,4.2557,4.2557,4.2557,4.2422,4.1268,3.8229,4.0456,4.1309,3.8296,4.0624,4.2388,4.1895,4.1288,0.0,4.1774,3.7919,3.7484,4.2267,3.9068,3.6764,3.6256,3.6122,3.6088,3.6088,3.6088,3.8134,4.2286,4.2388,4.2422,4.2185,3.2521,3.0203,0.0,0.0,0.0,0.0,0.0,0.0,0.0,0.0,0.0,0.0,0.0,0.0,0.0,0.0,0.0,2.9806,3.3076,3.55,3.55,3.6077,3.6462,3.6462,3.6615,3.7238,3.8661,3.8938,3.9339,4.0106,3.9647,3.9395,3.9498,3.8998,3.8689,3.8689,3.8689,3.8689,3.8689,3.935,3.968,3.968,4.0487,0.0,4.0875,4.1022,4.1095,4.1132,4.1809,4.1699,4.1205,4.2506,4.2986,4.2664,4.0575,3.9688,3.96,3.9591,3.9591,3.9605,3.9657,3.9774,3.991,3.991,3.9977,4.0113,4.0113,4.0113,0.0,4.0113,4.0113,4.0248,4.0832,4.1102,4.1339,4.1948,4.2185,4.2455,4.3064,4.32,4.3403,4.4012,4.4175,4.4175,4.4175,4.3098,4.2057,4.1403,4.2368,4.297,4.2281,4.3314,4.2854,3.9417,3.8928,3.8902,3.9057,3.8243,3.954,4.3876,4.2807,4.1943,4.1835,4.1253,4.0949,4.0949,4.0949,4.1381,4.2286,4.2895,4.32,4.3105,4.0442,3.9691,0.0,0.0,0.0,0.0,0.0,0.0,0.0,0.0,0.0,0.0,0.0,2.4743,2.6743,0.0,3.0956,3.2602,3.4319,3.5654,3.6038,3.6462,3.6692,3.6692,3.7469,3.8354,3.9207,3.9669,4.0054,4.0477,3.9954,3.958,3.958,3.9144,3.8826,3.8689,3.8811,3.9047,3.9313,3.968,4.0084,4.0524,4.1332,4.1699,4.1699,4.2139,4.2286,4.2323,4.2727,4.2653,4.2359,4.3167,4.3515,4.3353,4.205,4.1541,4.1538,4.1329,4.1265,4.1216,4.1046,4.0767,4.048,4.048,4.0294,4.0113,4.0113,4.0383,4.0629,4.0629,4.0899,4.1297,4.1644,4.2016,4.2388,4.276,4.3166,4.3565,4.391,4.4012,4.4113,4.4513,4.4615,4.4615,4.4615,4.3972,4.3464,4.3464,4.3741,4.4012,4.4012,4.435,4.3787,4.1675,4.1446,4.1446,4.1446,4.1446,4.2334,4.4451,4.4215,4.4012,4.4012,4.3639,4.3464,4.3464,4.3464,4.3464,4.3464,4.3809,4.4012,4.3978,4.3606,4.3464,0.0,0.0,0.0,0.0,0.0,0.0,0.0,2.1257,2.211,2.5679,2.696,2.8238,3.0914,3.1962,3.3115,3.5154,3.5615,3.5962,3.6615,3.7,3.7199,3.7199,3.843,3.9361,3.9515,4.0131,4.0516,4.0516,4.0004,3.9709,3.9709,3.9377,3.9063,3.8788,3.9152,3.9532,3.9916,4.0194,4.0708,4.1352,4.2139,4.2543,4.2543,4.3204,4.3515,4.3515,4.3515,4.3515,4.3515,4.3515,4.3515,4.3515,4.3515,4.3515,4.3445,4.292,4.2693,4.2616,4.2,4.1385,4.092,4.092,4.0528,4.0146,4.0282,4.073,4.1238,4.1373,4.1847,4.232,4.2489,4.2963,4.3443,4.3606,4.4113,4.4615,4.4615,4.4615,4.4615,4.4615,4.4615,4.4615,4.4615,4.4615,4.4615,4.4615,4.4615,4.4615,4.4615,4.4615,4.4615,4.4615,4.4615,4.4615,4.4615,4.4615,4.4615,4.4615,4.4615,4.4615,4.4615,4.4615,4.4615,4.4615,4.4615,4.4615,4.4615,4.4615,4.4615,4.4615,4.4615,4.4615,1.824,1.8046,2.0349,2.3007,2.3157,2.4633,0.0,3.096,2.9341,3.3566,3.4386,3.4488,3.4853,3.5,3.5154,3.5462,3.6115,3.6615,3.6692,3.8046,3.9015,3.9015,3.9169,3.9592,4.0285,4.0439,4.0516,4.0516,4.0242,4.0032,4.0032,3.9731,3.9377,3.9077,3.9798,4.0073,3.9916,4.1332,4.2066,4.2176,4.2983,4.3351,4.3351,4.3478,4.3515,4.3515,4.3515,4.3515,4.3515,4.3515,4.3515,4.3515,4.3515,4.3515,4.3445,4.292,4.2693,4.2616,4.2,4.1385,4.092,4.092,4.0528,4.0214,4.0865,4.1136,4.1339,4.1982,4.2219,4.2455,4.3132,4.3341,4.3606,4.4282,4.4547,4.4615,4.4615,4.4615,4.4615,4.4615,4.4615,4.4615,4.4615,4.4615,4.4615,4.4615,4.4615,4.4615,4.4615,4.4615,4.4615,4.4615,4.4615,4.4615,4.4615,4.4615,4.4615,4.4615,4.4615,4.4615,4.4615,4.4615,4.4615,4.4615,4.4615,4.4615,4.4615,4.4615,4.4615,4.4615,4.4615,4.4615,2.6756,2.5508,2.5116,2.7537,2.8235,2.9125,3.2203,3.1841,3.1718,3.4982,3.5586,3.5546,3.552,3.55,3.55,3.55,3.6192,3.6885,3.7392,3.8507,3.9477,3.9938,4.0015,4.0131,4.0477,4.0516,4.0516,4.0516,4.0053,3.9872,4.0072,4.0252,4.0202,3.9825,4.0811,4.1344,4.1311,4.1956,4.2543,4.2983,4.3314,4.3515,4.3515,4.3515,4.3515,4.3515,4.3515,4.3515,4.3515,4.3515,4.3515,4.3515,4.3515,4.3515,4.348,4.325,4.3178,4.3142,4.2866,4.2406,4.1966,4.2044,4.1696,4.1336,4.174,4.2151,4.2557,4.2861,4.3267,4.3735,4.4012,4.4079,4.4181,4.4513,4.4615,4.4615,4.4615,4.4615,4.4615,4.4615,4.4615,4.4615,4.4615,4.4615,4.4615,4.4615,4.4615,4.4615,4.4615,4.4615,4.4615,4.4615,4.4615,4.4615,4.4615,4.4615,4.4615,4.4615,4.4615,4.4615,4.4615,4.4615,4.4615,4.4615,4.4615,4.4615,4.4615,4.4615,4.4615,4.4615,4.4615,4.4615,3.0312,2.9648,2.8711,3.0387,3.2026,3.2995,3.2292,3.2572,3.3456,3.5234,3.5599,3.557,3.5527,3.55,3.5577,3.5808,3.65,3.7353,3.8238,3.9084,3.9861,4.0439,4.0516,4.0516,4.0516,4.0516,4.0516,4.0516,4.0091,3.9954,4.0214,4.0701,4.0813,4.0446,4.164,4.2281,4.2286,4.2506,4.291,4.3515,4.3515,4.3515,4.3515,4.3515,4.3515,4.3515,4.3515,4.3515,4.3515,4.3515,4.3515,4.3515,4.3515,4.3515,4.3515,4.3515,4.3515,4.3515,4.3515,4.3306,4.3012,4.2917,4.2694,4.2486,4.2766,4.325,4.3734,4.3939,4.4381,4.4797,4.4637,4.4615,4.4615,4.4615,4.4615,4.4615,4.4615,4.4615,4.4615,4.4615,4.4615,4.4615,4.4615,4.4615,4.4615,4.4615,4.4615,4.4615,4.4615,4.4615,4.4615,4.4615,4.4615,4.4615,4.4615,4.4615,4.4615,4.4615,4.4615,4.4615,4.4615,4.4615,4.4615,4.4615,4.4615,4.4615,4.4615,4.4615,4.4615,4.4615,4.4615,4.4615,2.4414,2.6445,2.8711,3.0469,3.3398,3.5858,3.5755,3.5663,3.5581,3.5616,3.5552,3.5507,3.55,3.55,3.5769,3.6538,3.7392,3.8277,3.913,3.9938,4.0477,4.0516,4.0516,4.0516,4.0516,4.0516,4.0516,4.0516,4.0462,4.05,4.0508,4.0997,4.1125,4.0815,4.209,4.2616,4.2286,4.3057,4.3478,4.3515,4.3515,4.3515,4.3515,4.3515,4.3515,4.3515,4.3515,4.3515,4.3515,4.3515,4.3515,4.3515,4.3515,4.3515,4.3515,4.3515,4.3515,4.3515,4.3515,4.367,4.3752,4.3116,4.3068,4.3395,4.4133,4.4376,4.4524,4.5226,4.5468,4.5346,4.4748,4.4615,4.4615,4.4615,4.4615,4.4615,4.4615,4.4615,4.4615,4.4615,4.4615,4.4615,4.4615,4.4615,4.4615,4.4615,4.4615,4.4615,4.4615,4.4615,4.4615,4.4615,4.4615,4.4615,4.4615,4.4615,4.4615,4.4615,4.4615,4.4615,4.4615,4.4615,4.4615,4.4615,4.4615,4.4615,4.4615,4.4615,4.4615,4.4615,4.4615,4.4615,2.7148,2.9336,3.1445,3.3711,3.5156,3.5973,3.5792,3.5746,3.5679,3.557,3.4584,3.3776,3.3776,3.3776,3.4045,3.4891,3.6699,3.8315,3.9169,3.9977,4.0516,4.0516,4.0516,4.0516,4.0516,4.0516,4.0516,4.0516,4.0339,4.0321,4.0508,4.1561,4.2004,4.1606,4.3173,4.3699,4.3111,4.3368,4.3515,4.3515,4.3515,4.3515,4.3515,4.3515,4.3515,4.3515,4.3515,4.3515,4.3515,4.3515,4.3515,4.3515,4.3515,4.3515,4.3515,4.3515,4.3515,4.3588,4.4121,4.4345,4.449,4.4952,4.5158,4.5294,4.5623,4.575,4.5688,4.5553,4.5494,4.5372,4.4776,4.4615,4.4615,4.4615,4.4615,4.4615,4.4615,4.4615,4.4615,4.4615,4.4615,4.4615,4.4615,4.4615,4.4615,4.4615,4.4615,4.4615,4.4615,4.4615,4.4615,4.4615,4.4615,4.4615,4.4615,4.4615,4.4615,4.4615,4.4615,4.4615,4.4615,4.4615,4.4615,4.4615,4.5015,4.4981,4.4615,4.4981,4.5015,4.4615,4.4981,4.5463,2.9492,3.1367,3.2812,3.5351,3.5975,3.5923,3.5758,3.5698,3.5615,3.5522,3.3885,3.2532,3.2749,3.2859,3.3051,3.3439,3.596,3.8062,3.8615,3.9421,4.006,4.0469,4.0516,4.0516,4.0516,4.0516,4.0516,4.0516,4.0347,4.0321,4.0508,4.1695,4.2261,4.2021,4.3427,4.3974,4.3515,4.3515,4.3515,4.3515,4.3515,4.3515,4.3515,4.3515,4.3515,4.3515,4.3515,4.3515,4.3515,4.3515,4.3515,4.3515,4.3515,4.3515,4.3551,4.3828,4.3938,4.4011,4.4525,4.4892,4.5242,4.5997,4.6389,4.665,4.6744,4.6774,4.6682,4.6281,4.6185,4.5965,4.5142,4.4934,4.4852,4.4637,4.4615,4.4615,4.4615,4.4615,4.4615,4.4615,4.4615,4.4615,4.4615,4.4615,4.4615,4.4615,4.4615,4.4615,4.4615,4.4615,4.4615,4.4615,4.4615,4.4615,4.4615,4.4615,4.4615,4.4615,4.4615,4.4615,4.4615,4.4615,4.4692,4.4934,4.5294,4.5425,4.5241,4.5622,4.5622,4.5241,4.5648,4.626,3.1055,3.2305,3.2969,3.5391,3.5967,3.5849,3.5743,3.5642,3.5549,3.5348,3.3308,3.1693,3.2094,3.2492,3.2645,3.2269,3.5292,3.7695,3.7721,3.8476,3.935,4.0377,4.0516,4.0516,4.0516,4.0516,4.0516,4.0516,4.0516,4.0516,4.0516,4.1472,4.2033,4.2008,4.2981,4.3532,4.3515,4.3515,4.3515,4.3515,4.3515,4.3515,4.3515,4.3515,4.3515,4.3515,4.3515,4.3515,4.3515,4.3515,4.3515,4.3515,4.3515,4.3515,4.3571,4.4378,4.4654,4.4709,4.4728,4.5296,4.5993,4.6235,4.6813,4.7449,4.7449,4.7449,4.7428,4.7406,4.7406,4.7088,4.5865,4.552,4.5372,4.4803,4.4643,4.4615,4.4615,4.4615,4.4615,4.4615,4.4615,4.4615,4.4615,4.4615,4.4615,4.4615,4.4615,4.4615,4.4615,4.4615,4.4615,4.4615,4.4615,4.4615,4.4615,4.4615,4.4615,4.4615,4.4643,4.4671,4.4671,4.4665,4.4961,4.552,4.5571,4.584,4.6389,4.6413,4.6413,4.6389,4.6413,4.6921,3.1719,3.3594,3.5195,3.5859,3.5967,3.5849,3.5743,3.5642,3.5051,3.3076,3.1121,2.9016,2.6571,2.8821,3.0957,3.0779,3.53,3.91,3.9684,3.9945,4.0191,4.0469,4.0516,4.0516,4.0516,4.0516,4.0516,4.0516,4.0516,4.0516,4.0516,4.1705,4.2272,4.2021,4.3214,4.3758,4.3515,4.3515,4.3515,4.3515,4.3515,4.3515,4.3515,4.3515,4.3515,4.3515,4.3515,4.3515,4.3515,4.3515,4.3515,4.3515,4.3515,4.3515,4.3515,4.3718,4.4195,4.4764,4.5406,4.614,4.691,4.7565,4.7892,4.8075,4.8075,4.8075,4.7995,4.7512,4.7406,4.7234,4.6401,4.5815,4.5477,4.5294,4.4934,4.4615,4.4615,4.4615,4.4615,4.4615,4.4615,4.4615,4.4615,4.4615,4.4615,4.4615,4.4615,4.4615,4.4615,4.4615,4.4615,4.4615,4.4615,4.4615,4.4615,4.4615,4.4615,4.4615,4.5008,4.5267,4.5267,4.5724,4.6014,4.6185,4.6659,4.6751,4.6389,4.691,4.6887,4.6413,4.691,4.7599,3.3437,3.4881,3.597,3.597,3.5851,3.5454,3.4245,3.3945,3.3043,3.0061,2.7747,2.5609,2.3563,2.6795,2.9583,2.8927,3.4641,3.9166,3.9213,3.955,3.9959,4.0431,4.0516,4.0516,4.0516,4.0516,4.0516,4.0516,4.0516,4.0516,4.0516,4.1617,4.2177,4.2008,4.3141,4.3677,4.3515,4.3515,4.3515,4.3515,4.3515,4.3515,4.3515,4.3515,4.3515,4.3515,4.3515,4.3515,4.3515,4.3515,4.3515,4.3515,4.3515,4.3515,4.3588,4.4268,4.4819,4.5406,4.6544,4.7241,4.77,4.8159,4.8306,4.8306,4.8306,4.8306,4.8248,4.7879,4.7797,4.7674,4.6999,4.6589,4.6257,4.5965,4.5648,4.532,4.5035,4.4981,4.4906,4.4637,4.4615,4.4615,4.4615,4.4615,4.4615,4.4615,4.4615,4.4615,4.4615,4.4615,4.4615,4.4615,4.4615,4.4615,4.4615,4.4615,4.472,4.4988,4.532,4.5622,4.5865,4.6233,4.653,4.6842,4.7234,4.7363,4.7219,4.7596,4.7596,4.7241,4.7596,4.8234,3.539,3.5926,3.59,3.5894,3.5751,3.4938,3.2395,3.1669,3.0506,2.6851,2.4167,2.225,2.1586,2.5222,2.803,2.7277,3.3472,3.8323,3.8014,3.8656,3.9444,4.0385,4.0516,4.0516,4.0516,4.0516,4.0516,4.0516,4.0492,4.0507,4.0584,4.1472,4.2032,4.2181,4.305,4.3515,4.3515,4.3515,4.3515,4.3515,4.3515,4.3515,4.3515,4.3515,4.3515,4.3515,4.3515,4.3515,4.3515,4.3515,4.3515,4.3515,4.3515,4.3515,4.3698,4.5186,4.581,4.6104,4.7609,4.8233,4.8306,4.8306,4.8306,4.8306,4.8306,4.8306,4.8306,4.8306,4.8306,4.819,4.7674,4.7449,4.7255,4.6682,4.646,4.6281,4.5715,4.5622,4.5442,4.4961,4.4776,4.472,4.472,4.4637,4.4615,4.4615,4.4615,4.4615,4.4615,4.4615,4.4615,4.4615,4.4665,4.472,4.472,4.4803,4.5062,4.5597,4.5699,4.5989,4.6507,4.66,4.6932,4.7491,4.7512,4.7777,4.8306,4.8306,4.8306,4.8306,4.8306,4.871,3.5804,3.5908,3.5853,3.5764,3.5659,3.4938,3.2395,3.1205,2.9269,2.4466,2.2484,2.07,1.7724,2.1248,2.5247,2.7103,3.2149,3.6818,3.9615,4.0122,4.0284,4.0469,4.0516,4.0516,4.0516,4.0516,4.0516,4.0516,4.0304,4.0444,4.1112,4.1494,4.2158,4.3217,4.3399,4.3515,4.3515,4.3515,4.3515,4.3515,4.3515,4.3515,4.3515,4.3515,4.3515,4.3515,4.3515,4.3515,4.3515,4.3515,4.3515,4.3515,4.3515,4.3515,4.3608,4.4562,4.5333,4.603,4.6966,4.7736,4.8306,4.8306,4.8306,4.8306,4.8306,4.8306,4.8306,4.8306,4.8306,4.8287,4.8153,4.7777,4.7363,4.7255,4.6819,4.6365,4.6281,4.6222,4.6233,4.6112,4.5699,4.5346,4.5346,4.4934,4.4615,4.4615,4.4615,4.4615,4.4615,4.4615,4.4615,4.4615,4.5035,4.5346,4.5346,4.579,4.6136,4.6257,4.6774,4.7146,4.7198,4.7715,4.8035,4.8134,4.8134,4.8209,4.8306,4.8306,4.8306,4.8306,4.8306,4.8379,3.5914,3.5843,3.5764,3.5671,3.5586,3.4394,3.009,2.8756,2.672,2.0677,1.8985,1.7966,1.5767,1.949,2.3327,2.4547,3.0638,3.5791,3.7494,3.9227,4.0304,4.0304,4.0304,4.0304,4.0304,4.0304,4.0304,4.0304,4.022,4.0515,4.1261,4.188,4.2631,4.3478,4.3515,4.3515,4.3515,4.3515,4.3515,4.3515,4.3515,4.3515,4.3515,4.3515,4.3515,4.3515,4.3515,4.3515,4.3515,4.3515,4.3515,4.3515,4.3515,4.3515,4.3662,4.4856,4.5553,4.6067,4.7315,4.7976,4.8306,4.8306,4.8306,4.8306,4.8306,4.8306,4.8306,4.8306,4.8306,4.8306,4.8306,4.8075,4.7858,4.7858,4.7385,4.6932,4.6932,4.6659,4.6389,4.6389,4.5915,4.5494,4.5494,4.4981,4.4692,4.5008,4.5062,4.5196,4.5494,4.552,4.5425,4.5115,4.5597,4.5965,4.5965,4.6222,4.653,4.691,4.7198,4.7533,4.7838,4.8134,4.8306,4.8306,4.8306,4.8306,4.8306,4.8306,4.8306,4.8306,4.8306,4.8306,3.5781,3.5761,3.5667,3.562,3.5527,3.3923,2.7967,2.6451,2.4384,1.7691,1.6041,1.5574,1.4825,1.8035,2.112,2.2038,2.8236,3.3455,3.4915,3.7479,3.9403,3.9916,4.0042,4.012,4.012,4.012,4.012,4.012,4.0378,4.0873,4.1498,4.2427,4.313,4.3478,4.3515,4.3515,4.3515,4.3515,4.3515,4.3515,4.3515,4.3515,4.3515,4.3515,4.3515,4.3515,4.3515,4.3515,4.3515,4.3515,4.3515,4.3515,4.3515,4.3515,4.3698,4.5296,4.5883,4.614,4.7755,4.8306,4.8306,4.8306,4.8306,4.8306,4.8306,4.8306,4.8306,4.8306,4.8306,4.8306,4.8306,4.8306,4.8306,4.8306,4.7955,4.7575,4.7575,4.7176,4.6819,4.6819,4.6329,4.589,4.589,4.5399,4.5142,4.5622,4.5699,4.5865,4.6318,4.6542,4.6413,4.594,4.6353,4.66,4.66,4.6715,4.7044,4.7554,4.7575,4.7797,4.8287,4.8306,4.8306,4.8306,4.8306,4.8306,4.8306,4.8306,4.8306,4.8306,4.8306,4.8306,3.5314,3.5663,3.5576,3.5534,3.5514,3.3923,2.7967,2.5948,2.3623,1.756,1.5517,1.4815,1.4731,1.559,1.7609,2.156,2.4083,2.7754,3.397,3.575,3.7186,3.9399,3.9893,4.012,4.012,4.012,4.012,4.012,4.0942,4.169,4.2173,4.2975,4.3475,4.3515,4.3515,4.3515,4.3515,4.3515,4.3515,4.3515,4.3515,4.3515,4.3515,4.3515,4.3515,4.3515,4.3515,4.3515,4.3515,4.3515,4.3515,4.3515,4.3515,4.3515,4.3698,4.5296,4.5883,4.614,4.7755,4.8306,4.8306,4.8306,4.8306,4.8306,4.8306,4.8306,4.8306,4.8306,4.8306,4.8306,4.8306,4.8306,4.8306,4.8306,4.8267,4.8229,4.8229,4.8153,4.8114,4.8114,4.7653,4.7234,4.7234,4.6682,4.6222,4.6294,4.6294,4.6318,4.6389,4.6932,4.7299,4.7234,4.7277,4.732,4.732,4.7818,4.8134,4.8229,4.8229,4.8248,4.8287,4.8306,4.8306,4.8306,4.8306,4.8306,4.8306,4.8306,4.8306,4.8306,4.8306,4.8306,3.5068,3.5631,3.5593,3.5509,3.4692,3.2494,2.7023,2.4673,2.2074,1.6479,1.4991,1.4663,1.4605,1.5202,1.6423,1.866,2.1732,2.5001,2.8219,3.1891,3.4883,3.6539,3.8098,3.9277,3.9759,3.9797,4.0056,4.068,4.1074,4.1788,4.2964,4.3331,4.3515,4.3515,4.3515,4.3515,4.3515,4.3515,4.3515,4.3515,4.3515,4.3515,4.3515,4.3515,4.3515,4.3515,4.3515,4.3515,4.3515,4.3515,4.3515,4.3515,4.3515,4.3515,4.3698,4.5296,4.5883,4.614,4.7755,4.8306,4.8306,4.8306,4.8306,4.8306,4.8306,4.8306,4.8306,4.8306,4.8306,4.8306,4.8306,4.8306,4.8306,4.8306,4.8306,4.8306,4.8306,4.8306,4.8306,4.8306,4.7818,4.7406,4.7406,4.6842,4.653,4.6955,4.6999,4.7132,4.7512,4.7777,4.7955,4.7955,4.7955,4.7955,4.7955,4.8153,4.8306,4.8306,4.8306,4.8306,4.8306,4.8306,4.8306,4.8306,4.8306,4.8306,4.8306,4.8306,4.8306,4.8306,4.8306,4.8306,3.4105,3.5212,3.5575,3.5495,3.398,3.1181,2.632,2.3596,2.0695,1.5726,1.4653,1.4627,1.4516,1.4976,1.5674,1.6725,1.9683,2.2533,2.4547,2.849,3.1821,3.3596,3.5362,3.6975,3.827,3.9262,4.0157,4.1034,4.1315,4.2066,4.3441,4.3515,4.3515,4.3515,4.3515,4.3515,4.3515,4.3515,4.3515,4.3515,4.3515,4.3515,4.3515,4.3515,4.3515,4.3515,4.3515,4.3515,4.3515,4.3515,4.3515,4.3515,4.3515,4.3515,4.3662,4.5039,4.57,4.6104,4.7462,4.8122,4.8306,4.8306,4.8306,4.8306,4.8306,4.8306,4.8306,4.8306,4.8306,4.8306,4.8306,4.8306,4.8306,4.8306,4.8306,4.8306,4.8306,4.8306,4.8306,4.8306,4.7975,4.7674,4.7674,4.7263,4.7132,4.7611,4.7674,4.7818,4.8248,4.8306,4.8306,4.8306,4.8306,4.8306,4.8306,4.8306,4.8306,4.8306,4.8306,4.8306,4.8306,4.8306,4.8306,4.8306,4.8306,4.8306,4.8306,4.8306,4.8306,4.8306,4.8306,4.8306,3.2169,3.4289,3.55,3.55,3.3426,3.0316,2.615,2.2968,1.9732,1.5567,1.4605,1.4493,1.4493,1.4493,1.5044,1.6652,1.7612,1.9866,2.4723,2.6146,2.786,3.1078,3.1741,3.291,3.5303,3.8423,4.0533,4.1054,4.1846,4.2653,4.3478,4.3515,4.3515,4.3515,4.3515,4.3515,4.3515,4.3515,4.3515,4.3515,4.3515,4.3515,4.3515,4.3515,4.3515,4.3515,4.3515,4.3515,4.3515,4.3515,4.3515,4.3515,4.3515,4.3515,4.3625,4.4415,4.5223,4.603,4.6819,4.7626,4.8306,4.8306,4.8306,4.8306,4.8306,4.8306,4.8306,4.8306,4.8306,4.8306,4.8306,4.8306,4.8306,4.8306,4.8306,4.8306,4.8306,4.8306,4.8306,4.8306,4.8287,4.8287,4.8287,4.8287,4.8287,4.8287,4.8287,4.8287,4.8306,4.8306,4.8306,4.8306,4.8306,4.8306,4.8306,4.8306,4.8306,4.8306,4.8306,4.8306,4.8306,4.8306,4.8306,4.8306,4.8306,4.8306,4.8306,4.8306,4.8306,4.8306,4.8306,4.8306,2.7301,2.8929,3.0024,2.943,2.7695,2.5488,2.2918,2.0715,1.8316,1.5203,1.4528,1.4493,1.4493,1.4059,1.4578,1.7282,1.7458,1.8603,2.24,2.5988,2.8905,3.0724,3.4423,3.7144,3.7877,3.9215,4.0335,4.1038,4.1846,4.2653,4.3478,4.3515,4.3515,4.3515,4.3515,4.3515,4.3515,4.3515,4.3515,4.3515,4.3515,4.3515,4.3515,4.3515,4.3515,4.3515,4.3515,4.3515,4.3515,4.3515,4.3515,4.3515,4.3515,4.3515,4.3625,4.4415,4.4856,4.5259,4.6636,4.7259,4.7553,4.8122,4.8306,4.8306,4.8306,4.8306,4.8306,4.8306,4.8306,4.8306,4.8306,4.8306,4.8306,4.8306,4.8306,4.8306,4.8306,4.8306,4.8306,4.8306,4.8306,4.8306,4.8306,4.8306,4.8306,4.8306,4.8306,4.8306,4.8306,4.8306,4.8306,4.8306,4.8306,4.8306,4.8306,4.8306,4.8306,4.8306,4.8306,4.8306,4.8306,4.8306,4.8306,4.8306,4.8306,4.8306,4.8306,4.8306,4.8306,4.8306,4.8306,4.8306,2.3722,2.5494,2.6706,2.6409,2.4506,2.2401,2.1248,1.9108,1.6811,1.4895,1.4279,1.4059,1.4059,1.3403,1.3697,1.6334,1.6585,1.7906,2.2106,2.5548,2.8463,3.0691,3.4872,3.7553,3.7553,3.9245,4.0561,4.1058,4.2139,4.2947,4.3478,4.3515,4.3515,4.3515,4.3515,4.3515,4.3515,4.3515,4.3515,4.3515,4.3515,4.3515,4.3515,4.3515,4.3515,4.3515,4.3515,4.3515,0.0,4.3515,4.3515,4.3515,4.3515,4.3515,4.3534,4.4048,4.4452,4.4838,4.5828,4.6599,4.7186,4.7663,4.803,4.8306,4.8306,4.8306,4.8306,4.8306,4.8306,4.8306,4.8306,4.8306,4.8306,4.8306,4.8306,4.8306,4.8306,4.8306,4.8306,4.8306,4.8306,4.8306,4.8306,4.8306,4.8306,4.8306,4.8306,4.8306,4.8306,4.8306,4.8306,4.8306,4.8306,4.8306,4.8306,4.8306,4.8306,4.8306,4.8306,4.8306,4.8306,4.8306,4.8306,4.8306,4.8306,4.8306,4.8306,4.8306,4.8306,4.8306,4.8306,4.8306,0.0,2.3209,2.4759,2.5323,2.3043,2.0633,2.0633,1.8068,0.0,1.4677,1.3844,1.3335,1.3519,1.2742,1.2701,1.453,1.5417,1.7847,2.3492,2.5338,2.7504,3.1397,3.3867,3.5261,3.5261,3.8784,4.1132,4.1168,4.2616,4.3515,4.3515,4.3515,4.3515,4.3515,4.3515,4.3515,4.3515,4.3515,4.3515,4.3515,4.3515,4.3515,4.3515,4.3515,4.3515,4.3515,4.3515,4.3515,4.3515,4.3515,4.3515,4.3515,4.3515,4.3515,4.3515,4.3515,4.3975,4.4618,4.4654,4.5718,4.7039,4.7149,4.77,4.8306,4.8306,4.8306,4.8306,4.8306,4.8306,4.8306,4.8306,4.8306,4.8306,4.8306,4.8306,4.8306,4.8306,4.8306,4.8306,4.8306,4.8306,4.8306,4.8306,4.8306,4.8306,4.8306,4.8306,4.8306,4.8306,4.8306,4.8306,4.8306,4.8306,4.8306,4.8306,4.8306,4.8306,4.8306,4.8306,4.8306,4.8306,4.8306,4.8306,4.8306,4.8306,4.8306,4.8306,4.8306,4.8306,4.8306,4.8306,4.8306,1.4295,0.0,1.8962,1.8468,1.7621,1.6935,0.0,1.6288,1.5454,1.4677,1.3844,1.3844,1.5704,1.387,1.3435,1.7516,1.7803,1.9308,2.4383,2.9512,3.3587,3.5803,3.711,3.7845,3.7845,3.9811,4.1352,4.1992,4.2947,4.3515,4.3515,4.3515,4.3515,4.3515,4.3515,4.3515,4.3515,4.3515,4.3515,4.3515,4.3515,4.3515,4.3515,4.3515,4.3515,4.3515,4.3515,4.3515,4.3515,4.3515,4.3515,4.3515,4.3515,4.3515,4.3515,4.3515,4.3608,4.3864,4.4488,4.5369,4.6397,4.7645,4.8159,4.8306,4.8306,4.8306,4.8306,4.8306,4.8306,4.8306,4.8306,4.8306,4.8306,4.8306,4.8306,4.8306,4.8306,4.8306,4.8306,4.8306,4.8306,4.8306,4.8306,4.8306,4.8306,4.8306,4.8306,4.8306,4.8306,4.8306,4.8306,4.8306,4.8306,4.8306,4.8306,4.8306,4.8306,4.8306,4.8306,4.8306,4.8306,4.8306,4.8306,4.8306,4.8306,4.8306,4.8306,4.8306,4.8306,4.8306,4.8306,4.8306,1.1599,1.3822,1.6009,1.5861,1.5735,1.579,1.6188,1.5674,1.505,1.4603,1.3844,1.3702,1.5013,1.505,1.5454,1.7332,2.0115,2.3566,2.8081,3.2326,3.5628,3.7309,3.7896,3.8432,3.9166,4.0361,4.1425,4.2249,4.3057,4.3515,4.3515,4.3515,4.3515,4.3515,4.3515,4.3515,4.3515,4.3515,4.3515,4.3515,4.3515,4.3515,4.3515,4.3515,4.3515,4.3515,4.3515,4.3515,4.3515,4.3515,4.3515,4.3515,4.3515,4.3515,4.3515,4.3515,4.3515,4.3534,4.4011,4.4929,4.6177,4.7792,4.8306,4.8306,4.8306,4.8306,4.8306,4.8306,4.8306,4.8306,4.8306,4.8306,4.8306,4.8306,4.8306,4.8306,4.8306,4.8306,4.8306,4.8306,4.8306,4.8306,4.8306,4.8306,4.8306,4.8306,4.8306,4.8306,4.8306,4.8306,4.8306,4.8306,4.8306,4.8306,4.8306,4.8306,4.8306,4.8306,4.8306,4.8306,4.8306,4.8306,4.8306,4.8306,4.8306,4.8306,4.8306,4.8306,4.8306,4.8306,4.8306,4.8306,1.1257,1.323,1.5253,1.5306,1.5533,1.5857,1.6395,1.5478,1.4493,1.4493,1.3949,1.3739,1.4621,1.6481,1.7803,1.7436,2.2868,2.851,3.2436,3.4454,3.6032,3.7345,3.7603,3.8264,3.9753,4.0634,4.1462,4.2396,4.3094,4.3515,4.3515,4.3515,4.3515,4.3515,4.3515,4.3515,4.3515,4.3515,4.3515,4.3515,4.3515,4.3515,4.3515,4.3515,4.3515,4.3515,4.3515,4.3515,4.3515,4.3515,4.3515,4.3515,4.3515,4.3515,4.3515,4.3515,4.3515,4.3551,4.3754,4.4745,4.6177,4.7792,4.8306,4.8306,4.8306,4.8306,4.8306,4.8306,4.8306,4.8306,4.8306,4.8306,4.8306,4.8306,4.8306,4.8306,4.8306,4.8306,4.8306,4.8306,4.8306,4.8306,4.8306,4.8306,4.8306,4.8306,4.8306,4.8306,4.8306,4.8306,4.8306,4.8306,4.8306,4.8306,4.8306,4.8306,4.8306,4.8306,4.8306,4.8306,4.8306,4.8306,4.8306,4.8306,4.8306,4.8306,4.8306,4.8306,4.8306,4.8306,4.8306,4.8306,1.2428,1.5196,1.6955,1.4333,1.4688,1.5564,1.5007,1.4677,1.4493,1.4493,1.4383,1.5778,2.0621,1.908,1.8823,2.407,2.7567,3.0821,3.416,3.6655,3.7991,3.7566,3.8102,3.8872,3.979,4.0634,4.1735,4.3204,4.3441,4.3515,4.3515,4.3515,4.3515,4.3515,4.3515,4.3515,4.3515,4.3515,4.3515,4.3515,4.3515,4.3515,4.3515,4.3515,4.3515,4.3515,4.3515,4.3515,4.3515,4.3515,4.3515,4.3515,4.3515,4.3515,4.3515,4.3515,4.3515,4.3698,4.5039,4.57,4.6177,4.7792,4.8306,4.8306,4.8306,4.8306,4.8306,4.8306,4.8306,4.8306,4.8306,4.8306,4.8306,4.8306,4.8306,4.8306,4.8306,4.8306,4.8306,4.8306,4.8306,4.8306,4.8306,4.8306,4.8306,4.8306,4.8306,4.8306,4.8306,4.8306,4.8306,4.8306,4.8306,4.8306,4.8306,4.8306,4.8306,4.8306,4.8306,4.8306,4.8306,4.8306,4.8306,4.8306,4.8306,4.8306,4.8306,4.8306,4.8306,4.8306,4.8306,4.8306,1.107,1.3409,1.5508,1.5471,1.8342,2.1012,2.0494,2.0189,1.9676,1.8654,1.8427,1.9381,2.2456,2.3226,2.5574,3.2069,3.2228,3.2619,3.5899,3.6545,3.689,3.7456,3.8212,3.9203,4.0451,4.1295,4.2249,4.3404,4.3515,4.3515,4.3515,4.3515,4.3515,4.3515,4.3515,4.3515,4.3515,4.3515,4.3515,4.3515,4.3515,4.3515,4.3515,4.3515,4.3515,4.3515,4.3515,4.3515,4.3515,4.3515,4.3515,4.3515,4.3515,4.3515,4.3515,4.3515,4.3515,4.3718,4.5333,4.5883,4.6177,4.7792,4.8306,4.8306,4.8306,4.8306,4.8306,4.8306,4.8306,4.8306,4.8306,4.8306,4.8306,4.8306,4.8306,4.8306,4.8306,4.8306,4.8306,4.8306,4.8306,4.8306,4.8306,4.8306,4.8306,4.8306,4.8306,4.8306,4.8306,4.8306,4.8306,4.8306,4.8306,4.8306,4.8306,4.8306,4.8306,4.8306,4.8306,4.8306,4.8306,4.8306,4.8306,4.8306,4.8306,4.8306,4.8306,4.8306,4.8306,4.8306,4.8306,4.8306,1.0686,1.2448,1.4751,1.7388,2.0753,2.3768,2.4949,2.4419,2.3438,2.2784,2.2951,2.3465,2.4253,2.7372,3.1408,3.6229,3.5018,3.4468,3.7382,3.667,3.6399,3.7896,3.8615,3.9606,4.1205,4.1956,4.2616,4.3441,4.3515,4.3515,4.3515,4.3515,4.3515,4.3515,4.3515,4.3515,4.3515,4.3515,4.3515,4.3515,4.3515,4.3515,4.3515,4.3515,4.3515,4.3515,4.3515,4.3515,4.3515,4.3515,4.3515,4.3515,4.3515,4.3515,4.3515,4.3515,4.3515,4.3718,4.5333,4.5883,4.6177,4.7792,4.8306,4.8306,4.8306,4.8306,4.8306,4.8306,4.8306,4.8306,4.8306,4.8306,4.8306,4.8306,4.8306,4.8306,4.8306,4.8306,4.8306,4.8306,4.8306,4.8306,4.8306,4.8306,4.8306,4.8306,4.8306,4.8306,4.8306,4.8306,4.8306,4.8306,4.8306,4.8306,4.8306,4.8306,4.8306,4.8306,4.8306,4.8306,4.8306,4.8306,4.8306,4.8306,4.8306,4.8306,4.8306,4.8306,4.8306,4.8306,4.8306,4.8306,1.3539,1.5368,1.7245,1.9661,1.8316,1.7883,2.3414,2.2629,2.1609,2.4539,2.6329,2.7603,2.8436,3.0638,3.2252,3.1971,3.4247,3.6633,3.8358,3.8505,3.8762,3.9606,3.979,4.0451,4.2066,4.2286,4.2616,4.3441,4.3515,4.3515,4.3515,4.3515,4.3515,4.3515,4.3515,4.3515,4.3515,4.3515,4.3515,4.3515,4.3515,4.3515,4.3515,4.3515,4.3515,4.3515,4.3515,4.3515,4.3515,4.3515,4.3515,4.3515,4.3515,4.3515,4.3515,4.3515,4.3515,4.3718,4.5333,4.5883,4.6177,4.7792,4.8306,4.8306,4.8306,4.8306,4.8306,4.8306,4.8306,4.8306,4.8306,4.8306,4.8306,4.8306,4.8306,4.8306,4.8306,4.8306,4.8306,4.8306,4.8306,4.8306,4.8306,4.8306,4.8306,4.8306,4.8306,4.8306,4.8306,4.8306,4.8306,4.8306,4.8306,4.8306,4.8306,4.8306,4.8306,4.8306,4.8306,4.8306,4.8306,4.8306,4.8306,4.8306,4.8306,4.8306,4.8306,4.8306,4.8306,4.8306,4.8306,4.8306,1.1994,1.4648,1.7488,1.8914,1.9504,2.122,2.6827,2.7783,2.783,2.8908,3.0393,3.1311,3.0613,3.3733,3.5775,3.394,3.5973,3.7991,3.8615,3.8689,3.9019,3.979,4.0341,4.1075,4.2176,4.2763,4.3167,4.3478,4.3515,4.3515,4.3515,4.3515,4.3515,4.3515,4.3515,4.3515,4.3515,4.3515,4.3515,4.3515,4.3515,4.3515,4.3515,4.3515,4.3515,4.3515,4.3515,4.3515,4.3515,4.3515,4.3515,4.3515,4.3515,4.3515,4.3515,4.3515,4.3828,4.4415,4.5516,4.625,4.6819,4.7939,4.8306,4.8306,4.8306,4.8306,4.8363,4.8604,4.8656,4.8622,4.8345,4.8306,4.8306,4.8306,4.8306,4.8306,4.8306,4.8306,4.8306,4.8306,4.8306,4.8306,4.8306,4.8306,4.8306,4.8306,4.8306,4.8306,4.8306,4.8306,4.8306,4.8306,4.8306,4.8306,4.8306,4.8306,4.8306,4.8306,4.8306,4.8306,4.8306,4.8306,4.8306,4.8306,4.8306,4.8306,4.8306,4.8306,4.8306,4.8306,4.8306,4.8306,1.3003,1.5258,1.8133,1.9963,2.126,2.3636,2.9596,3.0939,3.1376,3.2991,3.36,3.355,3.2706,3.5055,3.667,3.5224,3.7059,3.8689,3.8689,3.8689,3.9093,4.0157,4.0781,4.1499,4.258,4.3167,4.3515,4.3515,4.3515,4.3515,4.3515,4.3515,4.3515,4.3515,4.3515,4.3515,4.3515,4.3515,4.3515,4.3515,4.3515,4.3515,4.3515,4.3515,4.3515,4.3515,4.3515,4.3515,4.3515,4.3515,4.3515,4.3515,4.3515,4.3515,4.3515,4.3515,4.4011,4.4819,4.5626,4.6507,4.7426,4.8237,4.8568,4.8693,4.8693,4.8693,4.8727,4.8994,4.9092,4.9011,4.8744,4.8693,4.8693,4.8693,4.8693,4.8693,4.8693,4.8693,4.864,4.8495,4.8495,4.8458,4.8325,4.8306,4.8306,4.8306,4.8306,4.8306,4.8306,4.8306,4.8306,4.8306,4.8306,4.8306,4.8306,4.8306,4.8306,4.8306,4.8306,4.8306,4.8306,4.8306,4.8306,4.8306,4.8306,4.8306,4.8306,4.8306,4.8306,4.8306,4.8306,4.8306,1.747,1.7869,1.9518,2.3529,2.324,2.3795,3.0968,3.0748,3.0638,3.6354,3.5546,3.4064,3.4857,3.438,3.41,3.4857,3.7059,3.8689,3.8689,3.8726,3.9313,4.0912,4.1095,4.1735,4.3314,4.3515,4.3515,4.3515,4.3515,4.3515,4.3515,4.3515,4.3515,4.3515,4.3515,4.3515,4.3515,4.3515,4.3515,4.3515,4.3515,4.3515,4.3515,4.3515,4.3515,4.3515,4.3515,4.3515,4.3515,4.3515,4.3515,4.3515,4.3515,4.3515,4.3515,4.3515,4.4011,4.4856,4.5626,4.6683,4.7851,4.8617,4.9171,4.9489,4.9489,4.9489,4.9489,4.9504,4.9504,4.9504,4.9504,4.9504,4.9504,4.9504,4.9489,4.9489,4.9489,4.9489,4.9386,4.8978,4.8932,4.8779,4.8364,4.8306,4.8306,4.8306,4.8306,4.8306,4.8306,4.8306,4.8306,4.8306,4.8306,4.8306,4.8306,4.8306,4.8306,4.8306,4.8306,4.8306,4.8306,4.8306,4.8306,4.8306,4.8306,4.8306,4.8306,4.8306,4.8306,4.8306,4.8306,4.8306,1.3847,1.7724,2.191,2.1753,2.6172,3.1017,3.3015,3.2889,3.3513,3.7514,3.6853,3.5459,3.5078,3.6215,3.6729,3.5261,3.7059,3.8689,3.8689,3.9203,3.9937,4.0985,4.1609,4.2359,4.3387,4.3515,4.3515,4.3515,4.3515,4.3515,4.3515,4.3515,4.3515,4.3515,4.3515,4.3515,4.3515,4.3515,4.3515,4.3515,4.3515,4.3515,4.3515,4.3515,4.3515,4.3515,4.3515,4.3515,4.3515,4.3515,4.3515,4.3515,4.3515,4.3515,4.3515,4.3515,4.4378,4.559,4.581,4.7052,4.858,4.8803,4.9171,4.9489,4.9489,4.9489,4.9547,4.9859,4.9924,4.9987,5.0291,5.0347,5.0195,4.9617,4.9489,4.9489,4.9489,4.9489,4.946,4.9341,4.9326,4.928,4.9155,4.9139,4.9027,4.8761,4.8709,4.8709,4.8709,4.8477,4.8402,4.8674,4.8477,4.8306,4.8306,4.8306,4.8306,4.8306,4.8306,4.8306,4.8306,4.8306,4.8306,4.8306,4.8306,4.8306,4.8306,4.8306,4.8306,4.8306,4.8306,4.8306,1.8715,2.2397,2.6045,2.7126,3.0502,3.3944,3.539,3.5752,3.6303,3.8285,3.7661,3.6707,3.6509,3.7441,3.7845,3.6655,3.7719,3.8689,3.8689,3.9386,4.0194,4.0985,4.1809,4.2616,4.3441,4.3515,4.3515,4.3515,4.3515,4.3515,4.3515,4.3515,4.3515,4.3515,4.3515,4.3515,4.3515,4.3515,4.3515,4.3515,4.3515,4.3515,4.3515,4.3515,4.3515,4.3515,4.3515,4.3515,4.3515,4.3515,4.3515,4.3515,4.3515,4.3515,4.3515,4.3515,4.4525,4.592,4.6079,4.7374,4.8945,4.928,4.9547,4.9792,4.9924,4.9974,5.0012,5.0291,5.0336,5.038,5.0624,5.0712,5.0584,5.0111,4.9974,4.9974,4.9974,4.9974,4.9924,4.9792,4.9765,4.9673,4.9518,4.9489,4.9416,4.9171,4.9139,4.9139,4.9139,4.8932,4.8813,4.8915,4.8656,4.8477,4.8325,4.8306,4.8306,4.8306,4.8306,4.8306,4.8306,4.8306,4.8306,4.8306,4.8306,4.8306,4.8306,4.8306,4.8306,4.8306,4.8306,4.8306,2.75,2.9156,3.082,3.6111,3.5248,3.4124,3.7845,3.8689,3.8689,3.8689,3.8102,3.7823,3.8579,3.8102,3.786,3.8579,3.8689,3.8689,3.8689,3.946,4.0267,4.1022,4.1882,4.269,4.3441,4.3515,4.3515,4.3515,4.3515,4.3515,4.3515,4.3515,4.3515,4.3515,4.3515,4.3515,4.3515,4.3515,4.3515,4.3515,4.3515,4.3515,4.3515,4.3515,4.3515,4.3515,4.3515,4.3515,4.3515,4.3515,4.3515,4.3515,4.3515,4.3515,4.3515,4.3515,4.4524,4.6027,4.6359,4.7618,4.9139,4.9872,5.0135,5.0206,5.0594,5.0712,5.0712,5.0712,5.0712,5.0712,5.0712,5.0712,5.0712,5.0712,5.0712,5.0712,5.0712,5.0712,5.0594,5.0218,5.0159,5.0024,4.9659,4.9603,4.9589,4.9547,4.9518,4.9504,4.9547,4.9518,4.9371,4.9043,4.8928,4.8744,4.8364,4.8325,4.8306,4.8306,4.8306,4.8306,4.8306,4.8306,4.8306,4.8306,4.8306,4.8306,4.8306,4.8306,4.8306,4.8306,4.8306,4.8306,2.05,2.5689,3.1433,3.3287,3.5588,3.7624,3.8505,3.8689,3.8689,3.8689,3.8579,3.8505,3.8689,3.8579,3.8505,3.8689,3.8689,3.8689,3.8689,3.9937,4.0912,4.1058,4.2359,4.3314,4.3478,4.3515,4.3515,4.3515,4.3515,4.3515,4.3515,4.3515,4.3515,4.3515,4.3515,4.3515,4.3515,4.3515,4.3515,4.3515,4.3515,4.3515,4.3515,4.3515,4.3515,4.3515,4.3515,4.3515,4.3515,4.3515,4.3515,4.3515,4.3515,4.3515,4.3515,4.3515,4.4711,4.6359,4.6494,4.7949,4.9885,5.0024,5.0325,5.0594,5.0654,5.0712,5.0712,5.0712,5.0712,5.0712,5.0712,5.0712,5.0712,5.0712,5.0712,5.0712,5.0712,5.0712,5.0654,5.0594,5.0584,5.0525,5.0462,5.0451,5.0336,5.0012,4.9687,4.9603,4.9936,4.9687,4.9575,4.9832,4.928,4.8844,4.8779,4.8495,4.8306,4.8306,4.8306,4.8306,4.8306,4.8306,4.8306,4.8306,4.8306,4.8306,4.8306,4.8306,4.8306,4.8306,4.8306,4.8306,2.2885,2.7364,3.1568,3.4724,3.711,3.8689,3.8689,3.8689,3.8689,3.8689,3.8689,3.8689,3.8689,3.8689,3.8689,3.8689,3.8689,3.8836,3.9203,4.0341,4.1242,4.1609,4.2763,4.3515,4.3515,4.3515,4.3515,4.3515,4.3515,4.3515,4.3515,4.3515,4.3515,4.3515,4.3515,4.3515,4.3515,4.3515,4.3515,4.3515,4.3515,4.3515,4.3515,4.3515,4.3515,4.3515,4.3515,4.3515,4.3515,4.3515,4.3515,4.3515,4.3515,4.3515,4.3551,4.3938,4.4994,4.6301,4.7093,4.8317,4.9617,5.0195,5.038,5.0462,5.0634,5.0712,5.0712,5.0712,5.0712,5.0712,5.0712,5.0712,5.0712,5.0712,5.0712,5.0712,5.0712,5.0712,5.0712,5.0712,5.0712,5.0712,5.0712,5.0712,5.0624,5.044,5.0206,5.0147,5.0358,5.0195,5.0099,5.0111,4.9714,4.9326,4.8928,4.8692,4.8532,4.8306,4.8306,4.8306,4.8306,4.8306,4.8306,4.8306,4.8306,4.8306,4.8306,4.8306,4.8306,4.8306,4.8306,4.8306,2.5996,2.9285,3.1751,3.7331,3.8689,3.8689,3.8689,3.8689,3.8689,3.8689,3.8689,3.8689,3.8689,3.8689,3.8689,3.8689,3.8836,3.9129,3.979,4.0708,4.1535,4.2213,4.302,4.3515,4.3515,4.3515,4.3515,4.3515,4.3515,4.3515,4.3515,4.3546,4.358,4.358,4.358,4.3631,4.3697,4.3631,4.3631,4.3697,4.3697,4.3697,4.3697,4.3614,4.3546,4.3515,4.3515,4.3515,4.3515,4.3515,4.3515,4.3515,4.3515,4.3549,4.3691,4.45,4.5378,4.6409,4.7909,4.8781,4.9386,5.0369,5.0472,5.0279,5.0604,5.0712,5.0712,5.0712,5.0712,5.0712,5.0712,5.0789,5.0894,5.0894,5.101,5.1087,5.0933,5.101,5.1135,5.1135,5.1135,5.1087,5.0933,5.0894,5.0856,5.0712,5.0712,5.0712,5.0712,5.0712,5.0584,5.023,5.0147,4.9781,4.9059,4.8928,4.8727,4.8325,4.8306,4.8306,4.8306,4.8306,4.8306,4.8306,4.8306,4.8306,4.8306,4.8306,4.8306,4.8306,4.8306,4.8306,1.836,2.4843,3.2449,3.7441,3.8689,3.8689,3.8689,3.8689,3.8689,3.8689,3.8689,3.8689,3.8689,3.8689,3.8689,3.8689,3.9276,3.979,3.9879,4.1185,4.2176,4.2286,4.302,4.3515,4.3515,4.3515,4.3515,4.3515,4.3515,4.3515,4.3515,4.3791,4.3943,4.3943,4.3943,4.4087,4.4465,4.4087,4.4087,4.4465,4.4465,4.4465,4.4452,4.4073,4.3791,4.3515,4.3515,4.3515,4.3515,4.3515,4.3515,4.3515,4.3515,4.366,4.4033,4.492,4.6116,4.7516,4.8488,4.953,5.0483,5.0634,5.0644,5.0624,5.0702,5.0712,5.0712,5.0712,5.0712,5.0712,5.0712,5.1202,5.1731,5.1731,5.2318,5.2664,5.1885,5.2318,5.2856,5.2856,5.2856,5.2626,5.1885,5.1731,5.151,5.0789,5.0712,5.0712,5.0712,5.0712,5.0692,5.0624,5.0313,4.9924,4.946,4.9092,4.8727,4.8325,4.8306,4.8306,4.8306,4.8306,4.8306,4.8306,4.8306,4.8306,4.8306,4.8306,4.8306,4.8306,4.8306,4.8306,2.0189,2.6439,3.2572,3.7477,3.8689,3.8689,3.8689,3.8689,3.8689,3.8689,3.8689,3.8689,3.8689,3.8689,3.8689,3.8689,3.9386,4.0047,4.0524,4.1589,4.247,4.291,4.3277,4.3515,4.3515,4.3515,4.3515,4.3515,4.3515,4.3515,4.3515,4.3647,4.3823,4.3982,4.3982,4.419,4.4612,4.4414,4.4414,4.4612,4.4359,4.4261,4.4247,4.3881,4.3742,4.3775,4.358,4.3515,4.3515,4.3515,4.3889,4.4506,4.4506,4.5034,4.5824,4.6665,4.7391,4.8137,4.9186,4.9912,5.0391,5.0624,5.0712,5.0712,5.0712,5.0712,5.0712,5.0712,5.0712,5.0789,5.1279,5.1615,5.2,5.25,5.328,5.3818,5.3433,5.328,5.3203,5.3203,5.3203,5.3087,5.2692,5.2231,5.1769,5.1433,5.0971,5.0712,5.0712,5.0712,5.0712,5.0712,5.0525,5.0183,4.9547,4.9341,4.8982,4.8344,4.8306,4.8306,4.8306,4.8306,4.8306,4.8306,4.8306,4.8306,4.8306,4.8306,4.8306,4.8306,4.8306,4.8306,2.0931,2.5595,2.9474,3.5473,3.7073,3.7419,3.8552,3.8765,3.8689,3.8689,3.8689,3.8689,3.8689,3.8689,3.8762,3.8982,3.968,4.0487,4.1279,4.2103,4.2837,4.3441,4.3515,4.3515,4.3515,4.3515,4.3515,4.3515,4.3515,4.3515,4.3515,4.358,4.3742,4.3982,4.4087,4.4332,4.4739,4.4825,4.4825,4.4739,4.4521,4.4332,4.4146,4.3989,4.4004,4.4117,4.3677,4.3529,4.3631,4.3631,4.4316,4.5425,4.5425,4.6158,4.7314,4.8134,4.8528,4.8745,4.9854,5.023,5.0313,5.0604,5.0712,5.0712,5.0712,5.0712,5.0712,5.0712,5.0866,5.1125,5.1731,5.2231,5.2731,5.3395,5.4164,5.478,5.478,5.428,5.3857,5.3857,5.3857,5.378,5.3587,5.301,5.25,5.2269,5.1548,5.101,5.101,5.0827,5.0712,5.0712,5.0712,5.044,4.97,4.9547,4.9187,4.8514,4.8382,4.8306,4.8306,4.8306,4.8306,4.8306,4.8306,4.8306,4.8306,4.8306,4.8306,4.8306,4.8306,4.8306,1.5955,1.8052,2.0976,3.0,3.2575,3.401,3.813,3.8884,3.8689,3.8689,3.8689,3.8689,3.8689,3.8689,3.8946,3.9717,4.0524,4.1315,4.2139,4.291,4.3441,4.3515,4.3515,4.3515,4.3515,4.3515,4.3515,4.3515,4.3515,4.3515,4.3515,4.3786,4.3967,4.3982,4.4359,4.4739,4.5055,4.54,4.54,4.5094,4.539,4.5163,4.4599,4.4884,4.4861,4.4546,4.3807,4.3677,4.3952,4.3952,4.4691,4.5755,4.5755,4.6518,4.7682,4.8559,4.9073,4.9471,5.0375,5.0692,5.0654,5.0702,5.0712,5.0712,5.0712,5.0712,5.0712,5.0712,5.1241,5.1846,5.1885,5.3126,5.4395,5.4434,5.5049,5.5626,5.5626,5.5588,5.5549,5.5549,5.5549,5.5318,5.4549,5.4395,5.4087,5.328,5.2385,5.1846,5.1846,5.1164,5.0712,5.0712,5.0712,5.0514,5.0111,4.97,4.9326,4.8915,4.8495,4.8306,4.8306,4.8306,4.8306,4.8306,4.8306,4.8306,4.8306,4.8306,4.8306,4.8306,4.8306,4.8306,1.5588,1.7092,1.9007,2.5984,2.9953,3.2646,3.4522,3.7003,3.8961,3.8961,3.8833,3.8765,3.8919,3.8833,3.8946,3.9753,4.0598,4.1389,4.2176,4.3197,4.3818,4.3818,4.3818,4.3818,4.3818,4.3631,4.3515,4.3515,4.3515,4.3515,4.3515,4.3614,4.3881,4.4359,4.4261,4.4387,4.4788,4.5088,4.5222,4.5115,4.5,4.4943,4.4919,4.4825,4.4726,4.4599,4.4341,4.4247,4.4373,4.4373,4.5393,4.6958,4.6958,4.8033,4.9621,4.9918,5.0133,5.0289,5.0596,5.0712,5.0712,5.0712,5.0712,5.0712,5.0712,5.0712,5.0712,5.0712,5.1279,5.2038,5.2577,5.3626,5.4626,5.5164,5.5472,5.5703,5.5703,5.5703,5.5703,5.5703,5.5703,5.5588,5.5318,5.4664,5.4318,5.4741,5.3933,5.2933,5.2,5.1654,5.1279,5.075,5.0712,5.0525,5.0147,4.9714,4.9326,4.8911,4.8513,4.8306,4.8306,4.8306,4.8306,4.8306,4.8306,4.8306,4.8306,4.8306,4.8306,4.8306,4.8306,4.8306,1.3613,1.4671,1.636,2.2416,2.5625,2.8386,3.2755,3.5281,3.7169,3.8901,3.9141,3.9045,3.9212,3.9104,3.9303,4.0295,4.1151,4.201,4.2928,4.3608,4.4043,4.4175,4.419,4.419,4.419,4.4004,4.3886,4.3886,4.3886,4.3886,4.3886,4.3886,4.4154,4.4763,4.4508,4.4561,4.4943,4.5169,4.5211,4.5115,4.4988,4.4931,4.4931,4.4931,4.4884,4.4788,4.4896,4.4884,4.4776,4.5053,4.6195,4.7799,4.8067,4.9217,5.0712,5.0712,5.0712,5.0712,5.0712,5.0712,5.0712,5.0712,5.0712,5.0712,5.0712,5.0712,5.075,5.101,5.1702,5.2538,5.3395,5.428,5.5049,5.5549,5.5703,5.5703,5.5703,5.5703,5.5703,5.5703,5.5703,5.5703,5.5703,5.5049,5.4818,5.5588,5.4818,5.3818,5.2895,5.25,5.201,5.1202,5.1087,5.0901,5.0363,4.9936,4.9532,4.9123,4.8709,4.8439,4.8306,4.8306,4.8306,4.8306,4.8306,4.8306,4.8306,4.8306,4.8306,4.8306,4.8306,4.8306,0.0,0.0,0.0,1.9061,1.9379,2.113,3.2826,3.3546,3.3232,3.8339,3.9429,3.9467,3.9592,3.963,4.0063,4.139,4.2267,4.3203,4.4371,4.4261,4.4175,4.4585,4.4624,4.4624,4.4624,4.4612,4.4612,4.4612,4.4612,4.4612,4.4612,4.4624,4.4763,4.5094,4.5077,4.5253,4.5568,4.5577,4.5419,4.5115,4.5429,4.5253,4.4663,4.5293,4.5419,4.5148,4.5448,4.5419,4.5203,4.6015,4.7016,4.8202,4.9048,4.9933,5.0712,5.0712,5.0712,5.0712,5.0712,5.0712,5.0712,5.0712,5.0712,5.0712,5.0712,5.0712,5.0894,5.1692,5.2538,5.3433,5.4318,5.5126,5.5703,5.5703,5.5703,5.5703,5.5703,5.5703,5.5703,5.5703,5.5703,5.5703,5.5703,5.5703,5.5703,5.5703,5.5049,5.4511,5.4511,5.3741,5.2856,5.2,5.1885,5.1548,5.0789,5.0336,4.9924,4.9518,4.9123,4.8709,4.8325,4.8306,4.8306,4.8306,4.8306,4.8306,4.8306,4.8306,4.8306,4.8306,4.8306,4.8306,0.9702,0.0,0.0,0.0,0.0,0.0,2.2211,2.585,2.9551,3.3583,3.512,3.6618,3.9454,4.0439,4.095,4.132,4.1906,4.2598,4.3516,4.431,4.4861,4.4943,4.4954,4.4954,4.4954,4.4751,4.4612,4.4612,4.4612,4.4612,4.4612,4.4837,4.4896,4.4751,4.5211,4.5273,4.4884,4.5137,4.5191,4.5115,4.5201,4.5263,4.5313,4.5532,4.5559,4.5457,4.5568,4.5896,4.6407,4.6638,4.7252,4.8202,4.9048,4.9933,5.0712,5.0712,5.0712,5.0712,5.0712,5.0712,5.0712,5.0712,5.0712,5.0712,5.0712,5.1125,5.1625,5.1846,5.2972,5.4318,5.5164,5.5511,5.5703,5.5703,5.5703,5.5703,5.5703,5.5703,5.5703,5.5703,5.5703,5.5703,5.5703,5.5703,5.5703,5.5703,5.5511,5.5164,5.4549,5.3741,5.2856,5.2,5.1395,5.0933,5.0712,5.0336,4.9924,4.9518,4.9123,4.8709,4.8325,4.8306,4.8306,4.8306,4.8306,4.8306,4.8306,4.8306,4.8306,4.8306,4.8306,4.8306,0.0,0.0,0.0,1.1962,0.0,0.0,2.125,2.4444,2.8093,3.4462,3.6377,3.7585,3.985,4.066,4.0967,4.0967,4.1838,4.2792,4.3591,4.4511,4.5159,4.5283,4.5293,4.5293,4.5293,4.511,4.5011,4.5011,4.5011,4.5011,4.5011,4.5211,4.5222,4.5022,4.541,4.5419,4.5022,4.5211,4.5293,4.5293,4.5293,4.541,4.5594,4.5594,4.5594,4.5594,4.5594,4.6086,4.6923,4.7269,4.7894,4.874,4.9586,5.025,5.0712,5.0712,5.0712,5.0712,5.0712,5.0712,5.0712,5.0712,5.0712,5.0712,5.0712,5.1279,5.1962,5.2346,5.3664,5.5126,5.5588,5.5703,5.5703,5.5703,5.5703,5.5703,5.5703,5.5703,5.5703,5.5703,5.5703,5.5703,5.5703,5.5703,5.5703,5.5703,5.5703,5.5511,5.5049,5.4549,5.378,5.2577,5.201,5.1471,5.075,5.0483,5.0171,4.9792,4.9371,4.8961,4.8568,4.8383,4.8306,4.8306,4.8306,4.8306,4.8306,4.8306,4.8306,4.8306,4.8306,4.8306,0.0,0.0,0.0,0.0,1.2223,0.0,2.4119,2.5273,2.672,3.6003,3.8101,3.8331,3.8723,3.8877,3.8877,3.8808,4.0731,4.2692,4.397,4.4738,4.5263,4.5568,4.5594,4.5594,4.5594,4.5594,4.5594,4.5594,4.5594,4.5594,4.5594,4.5594,4.5594,4.5594,4.5594,4.5594,4.5594,4.5594,4.5594,4.5594,4.5594,4.5594,4.5594,4.5594,4.5594,4.5594,4.5594,4.6163,4.7077,4.7817,4.8625,4.9471,5.0366,5.0712,5.0712,5.0712,5.0712,5.0712,5.0712,5.0712,5.0712,5.0712,5.0712,5.0712,5.0712,5.1279,5.2115,5.3087,5.4472,5.5703,5.5703,5.5703,5.5703,5.5703,5.5703,5.5703,5.5703,5.5703,5.5703,5.5703,5.5703,5.5703,5.5703,5.5703,5.5703,5.5703,5.5703,5.5703,5.5703,5.5703,5.5126,5.3626,5.3318,5.2549,5.0971,5.0827,5.0619,5.0087,4.9687,4.9295,4.8864,4.8514,4.8306,4.8306,4.8306,4.8306,4.8306,4.8306,4.8306,4.8306,4.8306,4.8306,0.0,0.0,0.0,0.0,0.0,0.0,1.3593,1.5535,1.8378,2.1293,2.2945,2.4714,2.7592,2.8626,2.8842,2.8217,3.3015,3.8354,4.2731,4.4589,4.5541,4.5586,4.5594,4.5594,4.5594,4.5594,4.5594,4.5594,4.5594,4.5594,4.5594,4.5594,4.5594,4.5594,4.5594,4.5594,4.5594,4.5594,4.5594,4.5594,4.5594,4.5594,4.5594,4.5594,4.5594,4.5594,4.5594,4.6471,4.7894,4.8048,4.8625,4.9471,5.0366,5.0712,5.0712,5.0712,5.0712,5.0712,5.0712,5.0712,5.0712,5.0712,5.0712,5.0712,5.0712,5.1279,5.2231,5.3818,5.4934,5.5703,5.5703,5.5703,5.5703,5.5703,5.5703,5.5703,5.5703,5.5703,5.5703,5.5703,5.5703,5.5703,5.5703,5.5703,5.5703,5.5703,5.5703,5.5703,5.5703,5.5703,5.5549,5.5241,5.401,5.2779,5.1731,5.1654,5.1097,4.9683,4.9532,4.9171,4.8458,4.8344,4.8306,4.8306,4.8306,4.8306,4.8306,4.8306,4.8306,4.8306,4.8306,4.8306,0.0,0.0,0.0,1.2695,0.0,0.0,0.0,1.5668,1.768,2.1633,2.2428,2.3211,2.5825,2.5958,2.5696,2.5696,3.0751,3.4863,3.533,4.0891,4.5133,4.5556,4.5594,4.5594,4.5594,4.5594,4.5594,4.5594,4.5594,4.5594,4.5594,4.5594,4.5594,4.5594,4.5594,4.5594,4.5594,4.5594,4.5594,4.5594,4.5594,4.5594,4.5594,4.5594,4.5594,4.5594,4.5594,4.6547,4.8086,4.8086,4.8856,5.0087,5.0519,5.0712,5.0712,5.0712,5.0712,5.0712,5.0712,5.0712,5.0712,5.0712,5.0712,5.0712,5.0712,5.1279,5.2269,5.401,5.478,5.5203,5.5588,5.5703,5.5703,5.5703,5.5703,5.5703,5.5703,5.5703,5.5703,5.5703,5.5703,5.5703,5.5703,5.5703,5.5703,5.5703,5.5703,5.5703,5.5703,5.5703,5.5703,5.5703,5.4934,5.4049,5.3049,5.2702,5.1946,5.0504,5.0223,4.97,4.864,4.8402,4.8306,4.8306,4.8306,4.8306,4.8306,4.8306,4.8306,4.8306,4.8306,4.8306,0.0,0.0,0.0,0.0,0.0,1.3439,0.0,0.0,0.0,2.3024,2.3033,2.2517,2.3846,2.3141,2.2511,2.3027,2.7593,2.9895,2.6365,3.4518,4.1245,4.2244,4.4226,4.5109,4.4184,4.3962,4.4346,4.5518,4.4509,4.4385,4.5556,4.5594,4.5594,4.5594,4.5594,4.5594,4.5594,4.5594,4.5594,4.5594,4.5594,4.5594,4.5594,4.5594,4.5594,4.5594,4.5594,4.6547,4.8086,4.8086,4.9125,5.0712,5.0712,5.0712,5.0712,5.0712,5.0712,5.0712,5.0712,5.0712,5.0712,5.0712,5.0712,5.0712,5.0712,5.1279,5.2192,5.3587,5.4241,5.4664,5.528,5.5588,5.5703,5.5703,5.5703,5.5703,5.5703,5.5703,5.5703,5.5703,5.5703,5.5703,5.5703,5.5703,5.5703,5.5703,5.5703,5.5703,5.5703,5.5703,5.5703,5.5703,5.5703,5.5241,5.4087,5.351,5.2565,5.104,5.0709,5.0025,4.885,4.8477,4.8306,4.8306,4.8306,4.8306,4.8306,4.8306,4.8306,4.8306,4.8306,4.8306,0.0,0.0,0.0,0.0,1.6445,0.0,0.0,0.0,1.338,1.1987,0.0,1.1521,1.1702,0.0,0.0,1.1702,1.6507,2.0207,1.9779,2.473,2.8995,3.0519,3.927,4.3463,3.9128,3.8039,3.9845,4.5201,4.0622,3.9961,4.5316,4.5594,4.5594,4.5594,4.5594,4.5594,4.5594,4.5594,4.5594,4.5594,4.5594,4.5594,4.5594,4.5594,4.5594,4.5594,4.5594,4.6547,4.8086,4.8086,4.9125,5.0712,5.0712,5.0712,5.0712,5.0712,5.0712,5.0712,5.0712,5.0712,5.0712,5.0712,5.0712,5.0712,5.0712,5.1279,5.1923,5.2154,5.3318,5.4511,5.4626,5.5164,5.5703,5.5703,5.5703,5.5703,5.5703,5.5703,5.5703,5.5703,5.5703,5.5703,5.5703,5.5703,5.5703,5.5703,5.5703,5.5703,5.5703,5.5703,5.5703,5.5703,5.5703,5.5241,5.4087,5.351,5.2208,4.9844,4.9669,4.9268,4.8383,4.8325,4.8306,4.8306,4.8306,4.8306,4.8306,4.8306,4.8306,4.8306,4.8306,4.8306,0.0,0.0,0.0,0.0,0.0,0.0,1.2281,0.0,1.1204,1.1127,0.0,0.0,0.0,0.0,0.0,0.0,1.463,1.7027,1.4537,2.1249,2.6823,2.7969,3.2157,3.5454,3.6678,3.7346,3.9805,4.4939,4.0773,4.0227,4.5316,4.5594,4.5594,4.5594,4.5594,4.5594,4.5594,4.5594,4.5594,4.5594,4.5594,4.5594,4.5594,4.5594,4.5902,4.6355,4.6355,4.7317,4.8856,4.8856,4.9586,5.0712,5.0712,5.0712,5.0712,5.0712,5.0712,5.0712,5.0712,5.0712,5.0712,5.0712,5.0712,5.0712,5.0712,5.0933,5.1395,5.2395,5.3164,5.3972,5.4934,5.5434,5.5703,5.5703,5.5703,5.5703,5.5703,5.5703,5.5703,5.5703,5.5703,5.5703,5.5703,5.5703,5.5703,5.5703,5.5703,5.5703,5.5703,5.5703,5.5703,5.5703,5.5703,5.5511,5.5011,5.478,5.3805,5.179,5.0763,4.988,4.9096,4.904,4.882,4.8306,4.8306,4.8306,4.8306,4.8306,4.8306,4.8306,4.8306,4.8306,2.2854,0.0,2.3451,1.7957,1.7343,1.6956,1.2474,1.1057,0.0,0.0,1.1379,0.0,0.0,0.0,0.0,0.0,0.0,1.4443,1.1051,1.7065,2.2114,2.2913,2.4472,2.7632,3.3099,3.3469,3.6008,4.2306,3.8703,3.8966,4.5278,4.5594,4.5594,4.5594,4.5594,4.5594,4.5594,4.5594,4.5594,4.5594,4.5594,4.5594,4.5594,4.5864,4.6317,4.6923,4.7115,4.8048,4.9394,4.9394,4.9894,5.0712,5.0712,5.0712,5.0712,5.0712,5.0712,5.0712,5.0712,5.0712,5.0712,5.0712,5.0712,5.0712,5.0712,5.0712,5.102,5.2433,5.301,5.3549,5.4972,5.5511,5.5703,5.5703,5.5703,5.5703,5.5703,5.5703,5.5703,5.5703,5.5703,5.5703,5.5703,5.5703,5.5703,5.5703,5.5703,5.5703,5.5703,5.5703,5.5703,5.5703,5.5703,5.5511,5.5049,5.5164,5.4633,5.3293,5.1374,5.0135,4.9786,4.9431,4.904,4.8673,4.8673,4.8673,4.8673,4.8673,4.8526,4.8306,4.8306,4.8306,2.8906,2.7587,2.625,1.785,1.6341,1.568,1.0874,1.1535,1.2747,0.0,0.0,0.0,0.0,0.0,0.0,0.0,0.0,0.0,0.0,0.0,0.0,0.0,0.0,0.0,0.0,2.3205,2.5057,3.6059,3.2077,3.3944,4.5009,4.5594,4.5594,4.5594,4.5594,4.5594,4.5594,4.5594,4.5594,4.5594,4.5594,4.5594,4.5633,4.6471,4.6885,4.6923,4.774,4.8586,4.9394,4.9394,4.9894,5.0712,5.0712,5.0712,5.0712,5.0712,5.0712,5.0712,5.0712,5.0712,5.0712,5.0712,5.0712,5.0712,5.0712,5.0712,5.0856,5.1692,5.2538,5.3395,5.4318,5.5126,5.5703,5.5703,5.5703,5.5703,5.5703,5.5703,5.5703,5.5703,5.5703,5.5703,5.5703,5.5703,5.5703,5.5703,5.5703,5.5703,5.5703,5.5703,5.5703,5.5703,5.5703,5.5049,5.3433,5.3741,5.3798,5.3256,5.0541,4.9325,5.0162,4.8993,4.871,4.9537,4.9574,4.9574,4.9574,4.9574,4.9114,4.8306,4.8306,4.8306,3.3158,3.4019,3.3501,2.4742,2.2915,2.1307,1.3779,1.2711,1.2858,1.1223,0.0,0.0,0.0,0.0,0.0,0.0,0.0,0.0,0.0,0.0,0.0,0.0,0.0,0.0,0.0,0.0,0.0,3.5757,3.584,0.0,4.524,4.5594,4.5594,4.5594,4.5594,4.5594,4.5594,4.5594,4.5594,4.5594,4.5594,4.5594,4.5633,4.6509,4.7192,4.774,4.8586,4.9433,5.025,5.025,5.0442,5.0712,5.0712,5.0712,5.0712,5.0712,5.0712,5.0712,5.0712,5.0712,5.0712,5.0712,5.0712,5.0712,5.0712,5.0712,5.0856,5.1654,5.2538,5.328,5.3549,5.4664,5.5549,5.5011,5.5318,5.5703,5.5703,5.5703,5.5703,5.5703,5.5703,5.5703,5.5703,5.5703,5.5703,5.5703,5.5703,5.5703,5.5703,5.5703,5.5703,5.5703,5.5703,5.5472,5.4895,5.4795,5.4639,5.4482,5.3278,5.2353,5.1819,5.136,5.0915,5.0418,5.0398,5.0105,4.961,4.961,4.915,4.8306,4.8306,4.8306,3.672,3.7813,3.7491,2.9592,2.798,2.6095,1.7622,1.6361,1.651,1.4868,1.497,0.0,0.0,0.0,0.0,0.0,0.0,0.0,0.0,0.9702,0.0,0.0,0.0,0.0,0.0,0.0,0.0,0.0,0.0,0.0,0.0,4.555,4.5594,4.5594,4.5594,4.5594,4.5594,4.5594,4.5594,4.5594,4.5594,4.5594,4.5633,4.6817,4.7625,4.8163,4.9356,5.0164,5.0712,5.0712,5.0712,5.0712,5.0712,5.0712,5.0712,5.0712,5.0712,5.0712,5.0712,5.0712,5.0712,5.0712,5.0712,5.0712,5.0712,5.0712,5.0856,5.1654,5.2538,5.3203,5.3203,5.4241,5.5049,5.4241,5.4664,5.528,5.528,5.5511,5.5703,5.5703,5.5703,5.5703,5.5703,5.5703,5.5703,5.5703,5.5703,5.5703,5.5703,5.5703,5.5703,5.5703,5.5703,5.5703,5.5703,5.5101,5.4866,5.53,5.44,5.3611,5.3096,5.2632,5.2148,5.1658,5.1658,5.1324,5.0674,5.0674,5.0153,4.9187,4.9187,4.904]}]]